[[{"header":{"parameterUnit":"m.s-1","parameterCategory":1,"la1":30.6,"la2":29.2853,"lo1":-89.7004,"lo2":-87.6739,"dy":0.0162,"dx":0.0183,"nx":112,"ny":82,"refTime":"2023-05-24T00:00:00:Z","depth":0,"parameterNumber":2,"parameterNumberName":"U-component_of_WINDS"},"data":[0.0,0.0,0.0,0.0,0.0,0.0,0.0,0.0,0.0,0.0,0.0,0.0,0.0,0.0,0.0,0.0,0.0,0.0,0.0,0.0,0.0,0.0,0.0,0.0,0.0,0.0,0.0,0.0,0.0,0.0,0.0,0.0,0.0,0.0,0.0,0.0,0.0,0.0,0.0,0.0,0.0,0.0,0.0,0.0,0.0,0.0,0.0,0.0,0.0,0.0,0.0,0.0,0.0,0.0,0.0,0.0,0.0,0.0,0.0,0.0,0.0,0.0,0.0,0.0,0.0,0.0,0.0,0.0,0.0,0.0,0.0,0.0,0.0,0.0,0.0,0.0,0.0,0.0,0.0,0.0,0.0,0.0,0.0,0.0,0.0,0.0,0.0,0.0,0.0,0.0,3.5617,3.8174,4.2671,4.4935,4.3718,4.2073,3.9248,3.4937,0.0,0.0,0.0,0.0,0.0,0.0,0.0,0.0,0.0,0.0,0.0,0.0,0.0,0.0,0.0,0.0,0.0,0.0,0.0,0.0,0.0,0.0,0.0,0.0,0.0,0.0,0.0,0.0,0.0,0.0,0.0,0.0,0.0,0.0,0.0,0.0,0.0,0.0,0.0,0.0,0.0,0.0,0.0,0.0,0.0,0.0,0.0,0.0,0.0,0.0,0.0,0.0,0.0,0.0,0.0,0.0,0.0,0.0,0.0,0.0,0.0,0.0,0.0,0.0,0.0,0.0,0.0,0.0,0.0,0.0,0.0,0.0,0.0,0.0,0.0,0.0,0.0,0.0,0.0,0.0,0.0,0.0,0.0,0.0,0.0,0.0,0.0,0.0,0.0,0.0,0.0,0.0,0.0,0.0,0.0,0.0,0.0,0.0,0.0,0.0,0.0,0.0,0.0,0.0,3.7375,4.2691,4.4984,4.5832,4.5065,4.1734,3.8473,3.5519,0.0,0.0,0.0,0.0,0.0,0.0,0.0,0.0,0.0,0.0,0.0,0.0,0.0,0.0,0.0,0.0,0.0,0.0,0.0,0.0,0.0,0.0,0.0,0.0,0.0,0.0,0.0,0.0,0.0,0.0,0.0,0.0,0.0,0.0,0.0,0.0,0.0,0.0,0.0,0.0,0.0,0.0,0.0,0.0,0.0,0.0,0.0,0.0,0.0,0.0,0.0,0.0,0.0,0.0,0.0,0.0,0.0,0.0,0.0,0.0,0.0,0.0,0.0,0.0,0.0,0.0,0.0,0.0,0.0,0.0,0.0,0.0,0.0,0.0,0.0,0.0,0.0,0.0,0.0,0.0,0.0,0.0,0.0,0.0,0.0,0.0,0.0,0.0,0.0,0.0,0.0,0.0,0.0,0.0,0.0,0.0,0.0,0.0,0.0,0.0,0.0,0.0,0.0,3.754,3.9999,4.4875,4.5942,4.5882,4.4855,4.1465,3.8443,3.6178,3.2841,0.0,0.0,0.0,0.0,0.0,0.0,0.0,0.0,0.0,0.0,0.0,0.0,0.0,0.0,0.0,0.0,0.0,0.0,0.0,0.0,0.0,0.0,0.0,0.0,0.0,0.0,0.0,0.0,0.0,0.0,0.0,0.0,0.0,0.0,0.0,0.0,0.0,0.0,0.0,0.0,0.0,0.0,0.0,0.0,0.0,0.0,0.0,0.0,0.0,0.0,0.0,0.0,0.0,0.0,0.0,0.0,0.0,0.0,0.0,0.0,0.0,0.0,0.0,0.0,0.0,0.0,0.0,0.0,0.0,0.0,0.0,0.0,0.0,0.0,0.0,0.0,0.0,0.0,0.0,0.0,0.0,0.0,0.0,0.0,0.0,0.0,0.0,0.0,0.0,0.0,0.0,0.0,0.0,0.0,0.0,0.0,0.0,0.0,0.0,0.0,0.0,0.0,4.0118,4.2162,4.6121,4.638,4.5762,4.4416,4.1016,3.8174,3.6365,3.2347,0.0,0.0,0.0,0.0,0.0,0.0,0.0,0.0,0.0,0.0,0.0,0.0,0.0,0.0,0.0,0.0,0.0,0.0,0.0,0.0,0.0,0.0,0.0,0.0,0.0,0.0,0.0,0.0,0.0,0.0,0.0,0.0,0.0,0.0,0.0,0.0,0.0,0.0,0.0,0.0,0.0,0.0,0.0,0.0,0.0,0.0,0.0,0.0,0.0,0.0,0.0,0.0,0.0,0.0,0.0,0.0,0.0,0.0,0.0,0.0,0.0,0.0,0.0,0.0,0.0,0.0,0.0,0.0,0.0,0.0,0.0,0.0,0.0,0.0,0.0,0.0,0.0,0.0,0.0,0.0,0.0,0.0,0.0,0.0,0.0,0.0,0.0,0.0,0.0,0.0,0.0,0.0,0.0,0.0,0.0,0.0,0.0,0.0,0.0,0.0,0.0,0.0,4.0516,4.286,4.682,4.6659,4.5762,4.4416,4.0148,3.6977,3.5661,3.127,0.0,0.0,0.0,0.0,0.0,0.0,0.0,0.0,0.0,0.0,0.0,0.0,0.0,0.0,0.0,0.0,0.0,0.0,0.0,0.0,0.0,0.0,0.0,0.0,0.0,0.0,0.0,0.0,0.0,0.0,0.0,0.0,0.0,0.0,0.0,0.0,0.0,0.0,0.0,0.0,0.0,0.0,0.0,0.0,0.0,0.0,0.0,0.0,0.0,0.0,0.0,0.0,0.0,0.0,0.0,0.0,0.0,0.0,0.0,0.0,0.0,0.0,0.0,0.0,0.0,0.0,0.0,0.0,0.0,0.0,0.0,0.0,0.0,0.0,0.0,0.0,0.0,0.0,0.0,0.0,0.0,0.0,0.0,0.0,0.0,0.0,0.0,0.0,0.0,0.0,0.0,0.0,0.0,0.0,0.0,0.0,0.0,0.0,0.0,0.0,0.0,0.0,4.0945,4.3379,0.0,4.6322,4.4975,4.3249,3.9987,3.7105,3.5027,0.0,0.0,0.0,0.0,0.0,0.0,0.0,0.0,0.0,0.0,0.0,0.0,0.0,0.0,0.0,0.0,0.0,0.0,0.0,0.0,0.0,0.0,0.0,0.0,0.0,0.0,0.0,0.0,0.0,0.0,0.0,0.0,0.0,0.0,0.0,0.0,0.0,0.0,0.0,0.0,0.0,0.0,0.0,0.0,0.0,0.0,0.0,0.0,0.0,0.0,0.0,0.0,0.0,0.0,0.0,0.0,0.0,0.0,0.0,0.0,0.0,0.0,0.0,0.0,0.0,0.0,0.0,0.0,0.0,0.0,0.0,0.0,0.0,0.0,0.0,0.0,0.0,0.0,0.0,0.0,0.0,0.0,0.0,0.0,0.0,0.0,0.0,0.0,0.0,0.0,0.0,0.0,0.0,0.0,0.0,0.0,0.0,0.0,0.0,0.0,0.0,0.0,3.9138,4.1164,4.3658,0.0,4.6112,4.4506,4.256,3.9197,3.6493,3.4907,0.0,0.0,0.0,0.0,0.0,0.0,0.0,0.0,0.0,0.0,0.0,0.0,0.0,0.0,0.0,0.0,0.0,0.0,0.0,0.0,0.0,0.0,0.0,0.0,0.0,0.0,0.0,0.0,0.0,0.0,0.0,0.0,0.0,0.0,0.0,0.0,0.0,0.0,0.0,0.0,0.0,0.0,0.0,0.0,0.0,0.0,0.0,0.0,0.0,0.0,0.0,0.0,0.0,0.0,0.0,0.0,0.0,0.0,0.0,0.0,0.0,0.0,0.0,0.0,0.0,0.0,0.0,0.0,0.0,0.0,0.0,0.0,0.0,0.0,0.0,0.0,0.0,0.0,0.0,0.0,0.0,0.0,0.0,0.0,0.0,0.0,0.0,0.0,0.0,0.0,0.0,0.0,0.0,0.0,0.0,0.0,0.0,0.0,0.0,0.0,0.0,0.0,3.9168,4.1164,4.3688,4.695,4.6112,4.4506,4.256,3.755,3.4787,0.0,0.0,0.0,0.0,0.0,0.0,0.0,0.0,0.0,0.0,0.0,0.0,0.0,0.0,0.0,0.0,0.0,0.0,0.0,0.0,0.0,0.0,0.0,0.0,0.0,0.0,0.0,0.0,0.0,0.0,0.0,0.0,0.0,0.0,0.0,0.0,0.0,0.0,0.0,0.0,0.0,0.0,0.0,0.0,0.0,0.0,0.0,0.0,0.0,0.0,0.0,0.0,0.0,0.0,0.0,0.0,0.0,0.0,0.0,0.0,0.0,0.0,0.0,0.0,0.0,0.0,0.0,0.0,0.0,0.0,0.0,0.0,0.0,0.0,0.0,0.0,0.0,0.0,0.0,0.0,0.0,0.0,0.0,0.0,0.0,0.0,0.0,0.0,0.0,0.0,0.0,0.0,0.0,0.0,0.0,0.0,0.0,0.0,0.0,0.0,0.0,0.0,0.0,3.9796,4.1824,4.4127,4.701,4.6112,4.4327,4.1882,3.814,3.5595,3.4847,0.0,0.0,0.0,0.0,0.0,0.0,0.0,0.0,0.0,0.0,0.0,0.0,0.0,0.0,0.0,0.0,0.0,0.0,0.0,0.0,0.0,0.0,0.0,0.0,0.0,0.0,0.0,0.0,0.0,0.0,0.0,0.0,0.0,0.0,0.0,0.0,0.0,0.0,0.0,0.0,0.0,0.0,0.0,0.0,0.0,0.0,0.0,0.0,0.0,0.0,0.0,0.0,0.0,0.0,0.0,0.0,0.0,0.0,0.0,0.0,0.0,0.0,0.0,0.0,0.0,0.0,0.0,0.0,0.0,0.0,0.0,0.0,0.0,0.0,0.0,0.0,0.0,0.0,0.0,0.0,0.0,0.0,0.0,0.0,0.0,0.0,0.0,0.0,0.0,0.0,0.0,0.0,0.0,0.0,0.0,0.0,0.0,0.0,0.0,0.0,0.0,0.0,3.9709,4.1934,4.4117,4.6262,4.5783,4.4137,4.1244,3.8221,3.5805,3.4188,0.0,0.0,0.0,0.0,0.0,0.0,0.0,0.0,0.0,0.0,0.0,0.0,0.0,0.0,0.0,0.0,0.0,0.0,0.0,0.0,0.0,0.0,0.0,0.0,0.0,0.0,0.0,0.0,0.0,0.0,0.0,0.0,0.0,0.0,0.0,0.0,0.0,0.0,0.0,0.0,0.0,0.0,0.0,0.0,0.0,0.0,0.0,0.0,0.0,0.0,0.0,0.0,0.0,0.0,0.0,0.0,0.0,0.0,0.0,0.0,0.0,0.0,0.0,0.0,0.0,0.0,0.0,0.0,0.0,0.0,0.0,0.0,0.0,0.0,0.0,0.0,0.0,0.0,0.0,0.0,0.0,0.0,0.0,0.0,0.0,0.0,0.0,0.0,0.0,0.0,0.0,0.0,0.0,0.0,0.0,0.0,0.0,0.0,0.0,0.0,0.0,0.0,3.9077,4.1657,4.3778,4.502,4.5252,4.3958,4.0666,3.8033,3.5737,3.3732,0.0,0.0,0.0,0.0,0.0,0.0,0.0,0.0,0.0,0.0,0.0,0.0,0.0,0.0,0.0,0.0,0.0,0.0,0.0,0.0,0.0,0.0,0.0,0.0,0.0,0.0,0.0,0.0,0.0,0.0,0.0,0.0,0.0,0.0,0.0,0.0,0.0,0.0,0.0,0.0,0.0,0.0,0.0,0.0,0.0,0.0,0.0,0.0,0.0,0.0,0.0,0.0,0.0,0.0,0.0,0.0,0.0,0.0,0.0,0.0,3.139,0.0,0.0,0.0,0.0,0.0,0.0,0.0,0.0,0.0,0.0,0.0,0.0,0.0,0.0,0.0,0.0,0.0,0.0,0.0,0.0,0.0,0.0,0.0,0.0,0.0,0.0,0.0,0.0,0.0,0.0,0.0,0.0,0.0,0.0,0.0,0.0,0.0,0.0,0.0,0.0,0.0,3.8655,4.145,4.3465,4.3918,4.4773,4.3958,4.0666,3.8452,3.6357,3.4398,3.1898,0.0,0.0,0.0,0.0,0.0,0.0,0.0,0.0,0.0,0.0,0.0,0.0,0.0,0.0,0.0,0.0,0.0,0.0,0.0,0.0,0.0,0.0,0.0,0.0,0.0,0.0,0.0,0.0,0.0,0.0,0.0,0.0,0.0,0.0,0.0,0.0,0.0,0.0,0.0,0.0,0.0,0.0,0.0,0.0,0.0,0.0,0.0,0.0,0.0,0.0,0.0,0.0,0.0,0.0,0.0,0.0,0.0,0.0,0.0,0.0,3.2579,0.0,0.0,0.0,0.0,0.0,0.0,0.0,0.0,0.0,0.0,0.0,0.0,0.0,0.0,0.0,0.0,0.0,0.0,0.0,0.0,0.0,0.0,0.0,0.0,0.0,0.0,0.0,0.0,0.0,0.0,0.0,0.0,0.0,0.0,0.0,0.0,0.0,0.0,0.0,0.0,3.8073,4.044,4.2186,4.2575,4.3155,4.2651,4.059,3.8571,3.6417,3.4151,3.2407,0.0,0.0,0.0,0.0,0.0,0.0,0.0,0.0,0.0,0.0,0.0,0.0,0.0,0.0,0.0,0.0,0.0,0.0,0.0,0.0,0.0,0.0,0.0,0.0,0.0,0.0,0.0,0.0,0.0,0.0,0.0,0.0,0.0,0.0,0.0,0.0,0.0,0.0,0.0,0.0,0.0,0.0,0.0,0.0,0.0,0.0,0.0,0.0,0.0,0.0,0.0,0.0,0.0,4.0447,4.0965,4.1873,4.0522,3.9507,3.8635,3.6228,3.4357,3.308,0.0,0.0,0.0,0.0,0.0,0.0,0.0,0.0,0.0,0.0,0.0,0.0,0.0,0.0,0.0,0.0,0.0,0.0,0.0,0.0,0.0,0.0,0.0,0.0,0.0,3.5804,3.4711,0.0,0.0,0.0,0.0,0.0,0.0,0.0,0.0,0.0,0.0,0.0,0.0,3.7148,3.9108,4.0692,4.1238,4.1598,4.1391,4.0483,3.8772,3.6618,3.4023,3.2998,3.2004,0.0,0.0,0.0,0.0,0.0,0.0,0.0,0.0,0.0,0.0,0.0,0.0,0.0,0.0,0.0,0.0,0.0,0.0,0.0,0.0,0.0,0.0,0.0,0.0,0.0,0.0,0.0,0.0,0.0,0.0,0.0,0.0,3.3814,3.4981,0.0,0.0,0.0,0.0,0.0,0.0,0.0,0.0,0.0,0.0,0.0,0.0,0.0,4.1313,4.2471,4.318,4.3868,4.4526,4.4526,4.4317,4.3877,4.2538,4.1299,4.0157,3.8579,0.0,3.504,3.4053,0.0,0.0,0.0,0.0,0.0,0.0,0.0,0.0,0.0,0.0,0.0,0.0,0.0,0.0,0.0,0.0,0.0,0.0,0.0,0.0,0.0,0.0,3.6394,3.7099,3.7143,3.6976,0.0,3.5585,3.4306,3.3636,0.0,0.0,0.0,0.0,0.0,0.0,0.0,0.0,3.5401,3.8041,4.003,4.0113,4.1536,4.1906,4.0513,3.961,3.8015,3.5391,3.3507,3.2422,3.2243,3.1113,0.0,0.0,0.0,0.0,0.0,0.0,0.0,0.0,0.0,0.0,0.0,0.0,0.0,0.0,0.0,0.0,0.0,0.0,0.0,0.0,0.0,0.0,0.0,0.0,0.0,0.0,0.0,0.0,0.0,3.4891,3.5916,3.5048,3.6485,3.7174,0.0,0.0,0.0,0.0,0.0,0.0,0.0,0.0,0.0,4.322,4.4217,4.5195,4.6153,4.7119,4.7518,4.7345,4.7666,4.7247,4.6118,4.516,4.4096,4.2982,4.1966,4.047,3.8489,3.5908,3.4617,3.4215,0.0,0.0,0.0,0.0,0.0,3.3605,3.4149,3.3862,0.0,0.0,0.0,0.0,0.0,0.0,0.0,0.0,0.0,0.0,0.0,0.0,0.0,4.0516,4.0747,4.0707,4.0707,3.8918,3.6879,0.0,3.5263,3.538,3.562,0.0,0.0,0.0,0.0,3.573,3.5183,3.6989,3.8585,3.928,4.005,4.0373,3.9984,3.9272,3.8033,3.6186,3.454,3.3462,3.3095,3.2497,3.2018,0.0,0.0,0.0,0.0,0.0,0.0,0.0,0.0,0.0,0.0,0.0,0.0,0.0,0.0,0.0,0.0,0.0,0.0,0.0,0.0,0.0,0.0,0.0,0.0,0.0,0.0,0.0,0.0,3.642,3.7203,3.5465,3.7527,3.8465,0.0,0.0,0.0,0.0,0.0,0.0,4.3123,4.3594,4.4705,4.6692,4.7572,4.8413,4.9266,5.0201,5.053,5.0201,5.0497,5.0,4.8735,4.7907,4.6837,4.5588,4.4583,4.32,4.1408,3.8146,3.6172,3.5188,3.4965,3.4701,3.4469,3.4972,3.4608,3.406,3.5318,3.5021,3.4273,3.519,0.0,3.5184,3.543,0.0,0.0,0.0,0.0,3.7828,4.0219,4.0884,4.1301,4.2796,4.2991,4.2893,4.3069,4.1453,3.9467,0.0,3.682,3.6442,3.6364,0.0,0.0,0.0,0.0,3.5352,3.5457,3.643,3.7573,3.8757,3.8908,3.9082,3.9543,3.89,3.797,3.6798,3.5506,3.4458,3.3791,3.3582,3.3178,3.2512,0.0,0.0,0.0,0.0,0.0,0.0,0.0,0.0,0.0,0.0,0.0,0.0,0.0,0.0,0.0,0.0,0.0,0.0,0.0,0.0,0.0,0.0,0.0,0.0,0.0,0.0,0.0,0.0,0.0,3.7182,3.9441,0.0,0.0,0.0,0.0,4.2111,4.2451,4.3507,4.5428,4.5315,4.6054,4.7958,4.9269,5.0599,5.1893,5.1976,5.2581,5.3721,5.3199,5.2593,5.1914,5.0619,4.9033,4.7257,4.5371,4.3949,4.2715,4.0248,3.882,3.8074,3.692,3.6842,3.7209,3.5817,3.5567,3.5902,3.5472,3.4826,3.4559,3.6805,3.7974,3.8437,3.8255,3.7935,0.0,0.0,3.6661,3.7043,3.8412,3.9182,4.0096,4.2085,4.2069,4.177,4.2413,4.1929,4.0968,0.0,3.6388,3.4388,3.5712,0.0,3.3366,3.3999,3.4788,3.5467,3.5907,3.6685,3.7637,3.8781,3.8902,3.9098,3.9559,3.9052,3.8315,3.7396,3.6178,3.516,3.4466,3.3829,3.3178,3.2512,3.2452,0.0,0.0,0.0,0.0,0.0,0.0,0.0,0.0,0.0,0.0,0.0,0.0,0.0,0.0,0.0,0.0,0.0,0.0,0.0,0.0,0.0,0.0,0.0,0.0,0.0,0.0,0.0,0.0,4.0301,4.2791,0.0,4.2979,4.2773,4.3562,4.565,4.5681,4.6657,4.9037,4.9488,5.0566,5.2473,5.301,5.3672,5.4601,5.4601,5.4306,5.3746,5.3532,5.2573,5.1027,5.0549,4.9596,4.8299,4.7601,4.6677,4.5542,4.4342,4.2227,3.966,3.8912,3.8755,3.8886,3.8344,3.825,3.8403,3.8199,3.7476,3.6713,3.7128,3.7587,3.7985,3.7899,3.7768,3.7762,3.8269,3.8458,3.8906,4.0672,4.1256,4.1714,4.2865,4.2959,4.2849,4.3082,4.2309,4.1516,4.1405,3.9273,3.7376,3.7103,3.5944,3.4877,3.442,3.5306,3.608,3.625,3.71,3.8011,3.882,3.8898,3.8664,3.8038,3.7436,3.6883,3.6469,3.4876,3.4301,3.5114,3.4091,3.3582,3.3791,3.2519,3.1944,0.0,0.0,0.0,0.0,0.0,0.0,0.0,0.0,0.0,0.0,0.0,0.0,0.0,0.0,0.0,0.0,0.0,0.0,0.0,0.0,0.0,0.0,0.0,0.0,0.0,0.0,4.2385,4.3043,4.5533,4.6877,4.6078,4.5808,4.6545,4.8692,4.8723,4.9617,5.1784,5.2021,5.2782,5.4239,5.4479,5.4682,5.4933,5.512,5.4599,5.336,5.336,5.2527,5.0954,5.0954,5.0494,4.9631,4.943,4.8912,4.8153,4.7456,4.5623,4.3162,4.1856,4.1128,4.0865,4.1229,4.1128,4.079,4.0614,3.9936,3.907,3.8865,3.8838,3.8961,3.9371,3.908,3.8825,3.9851,3.9872,3.9914,4.1443,4.1826,4.1945,4.2381,4.2352,4.223,4.223,4.1541,4.1077,4.1479,4.0316,3.9032,3.8254,3.7196,3.6291,3.5757,3.6257,3.6859,3.7436,3.7977,3.8454,3.8843,3.8725,3.8184,3.719,3.7112,3.6744,3.594,3.527,3.5066,3.5487,3.4651,3.4278,3.4496,3.2512,3.2056,3.3155,0.0,0.0,0.0,0.0,0.0,0.0,0.0,0.0,0.0,0.0,0.0,0.0,0.0,0.0,0.0,0.0,0.0,0.0,0.0,0.0,0.0,0.0,0.0,3.9452,4.1974,4.4124,4.5292,4.7561,4.8349,4.6651,4.8762,5.0492,5.1205,5.1565,5.2282,5.3472,5.2662,5.2385,5.2937,5.3439,5.3439,5.2962,5.3414,5.3414,5.292,5.2895,5.2636,5.2126,5.2126,5.185,5.1314,5.0728,5.0477,5.0377,4.933,4.8868,4.8567,4.5784,4.4066,4.3277,4.4303,4.3991,4.2989,4.245,4.187,4.1478,4.2112,4.1893,4.1644,4.2792,4.1967,4.0724,4.1249,4.0618,3.9873,4.0387,4.0524,4.0524,4.0524,4.0136,3.9747,3.9747,3.9747,3.9747,3.9722,3.9308,3.8941,3.8902,3.8015,3.7449,3.7939,3.76,0.0,3.9484,3.9245,3.8919,3.8919,3.8404,3.7772,3.7146,3.8141,3.7947,3.5972,3.7343,3.7409,3.5571,3.5451,3.513,3.4496,3.2602,3.1929,3.2512,0.0,0.0,0.0,0.0,0.0,0.0,0.0,0.0,0.0,0.0,0.0,0.0,0.0,0.0,0.0,0.0,0.0,0.0,0.0,0.0,0.0,0.0,4.1532,4.1844,4.4337,4.6713,4.8242,5.0416,5.2072,5.2722,5.2721,5.3275,5.4616,5.3764,5.3487,5.4258,5.3624,5.3532,5.4127,5.3858,5.3833,5.4127,5.3439,5.3239,5.3482,5.3088,5.2837,5.2686,5.2686,5.2611,5.246,5.2268,5.1983,5.1624,5.1322,5.0485,4.9229,4.7631,4.6828,4.6552,4.6461,4.5733,4.4683,4.3704,4.3237,4.3003,4.2417,4.2106,4.1956,4.1864,4.1489,4.1138,4.129,4.1091,4.0901,4.1038,4.1088,4.1088,4.1088,4.0976,4.0851,4.0851,4.0851,4.075,4.0362,4.0161,3.9813,3.9029,3.8956,3.8768,3.8103,3.8567,0.0,3.912,3.9333,3.9484,3.9484,3.8982,3.8087,3.6715,3.6406,3.5844,3.4798,3.4627,3.4852,3.5457,3.4562,3.3963,3.3769,3.4195,3.4015,0.0,0.0,0.0,0.0,0.0,0.0,0.0,0.0,0.0,0.0,0.0,0.0,0.0,0.0,0.0,0.0,0.0,0.0,0.0,0.0,0.0,0.0,4.3016,4.5705,4.6879,4.7875,4.9197,5.1096,5.2678,5.4141,5.5538,5.4916,5.4892,5.6035,5.5076,5.4579,5.4906,5.4378,5.4228,5.4597,5.4479,5.4479,5.4597,5.3934,5.3632,5.3683,5.3163,5.2895,5.2895,5.2895,5.2895,0.0,5.2895,5.2737,5.241,5.2184,5.1523,0.0,0.0,0.0,0.0,0.0,4.7205,4.6692,4.5321,4.4844,4.4669,4.3553,4.3201,4.3151,4.2783,4.2356,4.2019,4.2019,4.1843,4.1681,4.1681,4.1681,4.1681,4.1681,4.1478,4.1289,4.1289,4.1289,4.1227,4.0901,0.0,0.0,3.9735,3.9647,3.9546,3.9107,3.9421,3.9685,3.9584,3.966,3.9697,3.9697,3.9007,3.8039,3.6845,3.6362,0.0,0.0,0.0,3.4908,3.5479,3.4741,0.0,0.0,0.0,3.4689,3.3919,0.0,0.0,0.0,3.3024,3.3173,0.0,0.0,0.0,0.0,0.0,0.0,0.0,0.0,0.0,0.0,0.0,0.0,0.0,0.0,0.0,0.0,4.7307,5.0184,5.2812,5.2009,5.1858,5.3858,5.4604,5.5358,5.6376,5.6043,5.5968,5.647,5.5917,5.5591,5.5684,0.0,0.0,0.0,0.0,5.5358,5.4873,5.4748,5.4378,5.3783,5.3239,5.2945,5.2895,5.2895,5.2895,5.2895,5.2895,5.2895,5.2845,5.2385,5.2134,5.2,5.0904,4.9549,4.8168,4.8109,4.84,4.8592,4.7029,0.0,0.0,4.5156,4.4754,4.4704,4.4629,4.394,4.3176,4.3115,4.2788,4.245,4.2324,4.235,4.2375,4.2299,4.1882,4.1503,4.1503,4.1503,4.1478,4.1414,4.1403,4.1227,4.0675,4.0149,3.9923,4.0337,3.9998,3.9873,4.0337,3.9998,3.9697,3.9697,0.0,0.0,3.7248,3.741,3.6877,3.5311,3.6193,3.6383,3.5538,3.5511,3.5451,3.54,3.4877,3.4615,3.4615,3.4009,3.3732,3.3747,3.4186,3.4104,0.0,0.0,0.0,0.0,0.0,0.0,0.0,0.0,0.0,0.0,0.0,0.0,0.0,0.0,0.0,4.6873,4.9954,5.2762,5.4662,5.5372,5.5881,5.6308,5.6878,5.7499,5.8158,5.8108,5.8108,5.8208,5.728,5.6903,5.7399,5.6872,5.6753,5.7248,5.6878,5.6652,5.6552,5.5666,5.4956,5.4421,0.0,0.0,5.2895,5.2895,5.2895,5.2895,5.2895,5.2895,5.2895,5.2787,5.2485,5.2051,5.1373,5.0619,4.985,4.9439,4.9079,4.8677,4.7883,4.7315,4.6823,4.6185,4.5673,4.5246,4.4754,4.4453,0.0,4.3765,4.389,4.394,4.3076,4.3176,4.3377,4.2964,4.2749,4.2674,4.2674,4.2674,4.2548,4.211,4.2034,4.1845,4.1252,4.07,4.0236,3.9898,3.9785,3.9747,3.9848,3.9747,3.9697,3.9697,3.9496,3.8781,3.7324,3.8356,3.8165,3.6051,3.633,3.6225,3.5533,3.5511,3.5258,3.4697,3.5108,3.531,3.531,3.519,3.5092,3.51,3.4148,3.39,0.0,0.0,0.0,0.0,0.0,0.0,0.0,0.0,0.0,0.0,0.0,4.1438,4.2919,0.0,4.8903,5.0944,5.3582,5.5993,5.7625,5.8083,5.8158,5.7863,5.8108,5.8755,5.9834,5.9664,5.9614,5.9935,5.8905,5.8485,5.9062,5.8033,5.7706,5.8284,5.7732,5.7305,5.6985,5.62,5.5516,5.4981,5.4429,5.4027,5.3733,5.3457,5.3289,5.3289,5.3013,5.2895,5.2895,5.2895,5.2737,5.246,5.2226,5.1599,5.077,5.0218,4.9841,4.9464,4.8652,4.7983,4.74,4.6873,4.6336,4.5849,4.5533,4.5257,4.4995,4.4719,4.4644,4.4478,4.394,4.4016,4.4127,4.3865,4.379,4.379,4.379,4.379,4.3639,4.3101,4.3014,4.2724,4.1882,4.1544,4.1167,4.0588,4.0261,4.0099,4.0099,3.9873,3.9697,3.9697,3.9459,3.8969,3.8115,3.8173,3.752,3.5802,3.6268,3.6201,3.533,3.6046,3.5807,3.4436,3.5744,3.6204,3.5699,3.6212,3.6439,3.6439,3.575,3.5468,0.0,0.0,0.0,0.0,0.0,0.0,0.0,4.1341,4.1547,4.3742,4.423,4.5081,4.7729,5.0431,5.2947,5.5049,5.7066,5.883,6.0116,6.0035,5.9709,5.9388,5.9338,5.9885,6.1215,6.0914,6.0839,6.1336,6.0286,5.991,6.0462,5.9112,5.856,5.8987,5.8585,5.8033,5.7336,5.6903,5.6319,5.5541,5.5107,5.4798,5.4572,5.4102,5.3808,5.3683,5.3138,5.2895,5.2895,5.2895,5.2895,5.2895,5.2895,5.236,5.1523,5.0954,5.0578,5.0277,4.9405,4.8652,4.8008,4.7566,4.6988,4.6461,4.6461,4.6075,4.5623,4.5537,4.5221,4.488,4.4665,4.4704,4.4754,4.4629,4.4589,4.4589,4.4589,4.4589,4.4478,4.4027,4.3966,4.3639,4.2688,4.2526,4.221,4.1277,4.0775,4.0462,4.0362,3.9973,3.9697,3.9697,3.9308,3.9095,3.9234,3.7985,3.6893,3.6193,3.6522,3.6361,3.5499,3.6533,3.6266,3.4505,3.6106,3.6487,3.559,3.662,3.718,3.729,3.7281,3.7118,3.9051,3.9707,4.0434,4.0945,4.0597,4.1312,0.0,4.5293,4.4912,4.8397,4.9343,5.0255,5.2522,5.4431,5.6219,5.7945,5.9232,6.0091,6.0267,6.0713,6.114,6.1592,6.1642,6.1718,6.1893,6.1843,6.1843,6.1918,6.0844,6.0487,6.1085,6.0437,6.0066,6.0116,6.0066,5.9539,5.8535,5.8459,5.7631,5.61,5.6068,5.5516,5.4597,5.4522,5.4202,5.3683,5.3138,5.2895,5.2895,5.2895,5.2895,5.2895,5.2895,5.2837,5.2661,5.2109,5.1256,5.0377,5.0252,4.954,4.8677,4.8626,4.7883,4.7023,4.7023,4.6637,4.6125,4.5623,4.5799,4.5884,4.4865,4.4995,4.5271,4.4729,4.4589,4.4589,4.4589,4.4589,4.4564,4.4529,4.4514,4.4328,4.3714,4.3614,4.2936,4.0889,4.0538,4.0337,3.9848,3.9747,3.9697,3.9697,3.966,3.9829,4.036,3.8865,3.8268,3.9142,3.7758,3.6836,3.6715,3.6298,3.5739,3.5031,3.5235,3.5082,3.4472,3.5563,3.6348,3.6877,3.6814,3.7277,4.1388,4.1858,4.238,4.4034,4.4666,4.5578,4.8312,4.8683,4.9169,5.1758,5.283,5.3884,5.5792,5.7499,5.8911,5.9979,6.0788,6.1396,6.1723,6.112,6.0763,6.097,6.0738,6.1065,6.2325,6.2476,6.2476,6.2476,6.1723,6.1542,6.2099,6.1291,6.0964,6.1291,6.0643,5.994,5.9182,5.8861,5.8183,5.7198,5.6828,5.6426,5.5993,5.5358,5.4579,5.3683,5.3138,5.2895,5.2895,5.2895,5.2895,5.2895,5.2895,5.2895,5.2837,5.2285,5.1599,5.087,5.0528,4.969,4.8793,4.8793,4.8234,4.7566,4.7566,4.7415,4.7164,4.6954,4.6838,4.6662,4.617,4.601,4.5899,4.5658,4.5583,4.5583,4.5583,4.5583,4.5508,4.5181,4.5121,4.4844,4.394,4.379,4.3263,4.1719,4.1493,4.1406,4.118,4.0852,4.0512,4.0199,3.9898,3.9689,3.9621,3.8942,3.8584,3.8706,3.8266,3.7739,3.7104,3.7365,3.683,3.5366,3.6263,3.6307,3.5478,3.6533,3.7207,3.7441,3.742,3.8024,4.2517,4.3435,4.4561,4.6525,4.7998,4.9309,5.085,5.1946,5.3134,5.4928,5.5944,5.6965,5.8303,5.9659,6.0738,6.1336,6.1868,6.23,6.2551,6.1271,6.0242,6.0091,5.9483,5.952,6.0704,6.1746,6.2156,6.1643,6.1256,6.1256,6.18,6.0959,6.092,6.1974,6.1065,6.0362,5.996,5.9282,5.873,5.8328,5.7606,5.7161,5.696,5.5892,5.4881,5.3926,5.3364,5.3038,5.2895,5.2895,5.2895,5.2895,5.2895,5.2895,5.2845,5.246,5.1975,5.144,5.0845,5.0017,4.9229,4.9079,4.8626,4.8159,4.8159,4.8033,4.7908,4.7908,4.75,4.7124,4.7274,4.6938,4.6562,4.6728,4.6737,4.6687,4.6562,4.6537,4.6361,4.5824,4.5723,4.5397,4.4443,4.4267,4.3955,4.3014,4.2738,4.2462,4.2009,4.1441,4.0926,4.0538,4.0023,3.9534,3.9132,3.8994,3.8718,3.8266,3.8453,3.8241,3.7461,3.8126,3.7704,3.6006,3.6973,3.7017,3.6085,3.7155,3.7782,3.7966,3.8086,3.8711,4.1479,4.388,4.6808,4.7644,4.9169,5.1131,5.3847,5.5279,5.6532,5.8215,5.9,5.9558,6.0116,6.0738,6.1361,6.1893,6.2425,6.2601,6.2094,6.102,6.0091,5.9583,5.8579,5.7387,0.0,5.9108,6.0529,5.875,5.8629,5.8843,5.9367,5.8891,5.9646,6.1913,6.1441,6.116,6.116,6.0055,5.9458,5.9433,5.8378,5.7556,5.696,5.5892,5.5107,5.4547,5.3951,5.3364,5.2895,5.2895,5.2895,5.2895,5.2895,5.2895,5.2895,5.287,5.2536,5.2,5.1465,5.087,5.0252,4.9741,4.9204,4.8768,4.8768,4.836,4.7908,4.7908,4.75,4.7224,4.7741,4.749,4.7199,4.7716,4.7857,4.7716,4.7199,4.7074,4.6923,4.6386,4.6261,4.61,4.5522,4.5462,4.5236,4.4629,4.4077,4.3148,4.1553,4.0851,4.0512,4.0512,4.0023,3.9697,3.9685,3.9195,3.8894,3.8869,3.8328,3.8014,3.799,3.8001,3.7762,3.7148,3.668,3.614,3.5541,3.6615,3.7471,3.8089,3.8566,3.9149,4.3946,4.6663,4.9743,5.1936,5.3402,5.4821,5.6863,5.8133,5.8886,5.8736,5.856,5.8378,5.8158,5.8284,5.8836,6.0136,6.114,6.1285,5.9999,5.9102,5.7373,5.4096,5.3327,0.0,0.0,0.0,0.0,5.8348,5.9825,6.1072,6.1594,6.1446,6.1721,6.2505,6.2019,6.1718,6.1718,6.0613,6.0035,5.9991,5.8579,5.7581,5.6935,5.5516,5.4773,5.4547,5.3582,5.3063,5.2895,5.2895,5.2895,5.2895,5.2895,5.2895,5.2895,5.2895,5.2787,5.2561,5.2026,5.1197,5.0427,5.0645,5.0318,4.9866,4.9866,4.9715,4.9473,4.9138,4.8636,4.8275,4.8451,4.8058,4.7666,4.7857,4.7908,4.7857,4.7666,4.7641,4.7566,4.7405,4.7089,4.6662,4.611,4.5738,4.5171,4.4217,4.3915,4.3463,4.2534,4.197,4.1632,4.1632,4.1103,4.0625,4.0261,4.0074,3.9798,3.9459,3.9258,3.912,3.912,3.8781,3.8504,3.8341,3.7764,3.735,3.7174,3.7534,3.7814,3.8041,3.8209,3.8591,4.6772,4.9633,5.2686,5.5495,5.6798,5.7826,5.9489,6.0091,5.994,5.866,5.7675,5.6696,5.5705,5.5221,5.5623,5.77,5.7876,5.7761,5.7748,5.6175,5.402,5.1288,5.0425,4.9485,0.0,0.0,0.0,5.5128,5.8585,6.0617,6.0296,6.1097,6.1932,6.2761,6.2275,6.2074,6.2275,6.097,6.0116,5.9714,5.8504,5.7581,5.696,5.5717,5.4956,5.4572,5.3826,5.3264,5.2895,5.2895,5.2491,5.1869,5.1869,5.1425,5.0787,5.0787,5.125,5.1882,5.2038,5.1607,5.103,5.1239,5.1038,5.072,5.072,5.0553,5.0327,4.9992,4.9355,4.8827,4.9028,4.8652,4.8259,4.846,4.851,4.846,4.8259,4.8209,4.8159,4.7942,4.7465,4.6998,4.6662,4.615,4.5472,4.4543,4.4407,4.408,4.3126,4.2526,4.2199,4.2199,4.1656,4.1163,4.0826,4.0775,4.0638,4.0287,4.0099,3.9998,3.9998,3.9459,3.9195,3.9195,3.863,3.8316,3.8316,3.8316,3.8316,3.8329,3.8517,3.8831,4.9744,5.2654,5.54,5.8007,5.8956,5.9678,6.1271,6.0801,5.9559,5.7876,5.6239,5.4587,5.2887,5.1825,5.2084,5.4695,5.3254,5.2716,5.5404,5.2618,5.0493,5.1001,4.9772,4.8285,0.0,0.0,0.0,4.9702,0.0,5.7766,5.6246,5.8266,6.0487,6.272,6.23,6.2275,6.2802,6.117,5.9815,5.8786,5.8227,5.7631,5.7035,5.6426,5.5591,5.4597,5.4547,5.3884,5.2895,5.2784,5.1677,4.9979,4.989,4.8686,4.6992,4.6992,4.8217,5.0055,5.1388,5.1956,5.2026,5.1515,5.1314,5.1289,5.1289,5.0896,5.0427,5.0402,4.9665,4.8978,4.948,4.9229,4.8969,4.948,4.959,4.9464,4.8953,4.8843,4.8677,4.8109,4.7566,4.7174,4.7149,4.6712,4.6175,4.5638,4.5512,4.4909,4.3277,4.2637,4.2299,4.2274,4.1781,4.1414,4.1339,4.1339,4.1314,4.1289,4.0826,4.0538,4.0512,4.0023,3.9722,3.9697,3.9183,3.8944,3.8944,3.8944,3.8944,3.8994,3.9509,3.9747,5.2856,5.4572,5.6057,5.7566,5.7034,5.6202,5.6434,5.6489,5.5737,5.3019,5.1711,5.0444,4.8385,4.9113,5.0364,5.1375,5.308,5.3932,5.2947,5.2239,5.0777,4.7915,4.7473,4.6915,4.5568,4.8108,0.0,0.0,5.4734,5.855,6.0899,6.1577,6.2178,6.2781,6.2676,6.2676,6.2802,6.1592,6.0613,5.989,5.8936,5.8227,5.7606,5.6244,5.5232,5.4547,5.3708,5.3163,5.2792,5.1338,5.0446,4.9855,4.8361,4.7449,4.6992,4.6992,4.7321,4.7831,4.8187,4.9955,5.2076,5.195,5.1641,5.1289,5.1289,5.1188,5.0971,5.0528,5.0201,4.9941,4.9665,4.9506,4.943,4.9565,4.959,4.9565,4.943,4.9405,4.9355,4.9188,4.8711,4.8209,4.7767,4.7249,4.6697,4.6175,4.5748,4.5171,4.4303,4.4077,4.384,4.3427,4.3263,4.2836,4.2021,4.1984,4.1781,4.1314,4.1163,4.0926,4.0512,4.0362,4.0124,3.971,3.9559,3.9509,3.9509,3.9509,3.9697,4.0099,4.0236,4.0287,5.4873,5.5736,5.6036,5.6739,5.5991,5.4734,5.3453,5.2661,5.1372,4.837,4.6541,4.501,4.3507,4.4226,4.5623,4.7248,4.8939,5.0283,5.1047,5.0162,4.888,4.7304,4.6989,4.6618,4.5916,4.8333,5.0655,0.0,5.5779,5.8783,6.1127,6.2244,6.2802,6.2802,6.2802,6.2701,6.245,6.1366,6.0638,6.0292,5.8961,5.8033,5.7455,5.6043,5.4956,5.4177,0.0,5.2638,5.153,5.0446,4.8974,4.7303,4.6164,4.5201,4.4454,4.4454,4.4977,4.5741,4.5741,4.7522,5.0014,5.0899,5.098,5.0889,5.1721,5.1825,5.1574,5.1247,5.0996,5.067,5.0092,4.9967,4.9891,4.9665,4.959,4.9665,4.9916,4.9967,4.9891,4.964,4.9179,4.8601,4.8008,4.7641,4.7365,4.7039,4.6552,4.6085,4.5744,4.5066,4.4464,4.4177,4.4152,4.3815,4.2975,4.2914,4.2649,4.2069,4.1831,4.1555,4.1267,4.0777,4.0462,4.0412,4.0161,4.0174,4.0412,4.0412,4.0563,4.0851,4.0851,4.0851,5.59,5.6068,5.5356,5.5421,5.4759,5.3412,5.0794,4.8742,4.6506,4.3505,4.1098,3.9311,3.8701,3.8967,4.0282,4.3335,4.3836,4.5336,4.9691,4.788,4.6682,4.8203,4.7712,4.7282,4.7321,4.9458,5.2109,5.5143,5.7473,5.9052,5.9727,6.168,6.2777,6.2701,6.2701,6.2425,6.1893,6.0819,6.0154,5.9829,5.8328,5.7231,5.6526,5.526,5.4162,5.3298,0.0,0.0,4.9587,4.9314,4.7193,4.4077,4.3813,4.2694,4.1191,4.1191,4.2273,4.3739,4.3739,4.4809,4.6588,4.8796,4.9671,5.0184,5.1874,5.2273,5.2101,5.2101,5.1749,5.1264,5.0653,5.0503,5.0402,4.9941,4.9816,4.9941,5.0402,5.0503,5.0377,4.9916,4.9455,4.8928,4.8335,4.8184,4.8093,4.8033,4.7566,4.7199,4.7199,4.5819,4.4805,4.4729,4.4729,4.4503,4.3966,4.384,4.3639,4.3226,4.2637,4.2299,4.2299,4.1292,4.0914,4.1289,4.0851,4.0876,4.1428,4.1339,4.1364,4.1528,4.1453,4.1428,5.5481,5.4719,5.3391,5.3077,5.0645,4.767,4.5105,4.3144,4.0861,3.7313,3.6227,3.5704,3.5038,3.726,3.9936,4.208,4.4512,4.6845,4.8898,4.8712,4.8578,4.9195,4.9137,4.9195,4.959,5.1788,0.0,0.0,0.0,6.058,6.2101,6.2597,6.2601,6.2149,6.2144,6.1893,6.1361,6.0663,5.9375,5.7562,5.6511,5.5395,5.4205,5.1962,5.1063,5.122,4.9488,0.0,4.7394,4.5775,4.4715,4.3945,4.233,4.1502,4.1191,4.1191,4.1405,4.1715,4.1715,4.1927,4.271,4.583,4.7948,4.9313,4.9669,5.0864,5.2101,5.2101,5.2026,5.1825,5.1289,5.1122,5.1113,5.1038,5.1013,5.1038,5.1113,5.1122,5.1113,5.1013,5.0937,5.067,5.0076,4.9615,4.9138,4.8702,4.8134,4.7767,4.7767,4.6737,4.5849,4.5397,4.5347,4.5095,4.4503,4.4052,4.3966,4.4303,4.3402,4.2864,4.2864,4.2249,4.1719,4.1314,4.1214,4.1441,4.2034,4.1542,4.1779,4.2699,4.2261,4.2034,5.4076,5.2966,5.14,5.0758,4.8213,4.4998,4.1543,3.8905,3.6294,3.3197,3.2167,3.1816,3.1772,3.4168,3.6711,3.8358,4.0585,4.3398,4.703,4.6975,4.7386,4.9609,5.0976,5.1316,5.0298,5.441,5.6953,5.653,0.0,6.1935,6.2766,6.2802,6.2551,6.2019,6.1718,6.1441,6.121,6.0311,5.8901,5.6993,5.5724,5.3951,5.1724,5.0217,4.9273,4.8784,4.8031,0.0,4.5425,4.4471,4.3511,4.2502,4.156,4.1191,4.1191,4.1191,4.1191,4.1191,4.1191,4.1191,4.1443,4.3076,4.4912,4.6888,4.8938,5.0237,5.1215,5.2212,5.2511,5.2385,5.185,5.1716,5.1666,5.1364,5.1515,5.1716,5.1716,5.1716,5.1716,5.1716,5.149,5.1214,5.0921,5.0393,4.9941,4.9665,4.8928,4.8375,4.8375,4.7657,4.7014,4.6778,4.6753,4.6401,4.5558,4.5257,4.4955,4.4629,4.4127,4.384,4.384,4.3327,4.3037,4.3034,4.2733,4.2872,4.3452,4.3173,4.3299,4.384,4.3578,4.3452,5.2256,5.1319,4.9984,4.9128,4.6741,4.3495,3.9394,3.5896,3.2782,3.0143,2.8999,2.8654,2.9181,3.1154,3.3265,3.4961,3.674,3.9766,4.5137,4.5351,4.625,4.9789,5.1865,5.2305,5.0507,5.5928,0.0,5.6662,0.0,0.0,6.2761,6.2202,6.1858,6.1823,6.0846,6.0233,6.0134,5.8684,5.7059,5.5256,5.3882,5.1823,4.9263,4.8269,4.7346,4.6507,4.6455,0.0,0.0,4.3473,4.2579,4.1191,4.1191,4.1191,4.1191,4.1191,4.1191,4.1191,4.1191,4.1191,4.1191,4.1191,4.2522,4.4752,4.8307,4.9373,4.9766,5.1729,5.198,5.1544,5.1127,5.1004,5.1009,5.1016,5.1663,5.2277,5.2277,5.2277,5.2277,5.2277,5.1925,5.1615,5.149,5.1071,5.0728,5.0603,4.9766,4.9129,4.9129,4.8611,4.8243,4.8243,4.8058,4.7516,4.6562,4.6361,4.5909,4.5016,4.4754,4.4715,4.4941,4.4443,4.4367,4.478,4.4392,4.4367,4.478,4.4665,4.4679,4.478,4.4665,4.4589,5.0334,5.0326,4.9984,4.9128,4.6057,4.2344,3.8789,3.473,3.0908,2.7931,2.7245,2.7324,2.7793,2.9321,3.1435,3.4297,3.6526,3.9454,4.3945,4.5779,4.7536,4.9926,5.0412,5.0597,5.0727,5.4883,5.7266,5.653,0.0,0.0,6.27,6.0319,5.9644,6.1226,5.8757,5.7156,5.6662,5.4202,5.1884,4.9719,4.878,4.7874,4.6947,4.4684,4.4096,4.482,4.309,0.0,0.0,4.1463,4.1346,4.1191,4.1191,4.1191,4.1191,4.1191,4.1191,4.1191,4.1191,4.1191,4.1191,4.1191,4.2522,4.449,4.6625,4.7266,4.7686,4.9694,4.8938,4.7522,4.7477,4.7454,4.7926,4.97,5.1502,5.2837,5.2837,5.2837,5.2837,5.2837,5.2787,5.2611,5.2126,5.1975,5.1774,5.1289,5.067,5.0252,5.0252,4.9791,4.9439,4.9439,4.8535,4.7666,4.7074,4.6587,4.6261,4.6135,4.5181,4.5066,4.611,4.5623,4.5386,4.5437,4.5386,4.5386,4.5437,4.488,4.488,4.5412,4.4855,4.4589,4.9394,4.998,4.9984,4.9128,4.5568,4.1465,3.8281,3.3988,3.0005,2.7506,2.6999,2.7057,2.7246,2.8444,3.0069,3.209,3.2691,3.4508,3.912,4.0547,4.2597,4.6601,4.9306,5.075,0.0,0.0,5.6729,0.0,0.0,0.0,5.8545,5.7268,5.6695,5.7084,5.5762,5.4758,5.4235,5.296,5.1183,4.9007,4.8102,4.6698,4.4863,4.3905,4.3296,4.2915,4.2388,0.0,0.0,4.1191,4.1191,4.1191,4.1191,4.1191,4.1191,4.1191,4.1191,4.1191,4.1191,4.1191,4.1191,4.1191,4.1714,4.2943,4.6075,4.6182,4.5905,4.9099,4.856,4.6992,4.6992,4.7908,4.9009,4.9801,5.1478,5.2895,5.2895,5.2895,5.2895,5.2895,5.2895,5.282,5.2611,5.231,5.2026,5.18,5.1297,5.0946,5.0946,5.0761,5.0611,5.0611,4.959,4.8711,4.8159,4.7923,4.7647,4.7305,4.6838,4.6788,4.7239,4.7054,4.6954,4.6954,4.6954,4.6954,4.6928,4.6687,4.6537,4.6461,4.6537,4.6411,4.8005,4.9082,4.9418,4.8519,4.4824,4.0605,3.7461,3.3242,2.9414,2.7266,2.6921,2.6999,2.6999,2.7936,2.9121,3.0327,3.0307,3.1734,3.6247,3.7459,3.9551,4.4081,4.7152,4.8917,4.9032,5.2925,5.5556,0.0,0.0,0.0,5.4785,5.3735,5.3516,5.438,5.3254,5.2432,5.1949,5.0757,4.9359,4.7813,4.6928,4.5513,4.3691,4.3574,4.3027,4.2187,0.0,0.0,0.0,4.1387,4.1308,4.1191,4.1191,4.1191,4.1191,4.1191,4.1191,4.1191,4.1191,4.1191,4.1191,4.1191,4.1191,4.1811,4.5145,4.4771,4.4058,4.7994,4.7248,4.5276,4.5276,4.6754,4.8416,4.8974,5.0604,5.2206,5.2792,5.2895,5.2895,5.2895,5.2895,5.2895,5.2895,5.2586,5.2335,5.2335,5.1875,5.154,5.154,5.1389,5.1289,5.1289,5.0586,4.9882,4.933,4.928,4.8953,4.8209,4.8159,4.8159,4.8159,4.8159,4.8159,4.8159,4.8159,4.8083,4.7908,4.7908,4.7716,4.735,4.7716,4.7691,4.5859,4.7266,4.8027,4.7146,4.369,3.961,3.6191,3.2398,2.8992,2.6849,2.6719,2.6999,2.6999,2.7715,2.8588,2.9461,3.0664,3.2836,3.6738,3.8379,4.0312,4.3359,4.34,4.4006,4.6133,5.0054,5.3393,0.0,0.0,0.0,5.2454,4.9789,5.0153,5.4274,5.1702,5.0035,4.9637,4.6586,4.5062,4.5019,4.4142,4.3731,4.3691,4.3302,4.3106,0.0,0.0,0.0,0.0,4.1797,4.1562,4.1191,4.1191,4.1191,4.1191,4.1191,4.1191,4.1191,4.1191,4.1191,4.1191,4.1191,4.1191,4.1579,4.353,4.2771,4.2042,4.5945,4.4249,4.1269,4.1269,4.2713,4.464,4.657,4.8578,5.0551,5.2491,5.2895,5.2895,5.2895,5.2895,5.2895,5.2895,5.2912,5.2895,5.2895,5.2435,5.2101,5.2101,5.1641,5.1289,5.1289,5.1289,5.1038,5.0427,5.0377,4.9941,4.8868,4.8793,4.8793,4.8793,4.8793,4.8793,4.8793,4.8793,4.8501,4.7908,4.7908,4.7908,4.7892,4.7908,4.7908,4.0898,4.2187,4.2656,4.1504,3.9101,3.6551,3.4835,3.2353,3.011,2.9077,2.8959,2.9176,2.9593,2.9371,2.9804,3.1923,3.1828,3.2348,3.4762,3.7461,3.9883,4.1777,4.4982,4.7349,0.0,0.0,0.0,0.0,0.0,0.0,4.963,4.8671,4.8689,4.9704,4.8572,4.7616,4.694,4.5656,4.4862,4.4569,4.3984,4.3555,4.3281,4.3437,0.0,0.0,0.0,0.0,0.0,4.1484,4.1308,4.1191,4.1191,4.1191,4.1191,4.1191,4.1191,4.1191,4.1191,4.1191,4.1191,4.1191,4.1191,4.156,4.3511,4.2751,4.1443,4.2675,4.2158,4.1191,4.1191,4.3625,4.6238,4.6845,4.9552,5.2154,5.2774,5.2895,5.2895,5.2895,5.2895,5.2895,5.2895,5.2895,5.2895,5.2895,5.2762,5.2661,5.2661,5.2511,5.2385,5.2385,5.2385,5.2026,5.1096,5.1013,5.0862,5.0535,5.051,5.051,5.051,5.051,5.0309,4.9916,4.9891,4.9615,4.9063,4.9063,4.9063,4.9063,4.9063,4.9063,3.6621,3.8379,3.9191,3.8748,3.6995,3.5171,3.4421,3.2417,3.0422,2.9507,2.9156,2.9255,3.004,2.9433,2.9685,3.2357,3.1667,3.1601,3.4,3.6599,3.9101,4.1367,4.5217,0.0,0.0,0.0,0.0,0.0,0.0,0.0,4.8291,4.8066,4.7695,4.7132,4.6836,4.6367,4.5705,4.5078,4.457,4.4141,4.3691,4.3341,4.3106,4.3359,0.0,0.0,0.0,0.0,0.0,4.1582,4.1328,4.1191,4.1191,4.1191,4.1191,4.1191,4.1191,4.1191,4.1191,4.1191,4.1191,4.1191,4.1191,4.1444,4.2637,4.2675,4.2138,4.1405,4.1191,4.1386,4.21,4.4077,4.6275,4.7777,5.002,5.2015,5.2732,5.2895,5.2895,5.2895,5.2895,5.2895,5.2895,5.2895,5.2895,5.2895,5.2895,5.2895,5.2895,5.2895,5.2895,5.2895,5.2895,5.2636,5.1975,5.19,5.1825,5.1599,5.1599,5.1515,5.1314,5.1289,5.1113,5.0745,5.0503,5.0243,4.9916,4.9916,5.0017,5.0234,5.0234,5.0117,0.0,3.5407,3.6966,3.7863,3.6491,3.4882,3.4515,3.2415,0.0,2.878,2.8083,2.8116,2.9305,2.863,2.8845,3.1685,3.0815,3.0976,3.4423,3.6179,3.8514,4.2265,4.4609,0.0,4.5803,0.0,0.0,0.0,0.0,0.0,4.8125,4.7737,4.7109,4.6289,4.6172,4.5937,4.5568,4.4746,4.4101,4.3613,4.3243,4.3028,4.3008,4.3048,0.0,0.0,0.0,0.0,0.0,4.1933,4.1543,4.1191,4.1191,4.1191,4.1191,4.1191,4.1191,4.1191,4.1191,4.1191,4.1191,4.1191,4.1191,4.1191,4.1191,4.2445,4.353,4.1695,4.1308,4.1811,4.3644,4.4301,4.5441,4.9117,5.0109,5.0717,5.2508,5.2895,5.2895,5.2895,5.2895,5.2895,5.2895,5.2895,5.2895,5.2895,5.2895,5.2895,5.2895,5.2895,5.2895,5.2895,5.2895,5.2895,5.2895,5.2895,5.2686,5.2201,5.2176,5.1925,5.144,5.1414,5.1389,5.1364,5.077,5.0452,5.0452,5.0503,5.0795,5.1289,5.1339,5.1038,2.8254,0.0,3.1443,3.1861,3.1784,3.167,0.0,3.131,3.0887,3.1198,3.1169,3.1805,3.4218,3.2091,3.1658,3.6731,3.4203,3.2845,3.6419,3.9299,4.2246,4.5467,4.721,4.7737,4.6716,0.0,0.0,0.0,0.0,4.7907,4.7243,4.6836,4.6367,4.5861,4.4844,4.4258,4.416,4.3965,4.3456,4.2695,4.2597,4.2402,4.2109,4.2402,0.0,0.0,0.0,0.0,4.1914,4.1504,4.1289,4.1191,4.1191,4.1191,4.1191,4.1191,4.1191,4.1191,4.1191,4.1191,4.1191,4.1191,4.1191,4.1191,4.1191,4.1521,4.1772,4.1327,4.2273,4.353,4.3983,4.6349,4.8848,4.9783,5.1145,5.2327,5.2809,5.2895,5.2895,5.2895,5.2895,5.2895,5.2895,5.2895,5.2895,5.2895,5.2895,5.2895,5.2895,5.2895,5.2895,5.2895,5.2895,5.2895,5.2895,5.2895,5.2862,5.2711,5.2711,5.2661,5.2536,5.2511,5.2335,5.1925,5.1373,5.1088,5.1071,5.1498,5.1574,5.1314,5.1724,5.1624,2.7129,2.8845,3.0603,3.1362,3.1522,3.1714,3.2522,3.1693,3.0819,3.0978,3.1006,3.1776,3.4332,3.2803,3.2539,3.6727,3.4876,3.4164,3.7836,4.0528,4.33,4.6521,4.7539,4.793,0.0,0.0,0.0,0.0,0.0,4.7539,4.6658,4.625,4.5625,4.4805,4.4082,4.3711,4.3711,4.33,4.2773,4.2128,4.2128,4.2011,4.1816,4.2031,4.2109,0.0,0.0,0.0,4.1758,4.1367,4.1191,4.1191,4.1191,4.1191,4.1191,4.1191,4.1191,4.1191,4.1191,4.1191,4.1191,4.1191,4.1191,4.1191,4.1191,4.1191,4.1191,4.1191,4.2598,4.4323,4.5201,4.7686,5.0233,5.1128,5.2137,5.2895,5.2895,5.2895,5.2895,5.2895,5.2895,5.2895,5.2895,5.2895,5.2895,5.2895,5.2895,5.2895,5.2895,5.2895,5.2895,5.2895,5.2895,5.2895,5.2895,5.2895,5.2895,5.2895,5.2895,5.2895,5.2895,5.2895,5.2661,5.2126,5.18,5.1666,5.1666,5.195,5.2076,5.2051,5.2335,5.2176,2.7938,3.0262,3.2293,3.3007,3.2966,3.3038,3.408,3.2445,3.0577,3.0111,3.0055,3.0841,3.3128,3.2733,3.3009,3.5854,3.5626,3.6331,3.9835,4.1464,4.356,4.7026,4.729,0.0,0.0,0.0,0.0,0.0,0.0,4.7012,4.6152,4.5644,4.4845,4.3652,4.3476,4.3418,4.3418,4.2675,4.2109,4.1699,4.1699,4.1699,4.1699,4.1699,4.1894,0.0,0.0,0.0,4.168,4.1348,4.1191,4.1191,4.1191,4.1191,4.1191,4.1191,4.1191,4.1191,4.1191,4.1191,4.1191,4.1191,4.1191,4.1191,4.1191,4.1191,4.1191,4.1191,4.2598,4.4546,4.6496,4.8488,5.0481,5.2456,5.2895,5.2826,5.2525,5.268,5.2826,5.2508,5.2698,5.2895,5.2895,5.2895,5.2895,5.2895,5.2895,5.2895,5.2895,5.2629,5.2456,5.2456,5.2171,5.2015,5.2015,5.2015,5.2137,5.2456,5.2732,5.2895,5.2895,5.2895,5.2686,5.2226,5.2226,5.2226,5.2226,5.2226,5.246,5.2895,5.2895,5.2661,2.9505,3.2491,3.4392,3.2251,3.239,3.2967,3.2639,3.1913,3.1395,3.1734,3.2212,3.338,3.6059,3.4994,3.5494,4.0912,4.1638,4.2427,0.0,0.0,4.5841,4.9431,0.0,0.0,0.0,0.0,0.0,0.0,0.0,0.0,4.5252,4.4453,4.375,4.3204,4.248,4.209,4.209,4.1953,4.168,4.1289,4.1289,4.1289,4.1289,4.1289,4.1328,0.0,0.0,4.1289,4.1289,4.123,4.1191,4.1191,4.1191,4.1191,4.1191,4.1191,4.1191,4.1191,4.1191,4.1191,4.1191,4.1191,4.1191,4.1191,4.1191,4.1191,4.1191,4.1191,4.2598,4.4546,4.6496,4.8488,5.0481,5.2456,5.2895,5.2456,5.0805,5.1747,5.2421,5.0769,5.1764,5.2895,5.2895,5.2895,5.2895,5.2895,5.2895,5.2895,5.2895,5.146,5.0446,5.0446,4.892,4.7927,4.7927,4.7927,4.8632,5.0339,5.1998,5.2895,5.2895,5.2895,5.2845,5.2787,5.2787,5.2787,5.2787,5.2787,5.2837,5.2895,5.2895,5.2862,2.9507,3.1886,3.3549,3.2918,3.4034,3.5088,3.4201,3.3119,3.2476,3.3018,3.2928,3.3523,3.5903,3.6596,3.8728,4.4673,4.3764,4.3383,4.6491,4.5614,4.564,0.0,0.0,0.0,0.0,0.0,0.0,0.0,0.0,0.0,4.4725,4.4062,4.3301,4.2442,4.2012,4.1699,4.1484,4.1484,4.1387,4.1191,4.1191,4.1191,4.1191,4.1191,4.1191,4.1191,0.0,4.1191,4.1191,4.1191,4.1191,4.1191,4.1191,4.1191,4.1191,4.1191,4.1191,4.1191,4.1191,4.1191,4.1191,4.1191,4.1191,4.1191,4.1191,4.1191,4.1191,4.1191,4.3361,4.5868,4.6754,4.9284,5.1513,5.1373,5.1338,5.0787,4.8812,4.9063,4.9766,4.9943,5.0734,5.1677,5.2715,5.2895,5.2895,5.2895,5.2895,5.2525,5.146,5.0534,4.9587,4.8506,4.754,4.6992,4.6992,4.6992,4.7872,4.9872,5.1816,5.2895,5.2895,5.2895,5.2421,5.1356,5.2345,5.2362,5.1338,5.2379,5.2895,5.2895,5.2895,5.2895,2.9762,3.1461,3.2817,3.3671,3.5177,3.6445,3.6485,3.4881,3.3704,3.4777,3.4426,3.4297,3.5506,3.842,4.2185,4.6951,4.608,4.5734,4.8384,4.7236,4.6643,0.0,0.0,0.0,0.0,0.0,0.0,0.0,0.0,0.0,4.416,4.3555,4.2754,4.168,4.166,4.1523,4.1191,4.1191,4.1191,4.1191,4.1191,4.1191,4.1191,4.1191,4.1191,4.1191,4.1191,4.1191,4.1191,4.1191,4.1191,4.1191,4.1191,4.1191,4.1191,4.1191,4.1191,4.1191,4.1191,4.1191,4.1191,4.1191,4.1191,4.1191,4.1191,4.1191,4.1191,4.1191,4.3663,4.6312,4.6312,4.856,5.0593,4.9552,4.932,4.8758,4.6754,4.668,4.7449,4.8992,4.9677,5.0604,5.256,5.2895,5.2895,5.2895,5.2508,5.1694,5.0198,4.9189,4.8013,4.6478,4.5927,4.5648,4.5648,4.6481,4.7649,4.9189,5.1548,5.2895,5.2895,5.2473,5.1513,5.0014,5.0998,5.0787,4.932,5.1268,5.2223,5.2223,5.268,5.2895,3.1427,3.2882,3.3796,3.3872,3.4022,3.5052,3.8592,3.6753,3.5069,3.7726,3.8213,3.7748,3.6407,4.1066,4.5608,4.7022,5.0876,5.3607,5.3457,0.0,0.0,0.0,0.0,0.0,0.0,0.0,0.0,0.0,0.0,0.0,4.3243,4.2383,4.1719,4.125,4.123,4.123,4.1191,4.1191,4.1191,4.1191,4.1191,4.1191,4.1191,4.1191,4.1191,4.1191,4.1191,4.1191,4.1191,4.1191,4.1191,4.1191,4.1191,4.1191,4.1191,4.1191,4.1191,4.1191,4.1191,4.1191,4.1191,4.1191,4.1191,4.1191,4.1191,4.1191,4.1191,4.1191,4.2694,4.4323,4.4323,4.4508,4.5164,4.6809,4.7212,4.668,4.4734,4.5741,4.7029,4.7175,4.8722,5.0604,5.256,5.2895,5.2895,5.2895,5.1356,5.0162,5.0014,4.679,4.4471,4.4301,4.2694,4.1618,4.1618,4.4942,4.7047,4.7193,5.0787,5.2895,5.2895,5.1156,5.0145,4.9997,4.8307,4.7358,4.7212,4.9224,5.0216,5.0251,5.2067,5.2895,3.0303,3.2024,3.3556,3.4237,3.4926,3.6105,3.8642,3.8185,3.8321,4.2115,4.1406,4.051,4.1862,4.3695,4.6616,5.1507,5.1692,5.2007,5.427,0.0,0.0,0.0,0.0,0.0,0.0,0.0,0.0,0.0,0.0,0.0,0.0,4.3437,4.287,4.125,4.2388,4.2406,4.1211,4.1191,4.1054,4.0781,4.1054,4.1191,4.1191,4.1191,4.1191,4.1172,4.0879,4.0918,4.1172,4.0879,4.0937,4.1191,4.1191,4.1191,4.1191,4.1191,4.1191,4.1191,4.1191,4.1191,4.1191,4.1191,4.1191,4.1191,4.1191,4.1191,4.1191,4.1191,4.1734,4.2579,4.3775,4.4996,4.5775,4.5313,4.5201,4.4659,4.2713,4.2866,4.4117,4.6514,4.6643,4.7722,5.2137,5.1886,5.1086,5.1086,5.0463,4.9099,4.6643,4.5033,4.3644,4.2426,4.1637,4.1191,4.1191,4.4774,4.6992,4.6992,5.0717,5.2895,5.2895,5.2189,5.0664,4.8199,4.8614,4.7649,4.5201,4.7175,4.8144,4.8162,4.8884,4.923,2.962,3.1145,3.2671,3.311,3.4684,3.6752,3.9197,3.9333,4.028,4.506,4.3793,4.2867,4.6311,4.5625,4.6684,0.0,5.205,5.1272,5.3625,0.0,0.0,0.0,0.0,0.0,0.0,0.0,0.0,0.0,0.0,0.0,0.0,4.3857,4.3764,4.2177,4.3253,4.331,4.2119,4.1226,4.0781,4.0723,4.0898,4.0996,4.0976,4.1133,4.1191,4.1172,4.0859,4.0898,4.1172,4.0859,4.0898,4.1191,4.1191,4.1191,4.1191,4.1191,4.1191,4.1191,4.1191,4.1191,4.1191,4.1191,4.1191,4.1191,4.1191,4.1191,4.1191,4.1191,4.1191,4.1502,4.2827,4.4172,4.483,4.3492,4.3169,4.2828,4.1482,4.1191,4.2157,4.5462,4.5014,4.5775,5.1068,5.0357,4.926,4.989,4.8938,4.7157,4.4452,4.3568,4.2675,4.1347,4.1191,4.1443,4.2061,4.5108,4.7266,4.7927,5.1051,5.2895,5.2895,5.1712,4.9748,4.7047,4.7161,4.589,4.3189,4.5145,4.6072,4.609,4.6698,4.6992,2.9965,3.0592,3.1183,3.0233,3.2817,3.6606,4.0678,4.0159,4.0438,4.6092,4.536,4.4913,4.8883,4.6729,0.0,5.0529,5.2293,5.2724,0.0,0.0,0.0,0.0,0.0,0.0,0.0,0.0,0.0,0.0,0.0,0.0,0.0,4.3302,4.4134,4.4113,4.3691,4.367,4.4113,4.1314,4.035,4.1211,4.0723,4.0508,4.0528,4.0996,4.1191,4.1191,4.1191,4.1191,4.1191,4.1211,4.1211,4.1191,4.1211,4.1211,4.1191,4.1191,4.1191,4.1191,4.1191,4.1191,4.1191,4.1191,4.1191,4.1191,4.1191,4.1191,4.1191,4.1191,4.1191,4.1191,4.1191,4.1191,4.1191,4.1191,4.1191,4.1191,4.1191,4.1191,4.1792,4.3739,4.4115,4.5369,4.932,4.8343,4.7708,4.9677,4.6643,4.4115,4.4077,4.2407,4.1191,4.1191,4.1211,4.2023,4.3945,4.5886,4.7867,4.9872,5.1816,5.2895,5.2895,4.9123,4.701,4.6992,4.3189,4.1211,4.1191,4.3132,4.4077,4.4134,4.6035,4.6937,2.9965,3.0859,3.1907,3.1692,3.5354,3.9415,4.0846,4.1524,4.341,4.8985,5.0149,5.04,5.1214,4.9334,0.0,5.0458,0.0,0.0,0.0,0.0,0.0,0.0,0.0,0.0,0.0,0.0,0.0,0.0,0.0,0.0,0.0,4.5309,4.5955,4.5589,4.6771,4.6626,4.5026,4.2876,4.1795,4.1754,4.062,4.0391,4.0996,4.1133,4.1191,4.1172,4.0546,4.0644,4.1172,4.084,4.0898,4.1172,4.084,4.0898,4.1191,4.1191,4.1191,4.1191,4.1191,4.1191,4.1191,4.1191,4.1191,4.1191,4.1191,4.1191,4.1191,4.1191,4.1191,4.1191,4.1191,4.1191,4.1191,4.1191,4.1191,4.1191,4.1191,4.1191,4.1871,4.4096,4.4287,4.5437,4.9675,5.0022,4.9365,4.8507,4.7708,4.6065,4.2891,4.1994,4.1504,4.123,4.2669,4.3766,4.4079,4.7175,4.935,4.9943,5.1816,5.2895,5.2895,5.0446,4.8452,4.7029,4.453,4.256,4.1191,4.1772,4.2062,4.2061,4.2637,4.2924,3.0331,3.1461,3.2787,3.3756,3.7256,4.1086,4.3518,4.5496,4.7825,5.1332,5.253,5.2638,5.1738,4.9234,0.0,4.8329,0.0,0.0,0.0,0.0,0.0,0.0,0.0,0.0,0.0,0.0,0.0,0.0,0.0,0.0,0.0,4.6621,4.7686,4.737,4.8122,4.7899,4.6578,4.3572,4.2135,4.2219,4.0461,3.998,4.0683,4.0683,4.0683,4.0664,4.0117,4.0214,4.0664,4.0391,4.043,4.0664,4.0371,4.0527,4.0918,4.0918,4.1054,4.1191,4.1191,4.1191,4.1191,4.1191,4.1191,4.1191,4.1191,4.1191,4.1191,4.1191,4.1191,4.1191,4.1191,4.1191,4.1191,4.1191,4.1191,4.1191,4.1191,4.1191,4.1619,4.3039,4.3919,4.5511,4.8942,4.9778,4.9808,4.9328,4.8177,4.6361,4.3648,4.3314,4.3525,4.4129,4.5448,4.6496,4.7019,4.9271,5.098,5.1771,5.2921,5.3482,5.3239,5.0364,4.8253,4.701,4.4323,4.2388,4.1191,4.1191,4.1191,4.1191,4.1191,4.1191,3.0959,3.2261,3.3762,3.6138,3.8892,4.2386,4.7643,5.0658,5.2451,5.281,5.2694,5.2112,5.0783,4.7298,4.4746,0.0,0.0,0.0,0.0,0.0,0.0,0.0,0.0,0.0,0.0,0.0,0.0,0.0,0.0,0.0,0.0,4.7366,4.9123,4.9225,4.8379,4.8069,4.8349,4.3774,4.1875,0.0,4.0175,3.9277,3.9726,3.9844,3.9883,3.9824,3.9883,3.9883,3.9824,3.9824,3.9863,3.9883,3.9844,4.0098,4.045,4.0489,4.0781,4.1133,4.1191,4.1191,4.1191,4.1191,4.1191,4.1191,4.1191,4.1191,4.1191,4.1191,4.1191,4.1191,4.1191,4.1191,4.1191,4.1191,4.1191,4.1191,4.1191,4.1191,4.1211,4.125,4.3368,4.5781,4.7634,4.8711,4.9876,5.1555,4.8449,4.5953,4.6015,4.5953,4.6646,4.8485,4.8907,4.9736,5.1457,5.1768,5.2653,5.4491,5.4597,5.4353,5.3808,4.9486,4.7055,4.6992,4.317,4.1191,4.1191,4.1191,4.1191,4.1191,4.1191,4.1191,3.107,3.2552,3.4374,3.7105,4.1784,4.6441,4.9114,5.0461,5.1199,5.1276,5.0393,4.937,4.8674,4.6504,4.4819,0.0,0.0,0.0,0.0,0.0,0.0,0.0,0.0,0.0,0.0,0.0,0.0,0.0,0.0,0.0,4.5691,4.7879,4.9401,5.0099,4.9917,4.9462,4.8701,4.4928,4.2884,0.0,3.9266,3.793,3.8361,3.9414,3.9707,3.9375,3.9746,3.9687,3.9355,3.9355,3.957,3.9863,3.9492,3.9629,4.0078,4.0391,4.0567,4.0684,4.1074,4.1191,4.1191,4.1191,4.1191,4.1191,4.1191,4.1191,4.1191,4.1191,4.1191,4.1191,4.1191,4.1191,4.1191,4.1191,4.1191,4.1191,4.1191,4.1191,4.1289,4.1601,4.4688,4.7472,4.8227,5.1479,5.3833,5.3451,5.0601,4.8667,4.9141,4.8816,4.8551,4.8681,5.0395,5.1551,5.1591,5.3057,5.4145,5.4561,5.4597,5.4547,5.4403,5.0079,4.7491,4.7014,4.317,4.1191,4.1191,4.1191,4.1191,4.1191,4.1191,4.1191,3.126,3.3183,3.5857,4.0785,4.5205,4.8828,5.0602,4.9611,4.8377,4.8627,4.8488,4.7932,4.6692,4.5418,4.4251,0.0,0.0,0.0,0.0,0.0,0.0,0.0,0.0,0.0,0.0,0.0,0.0,0.0,0.0,4.6812,4.7548,4.8943,4.9429,4.8788,4.8518,4.7597,4.5924,4.3219,4.1712,4.1366,3.861,3.7502,3.7931,3.8848,3.9139,3.8944,3.9179,3.9139,3.8925,3.8925,3.9061,3.9257,3.9022,3.918,3.959,3.9786,4.002,4.0293,4.0723,4.0859,4.0898,4.1133,4.1191,4.1191,4.1191,4.1191,4.1191,4.1191,4.1191,4.1191,4.1191,4.1191,4.1191,4.1191,4.1191,4.1191,4.1191,4.1191,4.1328,4.1719,4.4516,4.6942,4.7322,5.0414,5.2731,5.2473,5.1038,5.0131,5.0456,5.1317,5.1616,5.0872,5.3043,5.4346,5.3845,5.4755,5.5383,5.5383,5.4422,5.3772,5.3502,4.9184,4.6984,4.741,4.3332,4.1191,4.1191,4.1191,4.1191,4.1191,4.1191,4.1191,3.12,3.4101,3.7928,4.4403,4.7499,4.928,5.0417,4.7801,4.5153,4.5262,4.5933,4.5996,4.4337,4.3684,0.0,0.0,0.0,0.0,0.0,0.0,0.0,0.0,0.0,0.0,0.0,0.0,0.0,0.0,0.0,4.9029,4.8822,4.9447,4.8895,4.6902,4.6049,4.4624,4.256,4.0844,3.9871,3.9584,3.7894,3.7287,3.7716,3.8182,3.8456,3.8592,3.8592,3.8592,3.8592,3.8592,3.8592,3.8592,3.8592,3.8807,3.9101,3.918,3.9453,3.9844,4.0254,4.045,4.0567,4.0937,4.1133,4.1191,4.1191,4.1191,4.1191,4.1191,4.1191,4.1191,4.1191,4.1191,4.1191,4.1191,4.1191,4.1191,4.1191,4.1191,4.1289,4.1621,4.3804,4.5884,4.6726,4.8608,5.0207,5.081,5.081,5.0787,5.0897,5.3026,5.4146,5.3195,5.536,5.6677,5.6226,5.62,5.6047,5.5674,5.4044,5.274,5.1934,4.7847,4.62,4.7476,4.3343,4.1191,4.1191,4.1191,4.1191,4.1191,4.1191,4.1191,3.0196,3.5241,4.0638,4.3987,4.5652,4.6231,4.521,4.4061,4.2716,4.1084,4.0868,4.0891,4.0609,4.0513,0.0,0.0,0.0,0.0,0.0,0.0,0.0,0.0,0.0,0.0,0.0,0.0,0.0,0.0,4.6941,4.8685,4.7756,4.7542,4.7101,4.6344,4.4318,4.2683,4.1492,4.016,3.8881,3.7649,3.664,3.6426,3.6873,3.7303,3.7889,3.8592,3.8592,3.8592,3.8592,3.8592,3.8592,3.8592,3.8592,3.8631,3.871,3.9062,3.9238,3.9355,3.9824,4.0196,4.0508,4.0567,4.0859,4.1191,4.1191,4.1191,4.1191,4.1191,4.1191,4.1191,4.1191,4.1191,4.1191,4.1191,4.1191,4.1191,4.1191,4.1191,4.1211,4.1269,4.362,4.6416,4.904,4.9766,5.03,5.1199,5.0935,5.0781,5.1246,5.2793,5.3647,5.3152,5.5016,5.6276,5.62,5.62,5.5435,5.3632,5.3251,5.2257,5.0381,4.729,4.5692,4.59,4.2811,4.1191,4.1191,4.1191,4.1191,4.1191,4.1191,4.1191,3.1512,3.5479,3.9471,4.2861,4.3764,4.3986,4.4598,4.2936,4.1121,4.0556,3.9373,3.873,3.9726,3.9511,0.0,0.0,0.0,0.0,0.0,0.0,0.0,0.0,0.0,0.0,0.0,0.0,0.0,0.0,4.7834,4.9191,4.7688,4.6946,4.5391,4.2873,4.1549,3.9972,3.8007,3.7441,3.6721,3.5836,3.5458,3.5644,3.6309,3.6504,3.7051,3.7869,3.7869,3.7869,3.7889,3.8105,3.8203,3.8203,3.8203,3.8203,3.8223,3.84,3.8478,3.8575,3.9277,3.9629,3.9844,4.0332,4.0625,4.0859,4.1113,4.1191,4.1191,4.1191,4.1191,4.1191,4.1191,4.1191,4.1191,4.1191,4.1367,4.1543,4.1543,4.1543,4.168,4.2168,4.3499,4.4946,4.6262,4.6465,4.7117,4.9026,4.9143,4.9058,4.9314,5.1201,5.1761,4.978,5.1728,5.3048,5.2764,5.2741,5.2338,5.142,5.0258,4.9227,4.8302,4.5642,4.4078,4.3796,4.2092,4.1191,4.1191,4.1191,4.1191,4.1191,4.1191,4.1191,3.1913,3.4575,3.7198,4.0664,4.11,4.118,4.3232,4.1281,3.9213,3.9737,3.8394,3.7578,3.8984,3.871,0.0,0.0,0.0,0.0,0.0,0.0,0.0,0.0,0.0,0.0,0.0,0.0,0.0,0.0,4.7289,4.8219,4.717,4.5424,4.3134,4.0188,3.9082,3.7513,3.5407,3.4961,3.4726,3.4707,3.4473,3.4844,3.5667,3.5667,3.6077,3.6836,3.7168,3.7305,3.7324,3.7619,3.7756,3.7756,3.7756,3.7814,3.7912,3.7912,3.797,3.8165,3.8828,3.9101,3.9336,4.0098,4.041,4.0586,4.1054,4.1191,4.1191,4.1191,4.1191,4.1191,4.1191,4.1191,4.123,4.1328,4.1562,4.1836,4.1933,4.1953,4.2187,4.295,4.3341,4.3574,4.3691,4.3711,4.4427,4.6537,4.6845,4.6845,4.6845,4.9012,4.959,4.7071,4.908,5.0429,5.0031,4.9986,4.9752,4.9204,4.7746,4.6647,4.6123,4.4178,4.295,4.2577,4.1758,4.1308,4.1191,4.1191,4.1191,4.1191,4.1191,4.1191,2.9804,3.1989,3.4625,3.6922,3.7111,3.7108,3.87,3.757,3.6365,3.6813,3.6823,3.6873,3.7344,3.7402,0.0,0.0,0.0,0.0,0.0,0.0,0.0,0.0,0.0,0.0,0.0,0.0,0.0,0.0,4.3748,4.4407,4.5468,4.186,3.9846,4.0102,3.7541,3.5924,3.5427,3.375,3.3535,3.4687,3.3851,3.3929,3.4766,3.4766,3.5039,3.5566,3.6777,3.7305,3.7305,3.7324,3.7324,3.7324,3.7324,3.756,3.7912,3.7912,3.8184,3.8573,3.8612,3.8885,3.9277,3.9766,4.0195,4.0586,4.1054,4.1191,4.1191,4.1191,4.1191,4.1191,4.1191,4.1191,4.1289,4.168,4.1777,4.1914,4.2285,4.2382,4.2499,4.3008,4.3126,4.3263,4.3633,4.3711,4.3909,4.4484,4.4583,4.4583,4.4583,4.6413,4.7494,4.6869,4.8735,5.0031,4.9986,4.9986,4.9126,4.7086,4.6867,4.592,4.3939,4.3382,4.3087,4.3067,4.2207,4.1562,4.1191,4.1191,4.1191,4.1191,4.1191,4.1191,2.997,3.1286,3.2828,3.5052,3.4997,3.4662,3.5658,3.5073,3.4378,3.4551,3.4821,3.5153,3.5547,3.5879,3.625,0.0,0.0,0.0,0.0,0.0,0.0,0.0,0.0,0.0,0.0,0.0,0.0,0.0,0.0,4.2513,4.2037,4.0346,3.8935,3.7947,3.6668,3.5667,3.4961,3.3516,3.3027,3.3476,3.3164,3.3304,3.3887,3.4196,3.4704,3.5427,3.5879,3.623,3.6504,3.6795,3.6912,3.6912,3.6912,3.701,3.7146,3.7146,3.74,3.7793,3.8066,3.8437,3.8944,3.9648,4.0,4.0254,4.0976,4.1191,4.1191,4.1191,4.1191,4.1191,4.1191,4.1191,4.1367,4.2031,4.2422,4.2734,4.3164,4.3222,4.328,4.3437,4.3476,4.3535,4.3672,4.3711,4.3769,4.3926,4.4199,4.4297,4.3984,4.4866,4.5323,4.4862,4.5495,4.5961,4.5961,4.5961,4.5637,4.4863,4.4802,4.4474,4.3731,4.3555,4.3359,4.3106,4.2794,4.2305,4.1562,4.1328,4.1191,4.1191,4.1191,4.1191,2.9785,3.0573,3.1612,3.3671,3.3327,3.2721,3.3642,3.3239,3.2667,3.2757,3.3359,3.3984,3.443,3.4629,3.5019,0.0,0.0,0.0,0.0,0.0,0.0,0.0,0.0,0.0,0.0,0.0,0.0,0.0,0.0,0.0,3.937,3.8532,3.7577,3.6497,3.6035,3.5432,3.4707,3.3437,3.2871,3.3008,3.2871,3.3086,3.3652,3.3961,3.4567,3.5391,3.5391,3.5625,3.6018,3.6328,3.6462,3.6462,3.6462,3.656,3.6714,3.6853,3.7166,3.7559,3.7988,3.834,3.871,3.9414,3.9766,4.0019,4.0742,4.1074,4.1191,4.1191,4.1191,4.1191,4.1191,4.1406,4.1738,4.2265,4.2871,4.3359,4.3633,4.3711,4.3711,4.3711,4.3711,4.3711,4.3711,4.3711,4.3711,4.3711,4.3965,4.4043,4.375,4.4101,4.4219,4.375,4.3848,4.3867,4.3711,4.3711,4.3711,4.3711,4.3711,4.3711,4.3711,4.3711,4.3574,4.3321,4.3165,4.2813,4.2226,4.168,4.1328,4.1191,4.1191,4.1191,0.0,0.0,0.0,3.2612,3.1939,3.1239,3.2587,3.1997,3.1187,3.1417,3.2422,3.3441,3.3922,3.3652,3.3636,3.4492,0.0,0.0,0.0,0.0,0.0,0.0,0.0,0.0,0.0,0.0,0.0,0.0,3.5377,3.5578,3.7684,3.6299,3.5586,3.5979,3.5586,3.5156,3.4687,3.3418,3.3008,3.3383,3.2988,3.3238,3.4059,3.4059,3.4547,3.5351,3.5371,3.5605,3.5979,3.5999,3.5999,3.5999,3.5999,3.6289,3.6753,3.7146,3.7541,3.797,3.8436,3.8573,3.8671,3.9062,3.9512,3.998,4.0371,4.084,4.1191,4.1191,4.1191,4.1191,4.1211,4.1816,4.2382,4.2421,4.3086,4.3711,4.3711,4.3711,4.3711,4.3711,4.3711,4.3711,4.373,4.3711,4.3711,4.373,4.373,4.373,4.373,4.4141,4.4238,4.3789,4.4141,4.4219,4.3769,4.3711,4.3711,4.3711,4.3711,4.3711,4.3711,4.3711,4.3711,4.3711,4.3321,4.3106,4.3106,4.2226,4.1621,4.125,4.125,4.125,2.9478,0.0,0.0,0.0,0.0,0.0,3.0369,2.9889,2.9562,3.02,3.0519,3.0972,3.2031,3.2383,3.2613,3.2847,0.0,0.0,0.0,0.0,0.0,0.0,0.0,0.0,0.0,0.0,0.0,0.0,3.38,3.4275,3.5509,3.5739,3.5762,3.5566,3.5137,3.4687,3.4274,3.3297,3.2851,3.2969,3.2851,3.2926,3.318,3.3457,3.3906,3.4469,3.4782,3.5156,3.5586,3.5881,3.5999,3.5999,3.5999,3.6289,3.6714,3.6814,3.7305,3.7931,3.8048,3.8319,3.8671,3.9062,3.9512,3.998,4.0371,4.084,4.1191,4.1191,4.1191,4.1269,4.1562,4.2031,4.248,4.2832,4.3301,4.3711,4.3711,4.3711,4.3711,4.3711,4.3711,4.3808,4.4141,4.3926,4.3828,4.416,4.4199,4.4199,4.4199,4.4569,4.4783,4.4647,4.4512,4.4355,4.4219,4.3906,4.3711,4.3711,4.3711,4.3711,4.3711,4.3711,4.3711,4.3711,4.3594,4.3399,4.3106,4.2519,4.2167,4.207,4.207,4.207,0.0,2.9814,2.9914,3.0366,0.0,0.0,2.9028,2.8444,2.8017,0.0,2.8085,2.8607,2.9707,3.041,3.0893,3.1084,3.126,0.0,0.0,0.0,0.0,0.0,0.0,0.0,0.0,3.2222,3.2218,3.2246,3.2797,3.3597,3.4648,3.5371,3.5644,3.5427,3.4941,3.4508,3.4098,3.3398,3.3144,3.3336,3.3144,3.334,3.3867,3.375,3.4039,3.4645,3.4668,3.4961,3.541,3.5664,3.5842,3.5999,3.5999,3.6289,3.6734,3.6892,3.7344,3.7931,3.8107,3.8359,3.8631,3.8885,3.9375,3.9941,4.0195,4.0684,4.1191,4.1191,4.1191,4.125,4.1504,4.1953,4.248,4.2754,4.3262,4.3711,4.3711,4.3711,4.3711,4.3711,4.3711,4.3789,4.4062,4.3887,4.3789,4.4062,4.4101,4.418,4.4375,4.4744,4.494,4.4764,4.4686,4.4512,4.4141,4.3867,4.3711,4.3711,4.3887,4.3906,4.3711,4.3887,4.3906,4.3711,4.3711,4.3574,4.336,4.291,4.2577,4.2402,4.2402,4.2402,0.0,0.0,0.0,0.0,0.0,0.0,2.8554,2.7717,2.6867,0.0,2.585,2.6516,2.7389,2.8216,2.8887,2.9252,2.9741,0.0,0.0,0.0,0.0,0.0,0.0,0.0,3.1469,3.1812,3.187,3.1469,3.2285,3.334,3.457,3.5059,3.5293,3.527,3.4844,3.445,3.402,3.3613,3.3613,3.402,3.3613,3.4027,3.5156,3.4372,3.445,3.5156,3.4785,3.4883,3.5312,3.5312,3.5586,3.5999,3.5999,3.6289,3.6753,3.7148,3.7541,3.797,3.8436,3.8592,3.8592,3.8592,3.9159,3.9824,3.9883,4.0468,4.1133,4.1191,4.1191,4.1211,4.125,4.1797,4.2343,4.2402,4.2987,4.3574,4.3633,4.3633,4.3652,4.3691,4.3711,4.373,4.3769,4.373,4.373,4.3769,4.3789,4.3926,4.4355,4.4744,4.4862,4.4512,4.4744,4.4627,4.3926,4.3808,4.3808,4.3848,4.4238,4.4277,4.3867,4.4199,4.4199,4.3789,4.373,4.373,4.3789,4.338,4.2949,4.2538,4.2538,4.2538,0.0,0.0,0.0,0.0,0.0,0.0,2.9816,2.8657,2.7774,0.0,2.6208,2.563,2.6497,2.737,2.7845,2.7559,2.8424,2.9615,0.0,0.0,0.0,0.0,0.0,0.0,3.1016,3.1108,3.1128,3.1016,3.2109,3.3203,3.4157,3.4609,3.4704,3.4352,3.4254,3.4,3.3539,3.3441,3.3441,3.3555,3.3441,3.3539,3.3773,3.3617,3.3636,3.3812,3.4082,3.445,3.4824,3.4824,3.5312,3.5999,3.5999,3.6289,3.6753,3.7148,3.7541,3.797,3.8436,3.8592,3.8592,3.8592,3.8926,3.9414,3.9785,4.0235,4.0723,4.1094,4.1191,4.1269,4.1602,4.1797,4.2012,4.2324,4.2538,4.2753,4.3145,4.3223,4.3321,4.3633,4.3711,4.3828,4.4199,4.3945,4.3828,4.4199,4.4258,4.4297,4.4394,4.4744,4.4979,4.4881,4.4647,4.459,4.4725,4.4453,4.4414,4.4725,4.4822,4.4842,4.4744,4.4531,4.4355,4.4258,4.3887,4.3887,4.4258,4.3808,4.3535,4.3457,4.3457,4.3457,0.0,0.0,0.0,3.0206,0.0,0.0,0.0,2.8392,2.7513,2.6474,2.5413,2.4735,2.5051,2.5618,2.6204,2.6641,2.7246,2.8184,2.9687,0.0,0.0,0.0,0.0,0.0,3.0249,3.043,3.0723,3.1172,3.1782,3.2617,3.3691,3.3945,3.4062,3.4114,3.4114,3.3867,3.3386,3.3402,3.3519,3.375,3.3519,3.3636,3.4027,3.3597,3.3519,3.375,3.375,3.4,3.4411,3.4411,3.4782,3.5374,3.5605,3.6113,3.6753,3.7148,3.7541,3.797,3.8436,3.8592,3.8592,3.8592,3.9042,3.959,3.9824,4.0332,4.0898,4.1133,4.1191,4.125,4.1445,4.1641,4.1855,4.205,4.2246,4.2519,4.3008,4.3106,4.3223,4.3633,4.3711,4.3769,4.4004,4.3867,4.3789,4.4023,4.4043,4.4141,4.4375,4.459,4.4686,4.4686,4.4686,4.4686,4.4686,4.4686,4.4686,4.4686,4.5117,4.5156,4.4726,4.4686,4.4491,4.4062,4.4043,4.4043,4.4043,4.3808,4.3711,4.3711,4.3711,4.3828,0.0,0.0,0.0,0.0,0.0,2.997,0.0,0.0,0.0,2.5732,2.4838,2.4241,2.4036,2.4151,2.4578,0.0,0.0,0.0,0.0,2.8574,0.0,0.0,0.0,0.0,0.0,2.9819,3.0351,3.1313,3.1294,3.1801,3.309,3.3246,3.3457,3.3824,3.3922,3.3769,3.3386,3.3402,3.3578,3.3961,3.3594,3.3773,3.4434,3.3714,3.3613,3.3942,3.3558,3.3672,3.4079,3.4,3.4254,3.4746,3.5215,3.5837,3.6521,3.7107,3.7519,3.7853,3.8416,3.8592,3.8592,3.8592,3.9198,3.9902,3.9902,4.0507,4.1191,4.1191,4.1191,4.1191,4.1191,4.1445,4.168,4.168,4.1933,4.2285,4.2754,4.2911,4.3106,4.3496,4.3652,4.3711,4.3711,4.3711,4.3711,4.3711,4.3789,4.3945,4.4238,4.4336,4.4355,4.4277,4.4648,4.4783,4.4551,4.4902,4.5018,4.4785,4.5432,4.5471,4.4668,4.4805,4.4549,4.3848,4.4121,4.416,4.3965,4.3867,4.3828,4.3828,4.375,4.4004,0.0,0.0,0.0,0.0,3.1631,0.0,0.0,0.0,2.798,2.7756,0.0,2.4724,2.469,0.0,0.0,0.0,0.0,0.0,2.4996,2.5977,2.7324,0.0,0.0,0.0,0.0,2.9272,2.9576,3.0859,3.0586,3.0932,3.2276,3.2656,3.2891,3.2965,3.3285,3.3461,3.3402,3.3402,3.3422,3.348,3.3422,3.3461,3.3539,3.3461,3.3441,3.348,3.3406,3.3672,3.4075,3.3652,3.3949,3.4746,3.5215,3.5449,3.5684,3.6875,3.7324,3.748,3.8319,3.8592,3.8592,3.8592,3.9198,3.9902,3.9902,4.0507,4.1191,4.1191,4.1191,4.1191,4.1191,4.123,4.1269,4.1269,4.1308,4.1445,4.1855,4.2246,4.2637,4.3087,4.3477,4.3711,4.3711,4.3711,4.3711,4.3711,4.4062,4.4199,4.3828,4.4141,4.4238,4.3828,4.4199,4.4588,4.4901,4.5351,4.5742,4.6074,4.6172,4.6016,4.5568,4.4844,4.4414,4.4316,4.3965,4.412,4.4862,4.4492,4.4316,4.4316,4.3887,4.4139,0.0,0.0,0.0,0.0,0.0,0.0,3.0343,0.0,2.7255,0.0,0.0,0.0,0.0,0.0,0.0,0.0,2.3728,0.0,0.0,0.0,2.4961,0.0,0.0,0.0,0.0,0.0,0.0,0.0,2.9127,2.9805,3.0654,3.1323,3.1929,3.2452,3.2613,3.2711,3.2711,3.293,3.3066,3.3051,3.3285,3.3402,3.3402,3.3402,3.3402,3.3402,3.3402,3.3519,3.3691,3.348,3.3617,3.3988,3.4453,3.4958,3.5488,3.6269,3.6719,3.7068,3.791,3.8203,3.8281,3.8769,3.9375,3.9941,4.0195,4.0684,4.1191,4.1191,4.1191,4.1191,4.1191,4.1191,4.1191,4.1191,4.1191,4.1308,4.1699,4.1933,4.2266,4.2969,4.3243,4.336,4.336,4.3555,4.3613,4.3399,4.3711,4.3848,4.3419,4.373,4.3926,4.373,4.4336,4.4803,4.4979,4.543,4.5764,4.594,4.5703,4.5488,4.5312,4.494,4.4648,4.4394,4.4453,4.4627,4.4998,4.4822,4.4744,4.4744,4.4549,4.4805,3.3531,0.0,0.0,0.0,0.0,0.0,0.0,0.0,0.0,0.0,0.0,0.0,0.0,0.0,2.3591,2.3981,0.0,2.3231,0.0,0.0,0.0,0.0,0.0,0.0,0.0,0.0,0.0,0.0,0.0,2.8424,2.9369,3.0131,3.0991,3.1968,3.214,3.2198,3.2198,3.2496,3.2691,3.2793,3.3105,3.3285,3.3402,3.3402,3.3402,3.3402,3.3402,3.3402,3.3402,3.3402,3.3402,3.3441,3.3785,3.445,3.5273,3.5803,3.6289,3.6795,3.7482,3.7814,3.8029,3.8789,3.9336,3.9785,4.0196,4.0644,4.1035,4.1152,4.1191,4.1191,4.1191,4.1191,4.1191,4.1191,4.1191,4.1269,4.1562,4.1719,4.1992,4.2618,4.2833,4.2891,4.2891,4.334,4.3555,4.3165,4.3437,4.3594,4.3302,4.3633,4.3887,4.3887,4.4687,4.5174,4.5174,4.5605,4.5822,4.5705,4.5273,4.4959,4.4842,4.4842,4.4686,4.4414,4.4805,4.5057,4.5174,4.5057,4.5115,4.535,4.4998,4.5156,0.0,0.0,0.0,3.3617,0.0,0.0,0.0,0.0,2.8419,0.0,0.0,0.0,0.0,2.5099,2.4098,2.3268,2.3825,0.0,0.0,0.0,0.0,0.0,0.0,0.0,0.0,0.0,0.0,0.0,0.0,0.0,2.8814,2.9389,3.0229,3.1489,3.1968,3.2198,3.2198,3.2218,3.2398,3.2793,3.2812,3.3027,3.3402,3.3402,3.3402,3.3402,3.3402,3.3402,3.3402,3.3402,3.3402,3.3402,3.3422,3.3949,3.4824,3.5686,3.6289,3.6773,3.7185,3.756,3.799,3.8475,3.8887,3.9316,3.9766,4.0215,4.0606,4.1074,4.1191,4.1191,4.1191,4.1191,4.1191,4.1191,4.1191,4.1191,4.1211,4.1543,4.1816,4.1836,4.2148,4.2421,4.2421,4.3124,4.3555,4.3165,4.3437,4.3691,4.3691,4.4082,4.4375,4.4375,4.5158,4.5666,4.5666,4.6035,4.6113,4.5725,4.5273,4.4822,4.4433,4.4414,4.4414,4.4394,4.4805,4.5213,4.5666,4.5213,4.5428,4.623,4.5,4.4863,0.0,0.0,3.647,3.4614,0.0,0.0,0.0,0.0,0.0,0.0,0.0,0.0,0.0,0.0,2.4227,2.3641,2.3585,2.3351,0.0,0.0,0.0,0.0,0.0,0.0,0.0,0.0,0.0,0.0,0.0,0.0,0.0,2.8287,2.9473,3.0229,3.0952,3.1343,3.1343,3.1601,3.1816,3.1938,3.2519,3.2871,3.3008,3.3285,3.3402,3.3402,3.3402,3.3402,3.3402,3.3402,3.3402,3.3402,3.3402,3.3769,3.4372,3.4941,3.5605,3.6348,3.7051,3.756,3.797,3.8456,3.8885,3.9297,3.9766,4.0176,4.0586,4.1074,4.1191,4.1191,4.1191,4.1191,4.1191,4.1191,4.1191,4.1191,4.1191,4.1308,4.1484,4.1758,4.1914,4.1992,4.1992,4.2734,4.3144,4.2715,4.3222,4.3594,4.3341,4.3672,4.3945,4.3945,4.4726,4.5254,4.5254,4.5898,4.5996,4.5293,4.5371,4.5254,4.4803,4.4803,4.4941,4.5256,4.5391,4.5664,4.6094,4.5937,4.5879,4.59,4.5471,4.5568,3.5168,3.6056,0.0,3.5305,3.4033,0.0,3.073,0.0,0.0,0.0,0.0,0.0,0.0,0.0,0.0,2.4617,2.3942,2.3205,0.0,2.2969,0.0,0.0,0.0,0.0,0.0,0.0,0.0,0.0,0.0,0.0,0.0,0.0,2.8418,2.933,3.021,3.0723,3.0913,3.1152,3.1352,3.1508,3.2226,3.2672,3.2812,3.3207,3.3402,3.3402,3.3402,3.3402,3.3402,3.3402,3.3402,3.3402,3.3402,3.3691,3.4153,3.4551,3.5351,3.6348,3.7051,3.756,3.797,3.8456,3.8885,3.9297,3.9766,4.0176,4.0625,4.123,4.1308,4.123,4.1367,4.1308,4.1191,4.1191,4.1191,4.1191,4.1191,4.1191,4.1269,4.1543,4.1602,4.1602,4.1602,4.2285,4.2754,4.2441,4.3144,4.3613,4.336,4.3691,4.3945,4.3945,4.4746,4.5312,4.5447,4.584,4.584,4.5293,4.5527,4.5488,4.5018,4.5154,4.5527,4.6113,4.5998,4.6172,4.6758,4.6308,4.6037,4.592,4.5764,4.592]},{"header":{"parameterUnit":"m.s-1","parameterCategory":1,"la1":30.6,"la2":29.2853,"lo1":-89.7004,"lo2":-87.6739,"dy":0.0162,"dx":0.0183,"nx":112,"ny":82,"refTime":"2023-05-24T00:00:00:Z","depth":0,"parameterNumber":3,"parameterNumberName":"V-component_of_WINDS"},"data":[0.0,0.0,0.0,0.0,0.0,0.0,0.0,0.0,0.0,0.0,0.0,0.0,0.0,0.0,0.0,0.0,0.0,0.0,0.0,0.0,0.0,0.0,0.0,0.0,0.0,0.0,0.0,0.0,0.0,0.0,0.0,0.0,0.0,0.0,0.0,0.0,0.0,0.0,0.0,0.0,0.0,0.0,0.0,0.0,0.0,0.0,0.0,0.0,0.0,0.0,0.0,0.0,0.0,0.0,0.0,0.0,0.0,0.0,0.0,0.0,0.0,0.0,0.0,0.0,0.0,0.0,0.0,0.0,0.0,0.0,0.0,0.0,0.0,0.0,0.0,0.0,0.0,0.0,0.0,0.0,0.0,0.0,0.0,0.0,0.0,0.0,0.0,0.0,0.0,0.0,2.987,3.2049,3.5805,3.7726,3.6745,3.5303,3.2896,2.9283,0.0,0.0,0.0,0.0,0.0,0.0,0.0,0.0,0.0,0.0,0.0,0.0,0.0,0.0,0.0,0.0,0.0,0.0,0.0,0.0,0.0,0.0,0.0,0.0,0.0,0.0,0.0,0.0,0.0,0.0,0.0,0.0,0.0,0.0,0.0,0.0,0.0,0.0,0.0,0.0,0.0,0.0,0.0,0.0,0.0,0.0,0.0,0.0,0.0,0.0,0.0,0.0,0.0,0.0,0.0,0.0,0.0,0.0,0.0,0.0,0.0,0.0,0.0,0.0,0.0,0.0,0.0,0.0,0.0,0.0,0.0,0.0,0.0,0.0,0.0,0.0,0.0,0.0,0.0,0.0,0.0,0.0,0.0,0.0,0.0,0.0,0.0,0.0,0.0,0.0,0.0,0.0,0.0,0.0,0.0,0.0,0.0,0.0,0.0,0.0,0.0,0.0,0.0,0.0,3.1361,3.5842,3.7788,3.8479,3.7814,3.5038,3.23,2.9804,0.0,0.0,0.0,0.0,0.0,0.0,0.0,0.0,0.0,0.0,0.0,0.0,0.0,0.0,0.0,0.0,0.0,0.0,0.0,0.0,0.0,0.0,0.0,0.0,0.0,0.0,0.0,0.0,0.0,0.0,0.0,0.0,0.0,0.0,0.0,0.0,0.0,0.0,0.0,0.0,0.0,0.0,0.0,0.0,0.0,0.0,0.0,0.0,0.0,0.0,0.0,0.0,0.0,0.0,0.0,0.0,0.0,0.0,0.0,0.0,0.0,0.0,0.0,0.0,0.0,0.0,0.0,0.0,0.0,0.0,0.0,0.0,0.0,0.0,0.0,0.0,0.0,0.0,0.0,0.0,0.0,0.0,0.0,0.0,0.0,0.0,0.0,0.0,0.0,0.0,0.0,0.0,0.0,0.0,0.0,0.0,0.0,0.0,0.0,0.0,0.0,0.0,0.0,3.0671,3.3581,3.7675,3.8592,3.8542,3.7638,3.4812,3.2275,3.0357,2.7587,0.0,0.0,0.0,0.0,0.0,0.0,0.0,0.0,0.0,0.0,0.0,0.0,0.0,0.0,0.0,0.0,0.0,0.0,0.0,0.0,0.0,0.0,0.0,0.0,0.0,0.0,0.0,0.0,0.0,0.0,0.0,0.0,0.0,0.0,0.0,0.0,0.0,0.0,0.0,0.0,0.0,0.0,0.0,0.0,0.0,0.0,0.0,0.0,0.0,0.0,0.0,0.0,0.0,0.0,0.0,0.0,0.0,0.0,0.0,0.0,0.0,0.0,0.0,0.0,0.0,0.0,0.0,0.0,0.0,0.0,0.0,0.0,0.0,0.0,0.0,0.0,0.0,0.0,0.0,0.0,0.0,0.0,0.0,0.0,0.0,0.0,0.0,0.0,0.0,0.0,0.0,0.0,0.0,0.0,0.0,0.0,0.0,0.0,0.0,0.0,0.0,0.0,3.3682,3.5378,3.8743,3.8982,3.8441,3.7311,3.4435,3.2049,3.0497,2.7143,0.0,0.0,0.0,0.0,0.0,0.0,0.0,0.0,0.0,0.0,0.0,0.0,0.0,0.0,0.0,0.0,0.0,0.0,0.0,0.0,0.0,0.0,0.0,0.0,0.0,0.0,0.0,0.0,0.0,0.0,0.0,0.0,0.0,0.0,0.0,0.0,0.0,0.0,0.0,0.0,0.0,0.0,0.0,0.0,0.0,0.0,0.0,0.0,0.0,0.0,0.0,0.0,0.0,0.0,0.0,0.0,0.0,0.0,0.0,0.0,0.0,0.0,0.0,0.0,0.0,0.0,0.0,0.0,0.0,0.0,0.0,0.0,0.0,0.0,0.0,0.0,0.0,0.0,0.0,0.0,0.0,0.0,0.0,0.0,0.0,0.0,0.0,0.0,0.0,0.0,0.0,0.0,0.0,0.0,0.0,0.0,0.0,0.0,0.0,0.0,0.0,0.0,3.3997,3.5944,3.9308,3.9195,3.8441,3.7311,3.3707,3.1045,2.9939,2.6239,0.0,0.0,0.0,0.0,0.0,0.0,0.0,0.0,0.0,0.0,0.0,0.0,0.0,0.0,0.0,0.0,0.0,0.0,0.0,0.0,0.0,0.0,0.0,0.0,0.0,0.0,0.0,0.0,0.0,0.0,0.0,0.0,0.0,0.0,0.0,0.0,0.0,0.0,0.0,0.0,0.0,0.0,0.0,0.0,0.0,0.0,0.0,0.0,0.0,0.0,0.0,0.0,0.0,0.0,0.0,0.0,0.0,0.0,0.0,0.0,0.0,0.0,0.0,0.0,0.0,0.0,0.0,0.0,0.0,0.0,0.0,0.0,0.0,0.0,0.0,0.0,0.0,0.0,0.0,0.0,0.0,0.0,0.0,0.0,0.0,0.0,0.0,0.0,0.0,0.0,0.0,0.0,0.0,0.0,0.0,0.0,0.0,0.0,0.0,0.0,0.0,0.0,3.4338,3.6359,0.0,3.8868,3.7739,3.627,3.3534,3.1135,2.9358,0.0,0.0,0.0,0.0,0.0,0.0,0.0,0.0,0.0,0.0,0.0,0.0,0.0,0.0,0.0,0.0,0.0,0.0,0.0,0.0,0.0,0.0,0.0,0.0,0.0,0.0,0.0,0.0,0.0,0.0,0.0,0.0,0.0,0.0,0.0,0.0,0.0,0.0,0.0,0.0,0.0,0.0,0.0,0.0,0.0,0.0,0.0,0.0,0.0,0.0,0.0,0.0,0.0,0.0,0.0,0.0,0.0,0.0,0.0,0.0,0.0,0.0,0.0,0.0,0.0,0.0,0.0,0.0,0.0,0.0,0.0,0.0,0.0,0.0,0.0,0.0,0.0,0.0,0.0,0.0,0.0,0.0,0.0,0.0,0.0,0.0,0.0,0.0,0.0,0.0,0.0,0.0,0.0,0.0,0.0,0.0,0.0,0.0,0.0,0.0,0.0,0.0,3.2479,3.4502,3.6573,0.0,3.8693,3.7325,3.5633,3.2835,3.0588,2.9258,0.0,0.0,0.0,0.0,0.0,0.0,0.0,0.0,0.0,0.0,0.0,0.0,0.0,0.0,0.0,0.0,0.0,0.0,0.0,0.0,0.0,0.0,0.0,0.0,0.0,0.0,0.0,0.0,0.0,0.0,0.0,0.0,0.0,0.0,0.0,0.0,0.0,0.0,0.0,0.0,0.0,0.0,0.0,0.0,0.0,0.0,0.0,0.0,0.0,0.0,0.0,0.0,0.0,0.0,0.0,0.0,0.0,0.0,0.0,0.0,0.0,0.0,0.0,0.0,0.0,0.0,0.0,0.0,0.0,0.0,0.0,0.0,0.0,0.0,0.0,0.0,0.0,0.0,0.0,0.0,0.0,0.0,0.0,0.0,0.0,0.0,0.0,0.0,0.0,0.0,0.0,0.0,0.0,0.0,0.0,0.0,0.0,0.0,0.0,0.0,0.0,0.0,3.2504,3.4502,3.6598,3.9396,3.8693,3.7325,3.5633,3.1456,2.9157,0.0,0.0,0.0,0.0,0.0,0.0,0.0,0.0,0.0,0.0,0.0,0.0,0.0,0.0,0.0,0.0,0.0,0.0,0.0,0.0,0.0,0.0,0.0,0.0,0.0,0.0,0.0,0.0,0.0,0.0,0.0,0.0,0.0,0.0,0.0,0.0,0.0,0.0,0.0,0.0,0.0,0.0,0.0,0.0,0.0,0.0,0.0,0.0,0.0,0.0,0.0,0.0,0.0,0.0,0.0,0.0,0.0,0.0,0.0,0.0,0.0,0.0,0.0,0.0,0.0,0.0,0.0,0.0,0.0,0.0,0.0,0.0,0.0,0.0,0.0,0.0,0.0,0.0,0.0,0.0,0.0,0.0,0.0,0.0,0.0,0.0,0.0,0.0,0.0,0.0,0.0,0.0,0.0,0.0,0.0,0.0,0.0,0.0,0.0,0.0,0.0,0.0,0.0,3.3153,3.5114,3.7048,3.9446,3.8693,3.7174,3.5104,3.1968,2.9835,2.9208,0.0,0.0,0.0,0.0,0.0,0.0,0.0,0.0,0.0,0.0,0.0,0.0,0.0,0.0,0.0,0.0,0.0,0.0,0.0,0.0,0.0,0.0,0.0,0.0,0.0,0.0,0.0,0.0,0.0,0.0,0.0,0.0,0.0,0.0,0.0,0.0,0.0,0.0,0.0,0.0,0.0,0.0,0.0,0.0,0.0,0.0,0.0,0.0,0.0,0.0,0.0,0.0,0.0,0.0,0.0,0.0,0.0,0.0,0.0,0.0,0.0,0.0,0.0,0.0,0.0,0.0,0.0,0.0,0.0,0.0,0.0,0.0,0.0,0.0,0.0,0.0,0.0,0.0,0.0,0.0,0.0,0.0,0.0,0.0,0.0,0.0,0.0,0.0,0.0,0.0,0.0,0.0,0.0,0.0,0.0,0.0,0.0,0.0,0.0,0.0,0.0,0.0,3.3136,3.5225,3.706,3.8818,3.8417,3.7036,3.4589,3.2054,3.0011,2.8656,0.0,0.0,0.0,0.0,0.0,0.0,0.0,0.0,0.0,0.0,0.0,0.0,0.0,0.0,0.0,0.0,0.0,0.0,0.0,0.0,0.0,0.0,0.0,0.0,0.0,0.0,0.0,0.0,0.0,0.0,0.0,0.0,0.0,0.0,0.0,0.0,0.0,0.0,0.0,0.0,0.0,0.0,0.0,0.0,0.0,0.0,0.0,0.0,0.0,0.0,0.0,0.0,0.0,0.0,0.0,0.0,0.0,0.0,0.0,0.0,0.0,0.0,0.0,0.0,0.0,0.0,0.0,0.0,0.0,0.0,0.0,0.0,0.0,0.0,0.0,0.0,0.0,0.0,0.0,0.0,0.0,0.0,0.0,0.0,0.0,0.0,0.0,0.0,0.0,0.0,0.0,0.0,0.0,0.0,0.0,0.0,0.0,0.0,0.0,0.0,0.0,0.0,3.2917,3.5129,3.6856,3.8049,3.8077,3.6885,3.4123,3.1913,2.997,2.8288,0.0,0.0,0.0,0.0,0.0,0.0,0.0,0.0,0.0,0.0,0.0,0.0,0.0,0.0,0.0,0.0,0.0,0.0,0.0,0.0,0.0,0.0,0.0,0.0,0.0,0.0,0.0,0.0,0.0,0.0,0.0,0.0,0.0,0.0,0.0,0.0,0.0,0.0,0.0,0.0,0.0,0.0,0.0,0.0,0.0,0.0,0.0,0.0,0.0,0.0,0.0,0.0,0.0,0.0,0.0,0.0,0.0,0.0,0.0,0.0,2.6034,0.0,0.0,0.0,0.0,0.0,0.0,0.0,0.0,0.0,0.0,0.0,0.0,0.0,0.0,0.0,0.0,0.0,0.0,0.0,0.0,0.0,0.0,0.0,0.0,0.0,0.0,0.0,0.0,0.0,0.0,0.0,0.0,0.0,0.0,0.0,0.0,0.0,0.0,0.0,0.0,0.0,3.4653,3.5853,3.7164,3.9198,3.8579,3.6885,3.4123,3.2265,3.0507,2.8831,2.6766,0.0,0.0,0.0,0.0,0.0,0.0,0.0,0.0,0.0,0.0,0.0,0.0,0.0,0.0,0.0,0.0,0.0,0.0,0.0,0.0,0.0,0.0,0.0,0.0,0.0,0.0,0.0,0.0,0.0,0.0,0.0,0.0,0.0,0.0,0.0,0.0,0.0,0.0,0.0,0.0,0.0,0.0,0.0,0.0,0.0,0.0,0.0,0.0,0.0,0.0,0.0,0.0,0.0,0.0,0.0,0.0,0.0,0.0,0.0,0.0,2.7352,0.0,0.0,0.0,0.0,0.0,0.0,0.0,0.0,0.0,0.0,0.0,0.0,0.0,0.0,0.0,0.0,0.0,0.0,0.0,0.0,0.0,0.0,0.0,0.0,0.0,0.0,0.0,0.0,0.0,0.0,0.0,0.0,0.0,0.0,0.0,0.0,0.0,0.0,0.0,0.0,3.483,3.6173,3.7384,3.8821,3.8411,3.6913,3.4153,3.2365,3.0557,2.864,2.7193,0.0,0.0,0.0,0.0,0.0,0.0,0.0,0.0,0.0,0.0,0.0,0.0,0.0,0.0,0.0,0.0,0.0,0.0,0.0,0.0,0.0,0.0,0.0,0.0,0.0,0.0,0.0,0.0,0.0,0.0,0.0,0.0,0.0,0.0,0.0,0.0,0.0,0.0,0.0,0.0,0.0,0.0,0.0,0.0,0.0,0.0,0.0,0.0,0.0,0.0,0.0,0.0,0.0,3.3958,3.4374,3.5116,3.4475,3.3798,3.3016,3.1441,2.9604,2.7788,0.0,0.0,0.0,0.0,0.0,0.0,0.0,0.0,0.0,0.0,0.0,0.0,0.0,0.0,0.0,0.0,0.0,0.0,0.0,0.0,0.0,0.0,0.0,0.0,0.0,2.9091,2.8392,0.0,0.0,0.0,0.0,0.0,0.0,0.0,0.0,0.0,0.0,0.0,0.0,3.4623,3.6588,3.7925,3.8371,3.8327,3.7044,3.4158,3.2552,3.0743,2.8549,2.7704,2.6884,0.0,0.0,0.0,0.0,0.0,0.0,0.0,0.0,0.0,0.0,0.0,0.0,0.0,0.0,0.0,0.0,0.0,0.0,0.0,0.0,0.0,0.0,0.0,0.0,0.0,0.0,0.0,0.0,0.0,0.0,0.0,0.0,2.8373,2.9352,0.0,0.0,0.0,0.0,0.0,0.0,0.0,0.0,0.0,0.0,0.0,0.0,0.0,3.4628,3.5618,3.6232,3.681,3.7362,3.7362,3.7186,3.692,3.7988,3.7844,3.6777,3.7706,0.0,2.9402,2.8574,0.0,0.0,0.0,0.0,0.0,0.0,0.0,0.0,0.0,0.0,0.0,0.0,0.0,0.0,0.0,0.0,0.0,0.0,0.0,0.0,0.0,0.0,3.0219,3.0838,3.1029,3.0924,0.0,2.8179,2.6131,2.5592,0.0,0.0,0.0,0.0,0.0,0.0,0.0,0.0,3.542,3.7917,3.9574,3.9656,3.9138,3.7464,3.4183,3.3255,3.1934,2.9713,2.8131,2.7236,2.7085,2.6122,0.0,0.0,0.0,0.0,0.0,0.0,0.0,0.0,0.0,0.0,0.0,0.0,0.0,0.0,0.0,0.0,0.0,0.0,0.0,0.0,0.0,0.0,0.0,0.0,0.0,0.0,0.0,0.0,0.0,2.9277,3.0121,2.9393,3.0598,3.1175,0.0,0.0,0.0,0.0,0.0,0.0,0.0,0.0,0.0,3.6306,3.7123,3.7902,3.8705,3.9559,4.0719,4.2164,4.245,4.2916,4.3502,4.3826,4.3238,4.2031,4.2334,4.0294,3.6504,3.3946,3.2582,3.2098,0.0,0.0,0.0,0.0,0.0,3.086,3.2054,3.156,0.0,0.0,0.0,0.0,0.0,0.0,0.0,0.0,0.0,0.0,0.0,0.0,0.0,3.3997,3.4209,3.4195,3.4195,3.3166,3.1463,0.0,2.8018,2.7363,2.666,0.0,0.0,0.0,0.0,3.5477,3.7319,3.9213,4.0661,4.1347,3.9941,3.7979,3.557,3.3653,3.1913,3.0347,2.8966,2.8063,2.777,2.7268,2.6866,0.0,0.0,0.0,0.0,0.0,0.0,0.0,0.0,0.0,0.0,0.0,0.0,0.0,0.0,0.0,0.0,0.0,0.0,0.0,0.0,0.0,0.0,0.0,0.0,0.0,0.0,0.0,0.0,3.1158,3.1985,2.9808,3.2087,3.3034,0.0,0.0,0.0,0.0,0.0,0.0,3.7322,3.8505,3.9901,4.1605,4.232,4.3021,4.3707,4.4536,4.5924,4.7769,4.8025,4.8654,4.9539,4.9474,4.866,4.726,4.7032,4.5973,4.4066,3.9458,3.691,3.5905,3.5522,3.5235,3.5133,3.6116,3.6033,3.5638,3.6813,3.6503,3.5433,3.4243,0.0,3.1854,2.8932,0.0,0.0,0.0,0.0,3.1671,3.3561,3.5073,3.644,3.7697,3.7889,3.7823,3.7978,3.7964,3.6603,0.0,3.1831,3.1731,2.9826,0.0,0.0,0.0,0.0,3.7051,3.9035,4.0682,4.1913,4.2528,4.1001,3.8976,3.6694,3.4378,3.2411,3.0894,2.976,2.8881,2.8339,2.8163,2.7855,2.7311,0.0,0.0,0.0,0.0,0.0,0.0,0.0,0.0,0.0,0.0,0.0,0.0,0.0,0.0,0.0,0.0,0.0,0.0,0.0,0.0,0.0,0.0,0.0,0.0,0.0,0.0,0.0,0.0,0.0,3.1529,3.5415,0.0,0.0,0.0,0.0,3.5257,3.8202,4.0748,4.2525,4.5117,4.7353,4.9096,5.0218,5.1321,5.2348,5.2432,5.3042,5.4222,5.3694,5.314,5.2713,5.3957,5.351,5.1799,5.2482,5.2001,5.0179,4.3066,3.9784,3.9148,3.7982,3.784,3.83,3.8704,3.9199,3.9633,3.9073,3.8552,3.8109,3.8092,3.6872,3.4952,3.2619,3.3049,0.0,0.0,3.5364,3.7368,3.8706,3.9483,4.0337,4.1994,4.1955,4.1702,4.2274,4.1929,3.9844,0.0,3.4006,3.4444,3.3012,0.0,3.3917,3.4335,3.694,3.9131,3.9944,4.2435,4.3728,4.2718,4.2501,4.082,3.6849,3.5843,3.4272,3.1518,3.0357,2.9503,2.8872,2.8355,2.7855,2.7311,2.7261,0.0,0.0,0.0,0.0,0.0,0.0,0.0,0.0,0.0,0.0,0.0,0.0,0.0,0.0,0.0,0.0,0.0,0.0,0.0,0.0,0.0,0.0,0.0,0.0,0.0,0.0,0.0,0.0,3.8961,4.2281,0.0,3.919,4.0502,4.1543,4.142,4.4186,4.6759,4.8797,5.0167,5.1682,5.3368,5.3826,5.438,5.511,5.511,5.5838,5.729,5.7062,5.7154,5.7549,5.8022,5.7401,5.5992,5.6229,5.5628,5.4184,5.1151,4.8019,4.5075,4.4224,4.3998,4.4195,4.4305,4.4489,4.4667,4.443,4.3661,4.2514,4.063,3.8858,3.7307,3.6499,3.6691,3.7311,3.7854,3.8605,3.9591,4.1141,4.1663,4.2033,4.2982,4.3053,4.2943,4.3152,4.3693,4.3155,3.9898,3.8783,3.7972,3.67,3.7241,3.7606,3.691,3.9644,4.1873,4.214,4.3776,4.495,4.4978,4.3558,4.1712,3.9454,3.7252,3.4962,3.2586,3.1026,2.9966,2.9497,2.859,2.8163,2.8339,2.7302,2.6834,0.0,0.0,0.0,0.0,0.0,0.0,0.0,0.0,0.0,0.0,0.0,0.0,0.0,0.0,0.0,0.0,0.0,0.0,0.0,0.0,0.0,0.0,0.0,0.0,0.0,0.0,4.4324,4.445,4.7799,4.8675,4.501,4.6335,4.7364,4.7253,4.9988,5.2486,5.4361,5.5481,5.6694,5.8006,5.8263,5.8447,5.8587,5.8787,5.9324,6.018,6.018,6.0392,6.0759,6.0759,6.0176,5.9115,5.8876,5.8291,5.745,5.6555,5.4371,5.1439,4.9883,4.9015,4.8674,4.9134,4.9015,4.8585,4.8375,4.7568,4.6203,4.364,4.1923,4.0788,4.0393,4.0403,4.0757,4.172,4.2293,4.2896,4.4248,4.4584,4.4687,4.5028,4.4948,4.4794,4.4794,4.5434,4.5696,4.4481,4.3163,4.1742,4.0113,4.0726,4.1223,4.0549,4.2288,4.3878,4.4566,4.5234,4.5802,4.6241,4.4647,4.2782,4.0943,3.8557,3.5951,3.3168,3.1757,3.0634,2.9843,2.9076,2.8731,2.8897,2.7311,2.6943,2.7821,0.0,0.0,0.0,0.0,0.0,0.0,0.0,0.0,0.0,0.0,0.0,0.0,0.0,0.0,0.0,0.0,0.0,0.0,0.0,0.0,0.0,0.0,0.0,4.0587,4.5407,4.863,4.7598,5.1733,5.3024,4.8892,5.0494,5.1973,5.2477,5.5479,5.7842,5.903,6.105,6.2465,6.3123,6.3722,6.3722,6.3153,6.3692,6.3692,6.3138,6.3108,6.2764,6.2121,6.2121,6.1792,6.112,6.0489,6.019,6.007,5.8756,5.8175,5.7816,5.4593,5.2516,5.1546,5.2827,5.2426,5.1176,5.0506,4.9871,4.9077,4.7234,4.6171,4.5446,4.4312,4.4345,4.4858,4.5436,4.6469,4.7519,4.8158,4.8349,4.8349,4.8349,4.7859,4.7369,4.7369,4.7369,4.7369,4.7339,4.682,4.5595,4.3134,4.3659,4.4606,4.5214,4.4785,0.0,4.7029,4.6719,4.633,4.633,4.5743,4.4128,4.1142,3.9734,3.729,3.3307,3.248,3.1442,2.9864,2.9764,2.9478,2.8897,2.7386,2.6851,2.7311,0.0,0.0,0.0,0.0,0.0,0.0,0.0,0.0,0.0,0.0,0.0,0.0,0.0,0.0,0.0,0.0,0.0,0.0,0.0,0.0,0.0,0.0,4.6075,4.574,5.0585,5.4573,5.568,5.8705,5.9803,5.7441,5.9232,6.0151,5.9148,6.097,6.2453,6.3283,6.3413,6.3797,6.447,6.4186,6.4156,6.447,6.3722,6.3482,6.3737,6.3303,6.3003,6.2824,6.2824,6.2734,6.2555,6.2359,6.1986,6.1523,6.1164,6.0133,5.8637,5.6765,5.5807,5.5478,5.5401,5.4533,5.3222,5.2055,5.1528,5.1164,4.9664,4.9056,4.8773,4.8026,4.7886,4.8034,4.8212,4.8484,4.8798,4.8989,4.9048,4.9048,4.9048,4.8887,4.8738,4.8738,4.8738,4.8618,4.8128,4.7889,4.7212,4.5571,4.5941,4.6202,4.5434,4.5963,0.0,4.657,4.685,4.7029,4.7029,4.6431,4.509,4.2822,4.0389,3.7607,3.4364,3.2114,3.0581,2.9818,2.9001,2.8499,2.8304,2.8709,2.8558,0.0,0.0,0.0,0.0,0.0,0.0,0.0,0.0,0.0,0.0,0.0,0.0,0.0,0.0,0.0,0.0,0.0,0.0,0.0,0.0,0.0,0.0,4.8834,5.2606,5.4018,5.6303,5.8664,6.0894,6.278,6.3743,6.3363,6.4263,6.4591,6.3966,6.4486,6.5009,6.5398,6.477,6.459,6.4994,6.4889,6.4889,6.4994,6.4276,6.3917,6.3977,6.3393,6.3108,6.3108,6.3108,6.3108,0.0,6.3108,6.2884,6.2495,6.2225,6.1403,0.0,0.0,0.0,0.0,0.0,5.6256,5.5615,5.4012,5.3443,5.3234,5.1876,5.1457,5.1397,5.1043,5.0534,5.0103,5.0103,4.9894,4.9673,4.9673,4.9673,4.9673,4.9673,4.9486,4.9288,4.9288,4.9288,4.9187,4.8798,0.0,0.0,4.7328,4.7249,4.713,4.6632,4.698,4.7268,4.7149,4.7238,4.7309,4.7309,4.6461,4.5284,4.3838,4.1213,0.0,0.0,0.0,3.1225,2.9853,2.9151,0.0,0.0,0.0,2.9092,2.843,0.0,0.0,0.0,2.4913,2.5169,0.0,0.0,0.0,0.0,0.0,0.0,0.0,0.0,0.0,0.0,0.0,0.0,0.0,0.0,0.0,0.0,5.5145,5.9774,6.2974,6.2016,6.1836,6.4186,6.5039,6.5936,6.7224,6.6789,6.67,6.7298,6.664,6.6251,6.6325,0.0,0.0,0.0,0.0,6.5936,6.5323,6.5174,6.477,6.4096,6.3482,6.3168,6.3108,6.3108,6.3108,6.3108,6.3108,6.3108,6.3048,6.2465,6.2165,6.1972,6.0699,5.9083,5.7436,5.7334,5.7649,5.7846,5.6047,0.0,0.0,5.3845,5.3366,5.3306,5.3216,5.2366,5.1427,5.1325,5.0936,5.0506,5.0357,5.0387,5.0416,5.0327,4.9912,4.9516,4.9516,4.9516,4.9486,4.9438,4.9396,4.9187,4.8528,4.7848,4.7578,4.8098,4.7668,4.7519,4.8098,4.7668,4.7309,4.7309,0.0,0.0,4.4366,4.2006,3.9158,3.5894,3.4271,3.233,2.9903,2.9814,2.9764,2.9704,2.9233,2.8998,2.8998,2.8505,2.8288,2.827,2.7239,2.7279,0.0,0.0,0.0,0.0,0.0,0.0,0.0,0.0,0.0,0.0,0.0,0.0,0.0,0.0,0.0,5.5002,5.9303,6.2914,6.5144,6.6026,6.667,6.7179,6.7822,6.8525,6.9349,6.9289,6.9289,6.9409,6.8301,6.7852,6.8405,6.7777,6.7673,6.8226,6.7822,6.7553,6.7433,6.634,6.5458,6.4785,0.0,0.0,6.3108,6.3108,6.3108,6.3108,6.3108,6.3108,6.3108,6.2944,6.2584,6.2032,6.1224,6.0326,5.9442,5.8919,5.8457,5.7979,5.7064,5.6419,5.5863,5.5072,5.4431,5.3922,5.3366,5.3007,0.0,5.2157,5.2306,5.2366,5.1307,5.1427,5.1666,5.1146,5.0918,5.0828,5.0828,5.0828,5.0679,5.0129,5.0039,4.9841,4.9217,4.8558,4.7978,4.7549,4.7388,4.7369,4.7489,4.7369,4.7309,4.7309,4.707,4.6191,4.4456,4.1836,3.9113,3.6426,3.309,3.0785,2.9849,2.9814,2.9569,2.9082,2.9443,2.9628,2.9628,2.9528,2.9462,2.9453,2.8338,2.8147,0.0,0.0,0.0,0.0,0.0,0.0,0.0,0.0,0.0,0.0,0.0,4.4999,4.7823,0.0,5.7069,6.0512,6.3857,6.6729,6.8675,6.9259,6.9349,6.9035,6.9289,7.0021,7.1308,7.1145,7.1085,7.1427,7.0201,6.9738,7.0426,6.9199,6.881,6.9498,6.884,6.8331,6.7987,6.7014,6.6161,6.5488,6.4829,6.4351,6.4036,6.3707,6.3542,6.3542,6.3213,6.3108,6.3108,6.3108,6.2884,6.2555,6.2241,6.1493,6.0505,5.9847,5.9398,5.8949,5.7949,5.7184,5.6551,5.5923,5.5251,5.464,5.4294,5.3964,5.3623,5.3294,5.3204,5.3037,5.2366,5.2456,5.2618,5.2276,5.2187,5.2187,5.2187,5.2187,5.2007,5.1337,5.1206,5.0888,4.9912,4.9482,4.9033,4.8397,4.8008,4.7788,4.7788,4.7519,4.7309,4.7309,4.6999,4.639,4.5373,4.2372,3.9733,3.7809,3.4305,3.2417,3.2677,3.1352,3.0972,3.1745,3.0986,3.087,3.1393,3.086,3.0592,3.0592,3.0015,2.9744,0.0,0.0,0.0,0.0,0.0,0.0,0.0,3.8488,4.0761,4.2985,4.7043,5.1179,5.4365,5.8949,6.3064,6.5532,6.7971,7.0111,7.1683,7.1547,7.1158,7.0815,7.0755,7.1368,7.2954,7.2595,7.2505,7.3057,7.1846,7.1398,7.2056,7.0486,6.9828,7.0336,6.9858,6.9199,6.8407,6.7852,6.7119,6.6191,6.5637,6.5233,6.4964,6.4441,6.4126,6.3977,6.3363,6.3108,6.3108,6.3108,6.3108,6.3108,6.3108,6.2435,6.1403,6.0759,6.031,5.9951,5.8846,5.7949,5.7214,5.6718,5.603,5.5401,5.5401,5.491,5.4371,5.4239,5.3892,5.3516,5.3288,5.3306,5.3366,5.3216,5.3198,5.3198,5.3198,5.3198,5.3037,5.2498,5.2396,5.2007,5.0817,5.0596,5.0249,4.9247,4.8648,4.8248,4.8128,4.7638,4.7309,4.7309,4.682,4.6335,4.6013,4.2958,4.0527,3.9261,3.6343,3.5056,3.5928,3.3678,3.3159,3.4769,3.3103,3.2566,3.3315,3.2239,3.1772,3.1884,3.1894,3.1544,3.5902,3.488,3.4458,3.713,3.7568,3.9033,0.0,4.7651,4.9444,5.2874,5.6327,5.9561,6.2248,6.4725,6.6999,6.9018,7.059,7.1653,7.1863,7.2355,7.2864,7.3402,7.3462,7.3552,7.3762,7.3702,7.3702,7.3791,7.2551,7.2086,7.2757,7.2026,7.1623,7.1683,7.1623,7.0995,6.9798,6.9708,6.872,6.6894,6.6819,6.6161,6.4994,6.4904,6.456,6.3977,6.3363,6.3108,6.3108,6.3108,6.3108,6.3108,6.3108,6.3003,6.2794,6.2135,6.1118,6.007,5.9921,5.9039,5.7979,5.7919,5.7064,5.6102,5.6102,5.5611,5.497,5.4371,5.4581,5.4713,5.3528,5.3623,5.3952,5.3336,5.3198,5.3198,5.3198,5.3198,5.3169,5.3097,5.3109,5.2857,5.2097,5.1977,5.1169,4.8757,4.8338,4.8098,4.7489,4.7369,4.7309,4.7309,4.7238,4.6531,4.4923,4.2905,4.1173,3.9961,3.8089,3.7078,3.7198,3.6457,3.5856,3.5512,3.5254,3.491,3.4416,3.3344,3.307,3.3533,3.366,3.3088,3.8553,3.8042,3.8222,4.0928,4.3157,4.5628,4.9351,5.2292,5.4968,5.7578,6.1008,6.4216,6.649,6.8525,7.0247,7.1441,7.2445,7.321,7.3599,7.288,7.2415,7.2701,7.2385,7.2774,7.4317,7.4497,7.4497,7.4497,7.3599,7.3343,7.4048,7.3043,7.2654,7.3043,7.2312,7.1474,7.053,7.0187,6.9379,6.8166,6.7762,6.7284,6.6729,6.5936,6.5009,6.3977,6.3363,6.3108,6.3108,6.3108,6.3108,6.3108,6.3108,6.3108,6.3003,6.2345,6.1493,6.0625,6.025,5.9219,5.8085,5.8085,5.7483,5.6718,5.6718,5.6539,5.6239,5.5957,5.585,5.5641,5.5085,5.4862,5.47,5.4443,5.4354,5.4354,5.4354,5.4354,5.4264,5.3875,5.3773,5.3443,5.2366,5.2187,5.1558,4.9692,4.9422,4.9291,4.9022,4.8686,4.8308,4.7908,4.7549,4.6856,4.5679,4.4872,4.4045,4.3153,4.1441,4.0758,4.1389,3.9288,3.8557,3.9537,3.7964,3.727,3.7632,3.6553,3.6147,3.6355,3.6433,3.6539,4.0657,4.0882,4.2079,4.5671,4.9057,5.2132,5.465,5.7724,6.0588,6.2495,6.5285,6.7851,6.9482,7.1098,7.2385,7.3057,7.3732,7.4287,7.4587,7.306,7.1833,7.1653,7.0889,7.1367,7.3886,7.4241,7.4611,7.5238,7.4848,7.4848,7.5513,7.4485,7.386,7.3898,7.2774,7.1936,7.1457,7.0649,6.9991,6.9512,6.869,6.8197,6.7958,6.661,6.5368,6.4231,6.3632,6.3243,6.3108,6.3108,6.3108,6.3108,6.3108,6.3108,6.3048,6.2555,6.1942,6.1269,6.0595,5.9608,5.8637,5.8457,5.7919,5.7393,5.7393,5.7244,5.7094,5.7094,5.6671,5.6222,5.6402,5.597,5.5521,5.5688,5.573,5.5671,5.5521,5.5491,5.5281,5.461,5.4491,5.4102,5.2965,5.2755,5.2354,5.1206,5.0877,5.0548,5.0009,4.9415,4.8828,4.8338,4.7698,4.7089,4.661,4.642,4.6091,4.5603,4.4211,4.3774,4.4545,4.2204,4.1532,4.291,4.0771,3.9936,4.0519,3.9432,3.8996,3.9144,3.9353,3.9999,4.221,4.2956,4.5325,5.171,5.4758,5.7666,6.3326,6.5697,6.7297,6.9301,7.0274,7.0979,7.1683,7.2385,7.3086,7.3762,7.4437,7.4646,7.4001,7.2761,7.1653,7.1009,6.9812,6.9887,0.0,7.2668,7.3878,7.6091,7.6234,7.6513,7.7194,7.6575,7.5491,7.3949,7.3223,7.2847,7.2847,7.1531,7.0859,7.0829,6.9572,6.863,6.7958,6.661,6.5637,6.4934,6.4261,6.3632,6.3108,6.3108,6.3108,6.3108,6.3108,6.3108,6.3108,6.3078,6.2644,6.1972,6.1299,6.0625,5.9921,5.9279,5.8607,5.8055,5.8055,5.7633,5.7094,5.7094,5.6671,5.6342,5.6928,5.6628,5.6312,5.6898,5.7034,5.6898,5.6312,5.6162,5.5983,5.5311,5.5162,5.494,5.4251,5.4149,5.388,5.3216,5.2558,5.145,4.9576,4.8738,4.8308,4.8308,4.7698,4.7309,4.7268,4.6659,4.63,4.6271,4.5602,4.5254,4.5274,4.5163,4.4854,4.4247,4.3569,4.2951,4.2332,4.125,4.1004,4.1498,4.2226,4.2911,4.7255,4.9849,5.3226,5.7523,6.1028,6.4293,6.758,6.9319,7.0217,7.0037,6.9828,6.9572,6.9349,6.9498,7.0157,7.1667,7.2864,7.4015,7.526,7.4676,7.36,7.2074,7.1576,0.0,0.0,0.0,0.0,7.5316,7.5,7.4998,7.5681,7.55,7.5123,7.4574,7.3911,7.3552,7.3552,7.2235,7.1547,7.1534,6.9812,6.866,6.7928,6.6161,6.5203,6.4934,6.3857,6.3273,6.3108,6.3108,6.3108,6.3108,6.3108,6.3108,6.3108,6.3108,6.2944,6.2674,6.2002,6.1014,6.013,6.0356,5.9967,5.9428,5.9428,5.9249,5.8993,5.856,5.7962,5.75,5.7709,5.7274,5.6838,5.7034,5.7094,5.7034,5.6838,5.6808,5.6718,5.6496,5.6149,5.5641,5.4982,5.4478,5.3832,5.2695,5.2336,5.1798,5.069,4.9991,4.9561,4.9561,4.8985,4.8468,4.8008,4.7758,4.7429,4.6999,4.676,4.6621,4.6621,4.6191,4.5862,4.5642,4.5005,4.4536,4.4327,4.3971,4.3885,4.4051,4.4319,4.4763,5.2866,5.5915,5.9159,6.3245,6.6355,6.8914,7.0935,7.1653,7.1474,6.9947,6.8734,6.7567,6.6461,6.5847,6.6326,6.8764,7.0092,7.1848,7.4793,7.442,7.359,7.2908,7.2224,7.1499,0.0,0.0,0.0,7.5877,7.5281,7.5316,7.657,7.6083,7.5506,7.492,7.4257,7.4018,7.4257,7.2701,7.1683,7.1204,6.9722,6.866,6.7958,6.64,6.5458,6.4964,6.4111,6.3512,6.3108,6.3108,6.3394,6.3803,6.3803,6.4111,6.4568,6.4568,6.4251,6.3641,6.25,6.1537,6.0848,6.103,6.0791,6.0446,6.0446,6.028,6.001,5.9578,5.8786,5.8158,5.8397,5.7949,5.7513,5.7752,5.7812,5.7752,5.7513,5.7453,5.7393,5.7167,5.6598,5.6072,5.5641,5.4999,5.4192,5.3084,5.2893,5.2504,5.1367,5.0596,5.0207,5.0207,4.9643,4.9138,4.8708,4.8648,4.8457,4.8038,4.7788,4.7668,4.7668,4.6999,4.6659,4.6659,4.6012,4.5663,4.5663,4.5663,4.5663,4.5653,4.5903,4.6251,5.8662,6.1108,6.3276,6.8863,7.0769,7.1795,7.367,7.2943,7.1335,6.928,6.7135,6.5054,6.3063,6.1762,6.2106,6.5473,6.68,6.8856,7.3191,7.263,7.2321,7.3775,7.225,7.1797,0.0,0.0,0.0,7.7688,0.0,7.7183,7.9449,7.8028,7.6469,7.4954,7.4287,7.4257,7.4886,7.294,7.1324,7.0097,6.9393,6.872,6.8047,6.7284,6.6251,6.4994,6.4934,6.4216,6.3108,6.315,6.3958,6.5097,6.5165,6.6021,6.719,6.719,6.6365,6.494,6.3036,6.2263,6.2002,6.1359,6.112,6.109,6.109,6.0655,6.013,6.01,5.9189,5.8338,5.8936,5.8637,5.8294,5.8936,5.9099,5.8949,5.8308,5.8145,5.7979,5.7334,5.6718,5.6282,5.6252,5.57,5.5029,5.4359,5.4209,5.3491,5.1546,5.0757,5.0327,5.0297,4.9793,4.9438,4.9348,4.9348,4.9318,4.9288,4.8708,4.8338,4.8308,4.7698,4.7339,4.7309,4.667,4.636,4.636,4.636,4.636,4.642,4.7059,4.7369,6.2783,6.6942,7.0909,7.335,7.5387,7.6737,7.6615,7.4329,7.126,6.7633,6.368,6.0116,5.7663,5.853,6.1097,6.5646,6.902,7.2927,7.8359,7.9301,7.9179,7.8574,7.8522,7.8129,7.7022,7.6663,0.0,0.0,7.6161,7.5109,7.6091,7.5745,7.5303,7.4903,7.4736,7.4736,7.4886,7.3402,7.2235,7.1414,7.0277,6.9393,6.869,6.7029,6.5787,6.4934,6.4006,6.3393,6.3194,6.4181,6.4786,6.5192,6.6259,6.6868,6.719,6.719,6.6958,6.6595,6.6096,6.4227,6.2061,6.1912,6.1509,6.109,6.109,6.097,6.0745,6.025,5.9861,5.9518,5.9189,5.8966,5.8876,5.9069,5.9099,5.9069,5.8876,5.8846,5.8786,5.862,5.8052,5.7453,5.6958,5.6372,5.5713,5.5029,5.4521,5.3832,5.2827,5.2558,5.2247,5.1726,5.1558,5.105,5.0051,4.9979,4.9793,4.9318,4.9138,4.8828,4.8308,4.8128,4.7818,4.7298,4.7119,4.7059,4.7059,4.7059,4.7309,4.7788,4.7978,4.8038,6.8256,7.2595,7.6423,7.7118,7.8,7.8077,7.5635,7.2648,6.8795,6.318,5.9805,5.6935,5.3786,5.5912,5.9626,6.4218,6.8492,7.3462,7.9888,8.0815,8.1049,8.1573,8.1439,8.0796,7.9578,7.8776,7.8469,0.0,7.6466,7.5324,7.5908,7.5299,7.4886,7.4886,7.4886,7.4766,7.4467,7.3133,7.2265,7.1893,7.0306,6.9199,6.8511,6.6789,6.5458,6.453,0.0,6.3678,6.4026,6.4786,6.5808,6.6971,6.7761,6.8454,6.8988,6.8988,6.8601,6.8094,6.8094,6.6432,6.4231,6.3632,6.3166,6.2737,6.2154,6.1762,6.1463,6.1074,6.0775,6.0386,5.9697,5.9548,5.9458,5.9189,5.9099,5.9189,5.9488,5.9548,5.9458,5.9159,5.8577,5.7889,5.7214,5.6808,5.6479,5.609,5.5478,5.4952,5.4576,5.3767,5.3049,5.2677,5.2648,5.2217,5.1187,5.1086,5.0799,5.0163,4.9853,4.9523,4.9153,4.8596,4.8248,4.8188,4.7889,4.7878,4.8188,4.8188,4.8368,4.8738,4.8738,4.8738,7.4139,7.7704,8.0309,8.0169,7.9535,7.7806,7.3348,6.9732,6.5237,5.7996,5.5891,5.4294,5.0953,5.3819,5.8201,6.2833,6.7341,7.273,7.9958,8.0329,8.0805,8.349,8.2691,8.1947,8.2014,8.0561,7.9433,7.8935,7.745,7.6697,7.6965,7.5661,7.4856,7.4766,7.4766,7.4437,7.3762,7.2521,7.2008,7.2177,7.0326,6.9003,6.8268,6.7185,6.5813,6.4297,0.0,0.0,6.5396,6.5553,6.7048,6.9229,6.9397,7.0228,7.13,7.13,7.0528,6.949,6.949,6.8712,6.747,6.5794,6.5136,6.4741,6.3597,6.2712,6.2091,6.2091,6.1672,6.106,6.04,6.022,6.01,5.9518,5.9368,5.9518,6.01,6.022,6.007,5.9488,5.8906,5.8278,5.7603,5.7423,5.7347,5.7244,5.6718,5.6312,5.6312,5.4665,5.3426,5.3336,5.3336,5.3067,5.2396,5.2247,5.2007,5.1487,5.0757,5.0327,5.0327,4.9183,4.8787,4.9288,4.8738,4.8768,4.9426,4.9348,4.9378,4.9546,4.9456,4.9426,7.8459,8.0791,8.256,8.1926,8.1296,7.968,7.5161,6.9171,6.2845,5.6811,5.2741,4.9911,4.8755,5.2448,5.8107,6.5499,7.0249,7.5563,8.2858,8.3737,8.4086,8.5263,8.5161,8.5263,8.5892,8.4356,0.0,0.0,0.0,7.7191,7.5418,7.5057,7.4646,7.4108,7.4061,7.3762,7.3086,7.2295,7.2551,7.38,7.2291,7.0982,6.9928,7.0303,6.8733,6.5817,6.7031,0.0,6.6906,6.8024,6.8773,6.9313,7.0493,7.1075,7.13,7.13,7.1131,7.095,7.095,7.078,7.0081,6.6996,6.5206,6.4229,6.4004,6.3058,6.2091,6.2091,6.2002,6.1762,6.109,6.0924,6.088,6.0791,6.0761,6.0791,6.088,6.0924,6.088,6.0761,6.0671,6.0386,5.9711,5.9129,5.856,5.8008,5.7363,5.6958,5.6958,5.573,5.464,5.4102,5.4042,5.3743,5.3067,5.2528,5.2396,5.2827,5.1696,5.1026,5.1026,5.0267,4.9692,4.9318,4.9198,4.9415,5.0039,4.9535,4.9845,5.0858,5.0308,5.0039,8.1411,8.339,8.4913,8.3749,8.1493,7.7988,7.1909,6.576,5.9444,5.2678,5.0371,4.911,4.755,5.2426,5.8359,6.3446,6.7212,7.254,8.11,8.1312,8.2022,8.5926,8.5577,8.551,8.6791,8.3436,8.1101,8.0921,0.0,7.6058,7.4967,7.4886,7.4587,7.3911,7.3552,7.3223,7.2907,7.1876,7.2333,7.4191,7.2457,7.1352,7.0866,7.0891,6.9357,6.6724,6.7844,0.0,6.8306,6.8931,6.9633,7.0344,7.1041,7.13,7.13,7.13,7.13,7.13,7.13,7.13,7.1019,6.9398,6.7896,6.6499,6.5054,6.4156,6.3528,6.2813,6.2614,6.2465,6.1792,6.1598,6.1539,6.118,6.1359,6.1598,6.1598,6.1598,6.1598,6.1598,6.1329,6.1,6.0685,6.0057,5.9518,5.9189,5.8278,5.762,5.762,5.6795,5.606,5.5748,5.5718,5.5299,5.4324,5.3964,5.3605,5.3216,5.2618,5.2247,5.2247,5.1606,5.1289,5.1342,5.0983,5.1121,5.1756,5.148,5.163,5.2247,5.1905,5.1756,8.3882,8.5463,8.6521,8.4986,8.0906,7.5383,6.8189,6.2134,5.6037,4.892,4.8472,4.8858,4.7127,5.2235,5.7654,6.0554,6.3676,6.8921,7.8179,7.8551,8.0107,8.6183,8.5681,8.5459,8.6986,8.2237,0.0,8.0828,0.0,0.0,7.492,7.5081,7.4707,7.3719,7.3363,7.311,7.2989,7.2106,7.2705,7.4717,7.2818,7.1904,7.1888,7.1478,7.0028,6.7905,6.8791,0.0,0.0,6.9656,7.0298,7.13,7.13,7.13,7.13,7.13,7.13,7.13,7.13,7.13,7.13,7.13,7.0333,6.8748,6.6299,6.5558,6.526,6.3916,6.3762,6.3865,6.3348,6.3196,6.2991,6.2129,6.2152,6.2301,6.2301,6.2301,6.2301,6.2301,6.1882,6.1479,6.1329,6.0864,6.0489,6.034,5.9308,5.8517,5.8517,5.7932,5.7526,5.7526,5.7274,5.6658,5.5521,5.5281,5.4743,5.3707,5.3366,5.3348,5.3618,5.2965,5.2875,5.3396,5.2905,5.2875,5.3396,5.3288,5.3276,5.3396,5.3288,5.3198,8.6363,8.673,8.6521,8.4986,7.9722,7.3296,6.7184,6.0191,5.3467,4.8014,4.7012,4.7237,4.7687,5.0594,5.4516,5.9404,6.3304,6.8379,7.6115,7.9342,8.2387,8.642,8.677,8.6978,8.7806,8.406,8.1359,8.0921,0.0,0.0,7.4971,7.5705,7.5193,7.3047,7.3703,7.3818,7.3262,7.3796,7.4921,7.6561,7.4936,7.394,7.3515,7.4001,7.2667,7.0099,7.1449,0.0,0.0,7.1098,7.1165,7.13,7.13,7.13,7.13,7.13,7.13,7.13,7.13,7.13,7.13,7.13,7.0333,6.8919,6.7445,6.6997,6.6699,6.5314,6.5835,6.6816,6.6752,6.672,6.6382,6.5064,6.3849,6.3003,6.3003,6.3003,6.3003,6.3003,6.2944,6.2734,6.2121,6.1942,6.1702,6.109,6.0386,5.9921,5.9921,5.9338,5.8919,5.8919,5.7842,5.6838,5.6162,5.5551,5.5162,5.5012,5.3875,5.3767,5.4982,5.4371,5.4059,5.4119,5.4059,5.4059,5.4119,5.3516,5.3516,5.4089,5.3486,5.3198,8.5554,8.6569,8.6521,8.4986,7.8877,7.1819,6.6305,5.8906,5.2003,4.7673,4.6793,4.6894,4.7192,4.9297,5.2147,5.5581,5.6587,5.9733,6.7715,7.0229,7.3827,8.0716,8.2161,8.3891,0.0,0.0,8.0924,0.0,0.0,0.0,7.7868,7.7747,7.7102,7.5839,7.5703,7.5325,7.4691,7.4548,7.526,7.6787,7.5233,7.4642,7.4896,7.5145,7.3917,7.16,7.2638,0.0,0.0,7.13,7.13,7.13,7.13,7.13,7.13,7.13,7.13,7.13,7.13,7.13,7.13,7.13,7.0905,7.0076,6.7869,6.7749,6.7937,6.5714,6.6114,6.719,6.719,6.6587,6.5781,6.5233,6.4069,6.3108,6.3108,6.3108,6.3108,6.3108,6.3108,6.3018,6.2734,6.2375,6.2002,6.1732,6.1134,6.0715,6.0715,6.0462,6.0282,6.0282,5.9099,5.8052,5.7393,5.7081,5.6752,5.6376,5.585,5.579,5.6329,5.6077,5.5957,5.5957,5.5957,5.5957,5.5927,5.5671,5.5491,5.5401,5.5491,5.5341,8.3199,8.5012,8.554,8.3984,7.7638,7.0331,6.4884,5.7577,5.0947,4.7225,4.6658,4.6793,4.6793,4.8417,5.0439,5.2494,5.2461,5.493,6.2743,6.484,6.8504,7.6398,7.7895,8.0022,8.45,8.2628,8.0788,0.0,0.0,0.0,8.051,8.023,7.9341,7.7753,7.744,7.6962,7.6298,7.5784,7.6097,7.7124,7.5604,7.5142,7.5676,7.5473,7.4525,7.3071,0.0,0.0,0.0,7.1639,7.1503,7.13,7.13,7.13,7.13,7.13,7.13,7.13,7.13,7.13,7.13,7.13,7.13,7.0848,6.8491,6.8736,6.9241,6.6477,6.701,6.8405,6.8405,6.7356,6.622,6.5808,6.4662,6.3578,6.3194,6.3108,6.3108,6.3108,6.3108,6.3108,6.3108,6.2704,6.2405,6.2405,6.1822,6.1389,6.1389,6.121,6.109,6.109,6.0252,5.9415,5.8756,5.8697,5.8308,5.7453,5.7393,5.7393,5.7393,5.7393,5.7393,5.7393,5.7393,5.7304,5.7094,5.7094,5.6898,5.6492,5.6898,5.6868,7.9431,8.1866,8.3186,8.171,7.5721,6.865,6.2685,5.608,5.0153,4.6474,4.6278,4.6793,4.6793,4.8003,4.9484,5.0964,5.3112,5.6909,6.3632,6.6474,6.9823,7.51,7.5077,7.6125,7.9904,8.1432,8.1534,0.0,0.0,0.0,8.2188,8.2965,8.1692,7.7827,7.8532,7.8634,7.7868,7.7916,7.7951,7.7976,7.6408,7.5697,7.5676,7.4953,7.4615,0.0,0.0,0.0,0.0,7.2394,7.1943,7.13,7.13,7.13,7.13,7.13,7.13,7.13,7.13,7.13,7.13,7.13,7.13,7.103,6.9621,7.0181,7.0711,6.7957,6.9166,7.1255,7.1255,7.0216,6.8821,6.7483,6.6101,6.4703,6.3394,6.3108,6.3108,6.3108,6.3108,6.3108,6.3108,6.3093,6.3108,6.3108,6.2525,6.2091,6.2091,6.1509,6.109,6.109,6.109,6.0791,6.013,6.007,5.9518,5.8175,5.8085,5.8085,5.8085,5.8085,5.8085,5.8085,5.8085,5.7769,5.7094,5.7094,5.7094,5.7107,5.7094,5.7094,7.0838,7.3071,7.3928,7.1887,6.7726,6.2793,5.7725,5.2926,4.8481,4.4694,4.4118,4.4396,4.487,4.627,4.8487,5.1998,5.3698,5.6064,6.0172,6.4884,6.9079,7.2315,7.7862,8.1908,0.0,0.0,0.0,0.0,0.0,0.0,8.306,8.3354,8.2709,8.096,8.0688,7.9985,7.8752,7.8239,7.7751,7.7244,7.6183,7.5439,7.4965,7.5236,0.0,0.0,0.0,0.0,0.0,7.1853,7.1503,7.13,7.13,7.13,7.13,7.13,7.13,7.13,7.13,7.13,7.13,7.13,7.13,7.1041,6.9633,7.0193,7.1109,7.024,7.0642,7.13,7.13,6.9561,6.7711,6.7292,6.5423,6.362,6.3209,6.3108,6.3108,6.3108,6.3108,6.3108,6.3108,6.3108,6.3108,6.3108,6.2914,6.2794,6.2794,6.2614,6.2465,6.2465,6.2465,6.2002,6.0894,6.0761,6.0581,6.0192,6.0162,6.0162,6.0162,6.0162,5.9923,5.9488,5.9458,5.9129,5.8471,5.8471,5.8471,5.8471,5.8471,5.8471,6.3429,6.6474,6.7583,6.5535,6.226,5.839,5.403,4.9977,4.6429,4.4083,4.3378,4.35,4.4431,4.5952,4.8147,5.1407,5.2702,5.4735,5.8853,6.3352,6.7726,7.165,7.8268,0.0,0.0,0.0,0.0,0.0,0.0,0.0,8.3484,8.3253,8.2611,8.1583,8.1122,8.031,7.9114,7.8077,7.7198,7.6454,7.5676,7.5021,7.4615,7.51,0.0,0.0,0.0,0.0,0.0,7.2022,7.1537,7.13,7.13,7.13,7.13,7.13,7.13,7.13,7.13,7.13,7.13,7.13,7.13,7.1154,7.0263,7.024,7.0608,7.1131,7.13,7.1188,7.0631,6.9229,6.7686,6.6634,6.5114,6.3734,6.3193,6.3108,6.3108,6.3108,6.3108,6.3108,6.3108,6.3108,6.3108,6.3108,6.3108,6.3108,6.3108,6.3108,6.3108,6.3108,6.3108,6.2764,6.1942,6.1852,6.1762,6.1493,6.1493,6.1359,6.112,6.109,6.088,6.0475,6.022,5.9877,5.9488,5.9488,5.9608,5.9833,5.9833,5.9727,0.0,6.1018,6.2912,6.1185,5.822,5.4754,5.093,4.6971,0.0,4.4002,4.3477,4.3502,4.4965,4.6549,4.8154,4.9705,5.0844,5.3518,5.9286,6.2467,6.6667,7.3251,7.7266,0.0,7.9283,0.0,0.0,0.0,0.0,0.0,8.3355,8.2631,8.1596,8.0175,7.9972,7.9566,7.8877,7.7502,7.6386,7.554,7.4852,7.448,7.4446,7.4514,0.0,0.0,0.0,0.0,0.0,7.2631,7.1909,7.13,7.13,7.13,7.13,7.13,7.13,7.13,7.13,7.13,7.13,7.13,7.13,7.13,7.13,7.0379,6.9621,7.0916,7.1233,7.0848,6.9549,6.904,6.8248,6.5701,6.5046,6.4623,6.3379,6.3108,6.3108,6.3108,6.3108,6.3108,6.3108,6.3108,6.3108,6.3108,6.3108,6.3108,6.3108,6.3108,6.3108,6.3108,6.3108,6.3108,6.3108,6.3108,6.2824,6.2211,6.2181,6.1882,6.1269,6.1239,6.121,6.118,6.0505,6.016,6.016,6.022,6.0535,6.109,6.115,6.0791,4.5909,0.0,5.032,4.8194,4.74,4.6487,0.0,4.2434,4.1386,4.0067,3.9693,4.0436,4.3259,4.4475,4.6496,5.0905,5.3334,5.5864,5.9322,6.6343,7.3218,7.88,8.1718,8.2631,8.0966,0.0,0.0,0.0,0.0,8.303,8.1879,8.1122,8.031,7.9384,7.7671,7.6657,7.6487,7.6149,7.5315,7.3996,7.3827,7.3443,7.2935,7.3488,0.0,0.0,0.0,0.0,7.2597,7.1842,7.147,7.13,7.13,7.13,7.13,7.13,7.13,7.13,7.13,7.13,7.13,7.13,7.13,7.13,7.13,7.1064,7.0871,7.1222,7.0528,6.9621,6.9289,6.7635,6.5901,6.5247,6.4334,6.3478,6.318,6.3108,6.3108,6.3108,6.3108,6.3108,6.3108,6.3108,6.3108,6.3108,6.3108,6.3108,6.3108,6.3108,6.3108,6.3108,6.3108,6.3108,6.3108,6.3108,6.3033,6.2854,6.2854,6.2794,6.2644,6.2614,6.2405,6.1882,6.1224,6.0851,6.0864,6.1373,6.1463,6.112,6.1642,6.1523,3.9985,4.2739,4.5558,4.3892,4.3536,4.3154,4.1462,3.9977,3.8875,3.8598,3.8525,3.946,4.2467,4.3903,4.6122,5.0667,5.3131,5.6579,6.2621,6.8974,7.5045,8.0627,8.234,8.3016,0.0,0.0,0.0,0.0,0.0,8.234,8.0864,8.0107,7.9025,7.7604,7.6352,7.5709,7.5709,7.5045,7.4131,7.3015,7.3015,7.2812,7.2428,7.28,7.2981,0.0,0.0,0.0,7.2326,7.1605,7.13,7.13,7.13,7.13,7.13,7.13,7.13,7.13,7.13,7.13,7.13,7.13,7.13,7.13,7.13,7.13,7.13,7.13,7.0286,6.9073,6.8454,6.6699,6.495,6.4348,6.3635,6.3108,6.3108,6.3108,6.3108,6.3108,6.3108,6.3108,6.3108,6.3108,6.3108,6.3108,6.3108,6.3108,6.3108,6.3108,6.3108,6.3108,6.3108,6.3108,6.3108,6.3108,6.3108,6.3108,6.3108,6.3108,6.3108,6.3108,6.2794,6.2121,6.1732,6.1539,6.1539,6.1912,6.2061,6.2032,6.2405,6.2181,3.7542,4.0827,4.4473,4.3162,4.2552,4.205,4.1159,3.8709,3.7011,3.8389,3.8729,3.9653,4.2426,4.449,4.6842,5.0092,5.2725,5.7721,6.7206,7.1278,7.5165,8.0334,8.1446,0.0,0.0,0.0,0.0,0.0,0.0,8.1426,7.9938,7.9058,7.7625,7.5608,7.5303,7.5202,7.5202,7.3962,7.2981,7.2225,7.2225,7.2225,7.2225,7.2225,7.2563,0.0,0.0,0.0,7.2191,7.1571,7.13,7.13,7.13,7.13,7.13,7.13,7.13,7.13,7.13,7.13,7.13,7.13,7.13,7.13,7.13,7.13,7.13,7.13,7.0286,6.8882,6.7534,6.6167,6.4758,6.3422,6.3108,6.3165,6.3365,6.3236,6.3165,6.3379,6.3222,6.3108,6.3108,6.3108,6.3108,6.3108,6.3108,6.3108,6.3108,6.3279,6.3422,6.3422,6.3606,6.3734,6.3734,6.3734,6.3635,6.3422,6.3193,6.3108,6.3108,6.3108,6.2824,6.2241,6.2241,6.2241,6.2241,6.2241,6.2555,6.3108,6.3108,6.2794,3.8955,4.0939,4.2117,3.9124,3.9161,3.9748,3.9005,3.8033,3.7499,3.8284,3.8903,4.0269,4.3477,4.6703,4.9389,5.0861,5.6561,6.3309,0.0,0.0,7.7677,7.9107,0.0,0.0,0.0,0.0,0.0,0.0,0.0,0.0,7.8428,7.6995,7.5777,7.4784,7.3578,7.2902,7.2902,7.2665,7.2191,7.147,7.147,7.147,7.147,7.147,7.1537,0.0,0.0,7.147,7.147,7.1368,7.13,7.13,7.13,7.13,7.13,7.13,7.13,7.13,7.13,7.13,7.13,7.13,7.13,7.13,7.13,7.13,7.13,7.13,7.0286,6.8882,6.7534,6.6167,6.4758,6.3422,6.3108,6.3422,6.4554,6.3902,6.3451,6.4582,6.3888,6.3108,6.3108,6.3108,6.3108,6.3108,6.3108,6.3108,6.3108,6.4083,6.4786,6.4786,6.5848,6.6574,6.6574,6.6574,6.6061,6.4868,6.3748,6.3108,6.3108,6.3108,6.3048,6.2944,6.2944,6.2944,6.2944,6.2944,6.3003,6.3108,6.3108,6.3033,3.7472,3.8767,4.0026,3.923,4.0537,4.1794,4.0804,3.9469,3.8682,3.9349,4.0437,4.2215,4.5213,4.8235,5.1716,5.6256,6.3012,6.8883,7.2322,7.5447,7.8113,0.0,0.0,0.0,0.0,0.0,0.0,0.0,0.0,0.0,7.7515,7.6318,7.4999,7.3465,7.2766,7.2225,7.1808,7.1808,7.1639,7.13,7.13,7.13,7.13,7.13,7.13,7.13,0.0,7.13,7.13,7.13,7.13,7.13,7.13,7.13,7.13,7.13,7.13,7.13,7.13,7.13,7.13,7.13,7.13,7.13,7.13,7.13,7.13,7.13,6.9772,6.7962,6.7356,6.5625,6.404,6.4153,6.4181,6.4568,6.5928,6.5741,6.526,6.5124,6.4609,6.3958,6.3207,6.3108,6.3108,6.3108,6.3108,6.3365,6.4083,6.4717,6.5396,6.6154,6.6803,6.719,6.719,6.719,6.6613,6.5179,6.3845,6.3108,6.3108,6.3108,6.3451,6.4167,6.3464,6.3449,6.4181,6.3435,6.3108,6.3108,6.3108,6.3108,3.6467,3.7494,3.911,4.0127,4.1923,4.3409,4.3529,4.222,4.1367,4.266,4.394,4.5566,4.7929,5.0725,5.4977,6.1953,6.8196,7.2572,7.3841,7.624,7.8791,0.0,0.0,0.0,0.0,0.0,0.0,0.0,0.0,0.0,7.6487,7.5439,7.4052,7.2191,7.2157,7.1875,7.13,7.13,7.13,7.13,7.13,7.13,7.13,7.13,7.13,7.13,7.13,7.13,7.13,7.13,7.13,7.13,7.13,7.13,7.13,7.13,7.13,7.13,7.13,7.13,7.13,7.13,7.13,7.13,7.13,7.13,7.13,7.13,6.9537,6.766,6.766,6.6114,6.472,6.5423,6.5598,6.5968,6.7356,6.7407,6.6868,6.5795,6.5328,6.4662,6.3337,6.3108,6.3108,6.3108,6.3379,6.3944,6.4978,6.5647,6.6464,6.7546,6.7969,6.8157,6.8157,6.7591,6.6725,6.5647,6.4012,6.3108,6.3108,6.3408,6.404,6.507,6.4401,6.4568,6.5598,6.4237,6.3564,6.3564,6.3236,6.3108,3.8082,3.9209,4.0277,4.0367,4.0546,4.1773,4.5992,4.6334,4.6696,4.9781,5.0538,5.0984,5.2236,5.5624,6.0079,6.5733,6.9307,7.2487,7.5728,0.0,0.0,0.0,0.0,0.0,0.0,0.0,0.0,0.0,0.0,0.0,7.4852,7.3409,7.2259,7.1402,7.1368,7.1368,7.13,7.13,7.13,7.13,7.13,7.13,7.13,7.13,7.13,7.13,7.13,7.13,7.13,7.13,7.13,7.13,7.13,7.13,7.13,7.13,7.13,7.13,7.13,7.13,7.13,7.13,7.13,7.13,7.13,7.13,7.13,7.13,7.0228,6.9073,6.9073,6.8906,6.8479,6.7317,6.7035,6.7407,6.876,6.8094,6.7164,6.7061,6.5994,6.4662,6.3337,6.3108,6.3108,6.3108,6.4167,6.5005,6.507,6.733,6.8931,6.904,7.0228,7.1007,7.1007,6.8671,6.7151,6.7048,6.4568,6.3108,6.3108,6.4276,6.5019,6.5083,6.6299,6.6932,6.7035,6.562,6.4964,6.4937,6.3692,6.3108,3.6679,3.8144,3.9969,4.0825,4.1624,4.298,4.6001,4.8438,5.0653,5.265,5.4637,5.6078,5.6444,5.9558,6.3034,6.5889,7.1516,7.607,7.7687,0.0,0.0,0.0,0.0,0.0,0.0,0.0,0.0,0.0,0.0,0.0,0.0,7.2381,7.1172,7.1312,7.0459,7.0402,7.1289,7.13,7.1064,7.0635,7.1064,7.13,7.13,7.13,7.13,7.1267,7.0804,7.0872,7.1267,7.0804,7.0906,7.13,7.13,7.13,7.13,7.13,7.13,7.13,7.13,7.13,7.13,7.13,7.13,7.13,7.13,7.13,7.13,7.13,7.0939,7.0298,6.9421,6.8589,6.8024,6.838,6.8454,6.8809,7.0216,7.0123,6.925,6.7521,6.7432,6.6673,6.3635,6.3789,6.4332,6.4332,6.4772,6.5714,6.7432,6.8565,6.9549,7.039,7.0996,7.13,7.13,6.8781,6.719,6.719,6.4623,6.3108,6.3108,6.3592,6.4665,6.6378,6.6074,6.6725,6.8454,6.7061,6.6417,6.6404,6.5875,6.5665,3.5673,3.7097,3.9131,4.0592,4.2735,4.5233,4.8028,5.1405,5.4747,5.7642,5.9048,5.958,5.8944,6.1483,6.4292,0.0,7.251,7.7786,7.9315,0.0,0.0,0.0,0.0,0.0,0.0,0.0,0.0,0.0,0.0,0.0,0.0,7.1394,7.0165,7.0631,6.9472,6.9436,7.062,7.0603,7.059,7.0534,7.0838,7.0962,7.0973,7.1199,7.13,7.1267,7.077,7.0838,7.1267,7.077,7.0838,7.13,7.13,7.13,7.13,7.13,7.13,7.13,7.13,7.13,7.13,7.13,7.13,7.13,7.13,7.13,7.13,7.13,7.13,7.1075,7.0101,6.9169,6.8744,6.9644,6.9845,7.0146,7.1086,7.13,7.0597,6.8281,6.8577,6.8024,6.4346,6.4854,6.5594,6.5165,6.5835,6.7074,6.8943,6.9597,7.024,7.121,7.13,7.1109,7.0654,6.8515,6.6997,6.6574,6.436,6.3108,6.3108,6.393,6.5274,6.7151,6.7119,6.7994,6.9879,6.8491,6.7824,6.7811,6.7394,6.719,3.5691,3.6439,3.7828,3.9579,4.36,4.8276,5.2834,5.5657,5.9183,6.5674,6.4183,6.1183,5.9432,6.114,0.0,6.6789,7.1852,7.6714,0.0,0.0,0.0,0.0,0.0,0.0,0.0,0.0,0.0,0.0,0.0,0.0,0.0,7.036,6.9193,6.916,6.8457,6.8424,6.916,6.9099,6.9801,7.1244,7.0534,7.0206,7.024,7.0962,7.13,7.13,7.13,7.13,7.13,7.1289,7.1289,7.13,7.1289,7.1289,7.13,7.13,7.13,7.13,7.13,7.13,7.13,7.13,7.13,7.13,7.13,7.13,7.13,7.13,7.13,7.13,7.13,7.13,7.13,7.13,7.13,7.13,7.13,7.13,7.0905,6.949,6.9205,6.8343,6.5598,6.6272,6.6731,6.5328,6.7432,6.9205,6.9229,7.0447,7.13,7.13,7.1289,7.0722,6.9313,6.7949,6.6569,6.5179,6.3845,6.3108,6.3108,6.5746,6.7177,6.719,6.9879,7.1289,7.13,6.9914,6.9229,6.9193,6.7849,6.7228,3.5691,3.6776,3.8749,4.1512,4.5099,4.9607,5.5931,5.9097,6.1925,6.6237,6.4768,6.2378,6.1407,6.258,0.0,6.6206,0.0,0.0,0.0,0.0,0.0,0.0,0.0,0.0,0.0,0.0,0.0,0.0,0.0,0.0,0.0,6.8944,6.7573,6.7113,6.5912,6.5632,6.6362,6.7262,6.7664,6.7597,6.883,6.9958,7.0962,7.1199,7.13,7.1222,7.0184,7.0353,7.1267,7.0737,7.0838,7.1267,7.0737,7.0838,7.13,7.13,7.13,7.13,7.13,7.13,7.13,7.13,7.13,7.13,7.13,7.13,7.13,7.13,7.13,7.13,7.13,7.13,7.13,7.13,7.13,7.13,7.13,7.13,7.1039,7.0142,6.9559,6.8485,6.6259,6.6193,6.6637,6.7264,6.8452,6.9803,7.125,7.1828,7.1887,7.1368,7.0882,7.021,6.9274,6.7061,6.5526,6.5124,6.3845,6.3108,6.3108,6.4786,6.6193,6.7164,6.8939,7.0309,7.13,7.0871,7.0699,7.0654,7.0263,7.0088,3.6148,3.7494,3.9796,4.3917,4.7579,5.1971,5.8912,6.2547,6.5151,6.7505,6.5378,6.322,6.3607,6.3945,0.0,6.7872,0.0,0.0,0.0,0.0,0.0,0.0,0.0,0.0,0.0,0.0,0.0,0.0,0.0,0.0,0.0,6.74,6.5785,6.5386,6.4006,6.3636,6.4368,6.5597,6.6298,6.643,6.7925,6.9248,7.0421,7.0421,7.0421,7.0387,6.9485,6.9609,7.0387,6.9958,7.0026,7.0387,6.9925,7.0195,7.0872,7.0872,7.1064,7.13,7.13,7.13,7.13,7.13,7.13,7.13,7.13,7.13,7.13,7.13,7.13,7.13,7.13,7.13,7.13,7.13,7.13,7.13,7.13,7.13,7.1187,7.0795,7.0115,6.9045,6.7286,6.7157,6.7426,6.7778,6.9125,7.0544,7.1797,7.1953,7.1551,7.0536,7.0067,6.9422,6.8454,6.6852,6.5656,6.5085,6.4305,6.3737,6.3482,6.5046,6.6338,6.7177,6.9073,7.0459,7.13,7.13,7.13,7.13,7.13,7.13,3.6896,3.8404,4.0865,4.6568,5.0857,5.5364,6.167,6.561,6.8124,6.8784,6.6097,6.4209,6.5957,6.5438,6.6221,0.0,0.0,0.0,0.0,0.0,0.0,0.0,0.0,0.0,0.0,0.0,0.0,0.0,0.0,0.0,0.0,6.5871,6.3982,6.3755,6.2483,6.2081,6.2655,6.3953,6.5259,0.0,6.7277,6.803,6.8808,6.9011,6.9079,6.8977,6.9079,6.9079,6.8977,6.8977,6.9045,6.9079,6.9011,6.9451,7.0105,7.0172,7.0635,7.1199,7.13,7.13,7.13,7.13,7.13,7.13,7.13,7.13,7.13,7.13,7.13,7.13,7.13,7.13,7.13,7.13,7.13,7.13,7.13,7.13,7.1334,7.1402,7.064,6.9662,6.8504,6.8606,6.8491,6.7531,6.9555,7.1228,7.1282,7.1228,7.0683,6.9244,6.9042,6.8495,6.7212,6.6973,6.6379,6.5083,6.4994,6.474,6.4126,6.6157,6.7241,6.719,6.989,7.13,7.13,7.13,7.13,7.13,7.13,7.13,3.7007,3.8772,4.1676,4.7894,5.43,6.0081,6.3791,6.5613,6.6573,6.6711,6.7332,6.7796,6.7769,6.838,6.9264,0.0,0.0,0.0,0.0,0.0,0.0,0.0,0.0,0.0,0.0,0.0,0.0,0.0,0.0,0.0,6.6949,6.5112,6.3123,6.1012,6.0655,6.0069,5.9178,6.1414,6.2433,0.0,6.4312,6.5696,6.6485,6.8267,6.8774,6.8199,6.8842,6.8741,6.8166,6.8166,6.8538,6.9045,6.8402,6.8639,6.9417,7.0003,7.0308,7.0511,7.1097,7.13,7.13,7.13,7.13,7.13,7.13,7.13,7.13,7.13,7.13,7.13,7.13,7.13,7.13,7.13,7.13,7.13,7.13,7.13,7.147,7.2056,7.023,6.8711,6.8995,6.7736,6.7337,6.9227,7.0088,7.0687,7.1167,7.0821,7.015,6.9202,6.8691,6.8024,6.7159,6.6107,6.532,6.5024,6.4994,6.4934,6.48,6.6835,6.7746,6.7222,6.989,7.13,7.13,7.13,7.13,7.13,7.13,7.13,3.7255,3.9568,4.3137,5.0562,5.623,6.0635,6.3119,6.469,6.5715,6.6016,6.747,6.8773,6.9102,6.948,7.0091,0.0,0.0,0.0,0.0,0.0,0.0,0.0,0.0,0.0,0.0,0.0,0.0,0.0,0.0,6.6314,6.5257,6.3282,6.1656,6.0517,6.0183,5.977,5.9345,6.1295,6.2095,6.1763,6.3705,6.4996,6.574,6.7286,6.7749,6.7411,6.7817,6.7749,6.7377,6.7377,6.7614,6.7952,6.7546,6.7861,6.8571,6.8954,6.936,6.9789,7.0534,7.077,7.0838,7.1199,7.13,7.13,7.13,7.13,7.13,7.13,7.13,7.13,7.13,7.13,7.13,7.13,7.13,7.13,7.13,7.13,7.1537,7.2259,7.0939,6.9923,7.0656,6.9548,6.9188,7.0994,7.1265,7.1429,7.1726,7.1161,7.0315,6.9262,6.8506,6.7827,6.7127,6.6387,6.5966,6.5966,6.661,6.6886,6.6551,6.8557,6.9046,6.7708,7.0066,7.13,7.13,7.13,7.13,7.13,7.13,7.13,3.7203,4.0685,4.5275,5.2947,5.7079,5.9814,6.1811,6.3905,6.566,6.6438,6.754,6.8676,6.9805,6.9571,0.0,0.0,0.0,0.0,0.0,0.0,0.0,0.0,0.0,0.0,0.0,0.0,0.0,0.0,0.0,6.4004,6.3769,6.1541,6.038,6.0712,6.0284,6.0134,6.0326,6.1782,6.2322,6.1948,6.3497,6.4624,6.5368,6.6092,6.6565,6.6802,6.6802,6.6802,6.6802,6.6802,6.6802,6.6802,6.6802,6.7174,6.7726,6.7861,6.8335,6.9011,6.9766,7.0105,7.0308,7.0906,7.1199,7.13,7.13,7.13,7.13,7.13,7.13,7.13,7.13,7.13,7.13,7.13,7.13,7.13,7.13,7.13,7.147,7.209,7.1701,7.1505,7.2124,7.1768,7.1662,7.248,7.248,7.2448,7.2562,7.1702,7.0565,6.9325,6.8364,6.7583,6.7044,6.7014,6.7091,6.7351,6.8516,6.9083,6.8763,7.0396,7.0509,6.8756,7.0427,7.13,7.13,7.13,7.13,7.13,7.13,7.13,3.6006,4.2022,4.8457,5.248,5.6723,6.0488,6.2513,6.494,6.7132,6.8417,6.8864,6.9032,6.9199,6.9164,0.0,0.0,0.0,0.0,0.0,0.0,0.0,0.0,0.0,0.0,0.0,0.0,0.0,0.0,6.5695,6.3628,6.2519,6.1402,6.0558,6.0057,6.0408,6.0047,5.888,6.0783,6.0775,5.892,6.1471,6.3091,6.3825,6.4569,6.5584,6.6802,6.6802,6.6802,6.6802,6.6802,6.6802,6.6802,6.6802,6.6869,6.7005,6.7658,6.7963,6.8166,6.8977,6.9665,7.0206,7.0308,7.077,7.13,7.13,7.13,7.13,7.13,7.13,7.13,7.13,7.13,7.13,7.13,7.13,7.13,7.13,7.13,7.1334,7.1436,7.1356,7.1347,7.1521,7.1446,7.1836,7.3162,7.2869,7.2691,7.3272,7.1631,7.0111,6.9309,6.7939,6.7104,6.7014,6.7014,6.7548,6.8839,6.9085,6.9742,7.0918,7.1194,7.1164,7.0891,7.1162,7.13,7.13,7.13,7.13,7.13,7.13,7.13,3.7554,4.2282,4.704,5.1079,5.4682,5.7877,6.0202,6.2728,6.486,6.5858,6.6345,6.7083,6.8808,6.8392,0.0,0.0,0.0,0.0,0.0,0.0,0.0,0.0,0.0,0.0,0.0,0.0,0.0,0.0,6.3587,6.1946,6.2079,6.0974,6.0683,6.1442,6.131,6.0859,6.0128,6.0986,6.0739,5.9311,6.0536,6.1738,6.2888,6.3226,6.4174,6.555,6.555,6.555,6.5584,6.6,6.617,6.617,6.617,6.617,6.6203,6.6552,6.6688,6.6857,6.803,6.8639,6.9056,6.9902,7.0409,7.077,7.1165,7.13,7.13,7.13,7.13,7.13,7.13,7.13,7.13,7.13,7.1605,7.1909,7.1909,7.1909,7.2146,7.2992,7.348,7.375,7.381,7.382,7.387,7.4026,7.3808,7.3724,7.4022,7.2826,7.19,7.1674,7.0669,6.988,6.9507,6.9476,6.9731,7.041,7.1196,7.1961,7.2632,7.2953,7.2952,7.2529,7.1725,7.13,7.13,7.13,7.13,7.13,7.13,7.13,3.8033,4.1205,4.4307,4.8435,5.196,5.5052,5.7566,6.0453,6.283,6.3516,6.4017,6.5087,6.7523,6.7005,0.0,0.0,0.0,0.0,0.0,0.0,0.0,0.0,0.0,0.0,0.0,0.0,0.0,0.0,6.1942,6.0722,6.1196,6.0658,6.1068,6.2629,6.2128,6.1629,6.1289,6.0554,6.0148,6.0114,5.9708,6.0351,6.1815,6.1815,6.2526,6.3802,6.4377,6.4613,6.4647,6.5199,6.5436,6.5436,6.5436,6.5537,6.5706,6.5706,6.5808,6.6146,6.7252,6.7726,6.8132,6.9496,7.0037,7.0342,7.1064,7.13,7.13,7.13,7.13,7.13,7.13,7.13,7.1368,7.1537,7.1988,7.2462,7.2631,7.2665,7.3071,7.4345,7.5021,7.5473,7.5676,7.5709,7.5563,7.5157,7.5104,7.5104,7.5104,7.427,7.365,7.3621,7.2722,7.1936,7.1452,7.1388,7.1551,7.1929,7.2998,7.3752,7.4127,7.444,7.4345,7.3793,7.2326,7.1503,7.13,7.13,7.13,7.13,7.13,7.13,3.5519,3.8123,4.1265,4.3978,4.8776,5.3366,5.5495,5.9294,6.263,6.3363,6.3538,6.3825,6.4681,6.4783,0.0,0.0,0.0,0.0,0.0,0.0,0.0,0.0,0.0,0.0,0.0,0.0,0.0,0.0,6.183,6.0876,5.9154,6.0624,6.1873,6.2684,6.2479,6.2027,6.1322,5.8457,5.8084,6.008,5.8669,5.8804,6.0216,6.0216,6.0689,6.1603,6.37,6.4613,6.4613,6.4647,6.4647,6.4647,6.4647,6.5097,6.5706,6.5706,6.6136,6.6768,6.6836,6.7309,6.803,6.8876,6.962,7.0342,7.1064,7.13,7.13,7.13,7.13,7.13,7.13,7.13,7.147,7.2191,7.236,7.2597,7.3285,7.3454,7.3657,7.4446,7.4649,7.4886,7.5574,7.5709,7.5956,7.6661,7.6784,7.6784,7.6784,7.5508,7.4371,7.3657,7.2295,7.1452,7.1388,7.1388,7.1982,7.3379,7.3566,7.4206,7.5532,7.4952,7.4581,7.4547,7.3105,7.1988,7.13,7.13,7.13,7.13,7.13,7.13,3.5737,3.7285,3.9101,4.1773,4.6311,5.0404,5.152,5.5789,5.9582,5.9844,6.0274,6.0849,6.1569,6.2144,6.2787,0.0,0.0,0.0,0.0,0.0,0.0,0.0,0.0,0.0,0.0,0.0,0.0,0.0,0.0,6.0645,6.1308,6.1502,6.2082,6.3193,6.2679,6.1815,6.0554,5.8051,5.7205,5.7983,5.7442,5.7721,5.8693,5.9191,6.0071,6.1322,6.2144,6.2753,6.3226,6.369,6.3893,6.3893,6.3893,6.4062,6.4299,6.4299,6.4739,6.5459,6.5933,6.6576,6.7411,6.8673,6.9282,6.9722,7.0928,7.13,7.13,7.13,7.13,7.13,7.13,7.13,7.1605,7.28,7.3477,7.4018,7.4762,7.4909,7.5011,7.5236,7.5303,7.5405,7.5642,7.5709,7.5811,7.6082,7.6555,7.6724,7.6183,7.6121,7.5804,7.5033,7.4468,7.4181,7.4181,7.4181,7.4381,7.4896,7.4932,7.5173,7.5697,7.5439,7.51,7.4615,7.4074,7.3228,7.1988,7.1537,7.13,7.13,7.13,7.13,3.5535,3.6455,3.7674,4.0127,4.3457,4.6568,4.8354,5.2143,5.5561,5.6594,5.778,5.8863,5.9597,5.9979,6.0655,0.0,0.0,0.0,0.0,0.0,0.0,0.0,0.0,0.0,0.0,0.0,0.0,0.0,0.0,0.0,6.1576,6.1551,6.2001,6.3095,6.2415,6.1409,6.0114,5.7915,5.6934,5.7171,5.6934,5.7306,5.8287,5.8786,5.9834,6.1298,6.1298,6.1704,6.2424,6.2922,6.3115,6.3115,6.3115,6.3284,6.3511,6.3792,6.4333,6.5053,6.5797,6.6406,6.7005,6.8267,6.8876,6.9316,7.0567,7.1097,7.13,7.13,7.13,7.13,7.13,7.1672,7.2293,7.3251,7.4255,7.51,7.5574,7.5709,7.5709,7.5709,7.5709,7.5709,7.5709,7.5709,7.5709,7.5709,7.6149,7.6284,7.5777,7.6386,7.6589,7.5777,7.5946,7.598,7.5709,7.5709,7.5709,7.5709,7.5709,7.5709,7.5709,7.5709,7.5473,7.4987,7.4717,7.4108,7.3138,7.2146,7.1537,7.13,7.13,7.13,0.0,0.0,0.0,3.8823,4.013,4.2049,4.6136,4.8572,5.08,5.3804,5.6156,5.7958,5.8718,5.8287,5.8297,5.9742,0.0,0.0,0.0,0.0,0.0,0.0,0.0,0.0,0.0,0.0,0.0,0.0,5.8949,5.9876,5.9546,6.0674,6.1637,6.2357,6.1637,6.0892,6.008,5.7881,5.7171,5.7857,5.7137,5.7534,5.8955,5.8955,5.98,6.1231,6.1264,6.167,6.2357,6.2391,6.2391,6.2391,6.2391,6.2854,6.3579,6.4299,6.5063,6.5808,6.6531,6.6768,6.6937,6.7658,6.8436,6.9248,6.9969,7.0737,7.13,7.13,7.13,7.13,7.1334,7.2428,7.35,7.3522,7.4627,7.5709,7.5709,7.5709,7.5709,7.5709,7.5709,7.5709,7.5743,7.5709,7.5709,7.5743,7.5743,7.5743,7.5743,7.6454,7.6623,7.5845,7.6454,7.6589,7.5811,7.5709,7.5709,7.5709,7.5709,7.5709,7.5709,7.5709,7.5709,7.5709,7.4987,7.4615,7.4615,7.3138,7.2045,7.1357,7.1357,7.1357,3.513,0.0,0.0,0.0,0.0,0.0,4.1089,4.4156,4.7396,4.9343,5.1522,5.3611,5.548,5.6089,5.6452,5.6858,0.0,0.0,0.0,0.0,0.0,0.0,0.0,0.0,0.0,0.0,0.0,0.0,5.7885,5.892,5.9871,6.1322,6.1941,6.1603,6.0858,6.008,5.9327,5.7636,5.69,5.7103,5.69,5.6993,5.7433,5.7949,5.8727,5.9665,6.0206,6.0892,6.1637,6.2188,6.2391,6.2391,6.2391,6.2854,6.3511,6.3724,6.4613,6.574,6.5943,6.6328,6.6937,6.7658,6.8436,6.9248,6.9969,7.0737,7.13,7.13,7.13,7.1436,7.1943,7.28,7.3624,7.4187,7.4999,7.5709,7.5709,7.5709,7.5709,7.5709,7.5709,7.5879,7.6454,7.6082,7.5912,7.6487,7.6555,7.6555,7.6555,7.7244,7.7616,7.7379,7.7096,7.6826,7.6589,7.6048,7.5709,7.5709,7.5709,7.5709,7.5709,7.5709,7.5709,7.5709,7.5506,7.5122,7.4615,7.3646,7.3082,7.2868,7.2868,7.2868,0.0,3.5511,3.5631,3.6169,0.0,0.0,3.9117,4.1121,4.3426,0.0,4.7561,4.9518,5.1454,5.2672,5.3475,5.3771,5.4076,0.0,0.0,0.0,0.0,0.0,0.0,0.0,0.0,5.5775,5.5733,5.5852,5.6842,5.8229,6.0013,6.1264,6.1738,6.1322,6.052,5.9733,5.9022,5.7848,5.7408,5.7703,5.7408,5.7746,5.866,5.8457,5.8921,5.9969,6.0047,6.0554,6.1332,6.1772,6.212,6.2391,6.2391,6.2854,6.3545,6.3859,6.4681,6.574,6.6045,6.644,6.6869,6.7309,6.8199,6.918,6.962,7.0466,7.13,7.13,7.13,7.1402,7.1842,7.271,7.3624,7.4052,7.4931,7.5709,7.5709,7.5709,7.5709,7.5709,7.5709,7.5845,7.6318,7.6014,7.5845,7.6318,7.6386,7.6521,7.686,7.7548,7.7887,7.7582,7.7447,7.7096,7.6454,7.598,7.5709,7.5709,7.6014,7.6048,7.5709,7.6014,7.6048,7.5709,7.5709,7.5473,7.5055,7.4322,7.3793,7.3488,7.3488,7.3488,0.0,0.0,0.0,0.0,0.0,0.0,3.8787,3.9151,3.9786,0.0,4.4298,4.5899,4.738,4.8841,5.0033,5.0634,5.148,0.0,0.0,0.0,0.0,0.0,0.0,0.0,5.4541,5.5065,5.5166,5.4541,5.5919,5.7746,5.9877,6.0723,6.1129,6.1052,6.0351,5.9631,5.8887,5.822,5.822,5.8887,5.822,5.8973,6.0892,5.9496,5.9631,6.0892,6.025,6.0419,6.1163,6.1163,6.1637,6.2391,6.2391,6.2854,6.3579,6.4343,6.5063,6.5808,6.6531,6.6802,6.6802,6.6802,6.7783,6.8977,6.9079,7.0049,7.1199,7.13,7.13,7.1334,7.1402,7.2394,7.3387,7.3488,7.4503,7.5473,7.5574,7.5574,7.5608,7.5676,7.5709,7.5743,7.5811,7.5743,7.5743,7.5811,7.5845,7.6082,7.6826,7.7548,7.7751,7.7096,7.7548,7.7345,7.6082,7.5879,7.5879,7.5946,7.6623,7.669,7.598,7.6555,7.6555,7.5845,7.5743,7.5743,7.5845,7.5089,7.439,7.3725,7.3725,7.3725,0.0,0.0,0.0,0.0,0.0,0.0,3.6574,3.8029,3.9827,0.0,4.2351,4.4336,4.5865,4.7346,4.8199,4.7733,4.9263,5.1327,0.0,0.0,0.0,0.0,0.0,0.0,5.3721,5.3847,5.3881,5.3721,5.5615,5.7509,5.9124,5.9945,6.0071,5.9462,5.9293,5.8853,5.8127,5.7958,5.7958,5.8118,5.7958,5.8127,5.8533,5.8263,5.8297,5.8601,5.9032,5.9631,6.0317,6.0317,6.1163,6.2391,6.2391,6.2854,6.3579,6.4343,6.5063,6.5808,6.6531,6.6802,6.6802,6.6802,6.7421,6.8267,6.891,6.9733,7.0534,7.1131,7.13,7.1436,7.2011,7.2394,7.2766,7.3353,7.3725,7.4097,7.4683,7.4818,7.4987,7.5574,7.5709,7.5912,7.6555,7.6115,7.5912,7.6555,7.6657,7.6724,7.6893,7.7548,7.7954,7.7785,7.7379,7.7232,7.7515,7.6995,7.6927,7.7515,7.7684,7.7718,7.7548,7.713,7.6826,7.6657,7.6014,7.6014,7.6657,7.5879,7.5405,7.527,7.527,7.527,0.0,0.0,0.0,3.5998,0.0,0.0,0.0,3.6855,3.7999,3.9203,4.0084,4.1191,4.3091,4.4343,4.5358,4.6143,4.7192,4.8815,5.142,0.0,0.0,0.0,0.0,0.0,5.2359,5.2706,5.3213,5.3991,5.5082,5.6494,5.8355,5.8795,5.8998,5.9013,5.9013,5.866,5.79,5.7891,5.8094,5.8457,5.8094,5.8297,5.8973,5.8229,5.8094,5.8457,5.8457,5.8853,5.9564,5.9564,6.0206,6.1308,6.167,6.255,6.3579,6.4343,6.5063,6.5808,6.6531,6.6802,6.6802,6.6802,6.758,6.8571,6.8977,6.9857,7.0838,7.1199,7.13,7.1402,7.174,7.2124,7.2496,7.2879,7.3218,7.3691,7.4446,7.4615,7.4818,7.5574,7.5709,7.5811,7.6217,7.598,7.5845,7.6251,7.6284,7.6454,7.686,7.7232,7.7447,7.7447,7.7447,7.7447,7.7447,7.7447,7.7447,7.7447,7.8145,7.8213,7.7468,7.7447,7.7109,7.6318,7.6284,7.6284,7.6284,7.5879,7.5709,7.5709,7.5709,7.5912,0.0,0.0,0.0,0.0,0.0,3.66,0.0,0.0,0.0,3.8149,3.8225,3.856,4.0425,4.1491,4.2597,0.0,0.0,0.0,0.0,4.9492,0.0,0.0,0.0,0.0,0.0,5.1615,5.257,5.427,5.4236,5.5116,5.7349,5.762,5.7949,5.8549,5.8718,5.849,5.79,5.7891,5.8195,5.8786,5.8186,5.8533,5.9641,5.8432,5.822,5.8752,5.8161,5.8321,5.8989,5.8853,5.9293,6.0182,6.0994,6.2033,6.3217,6.4231,6.4986,6.5605,6.6497,6.6802,6.6802,6.6802,6.785,6.9113,6.9113,7.0117,7.13,7.13,7.13,7.13,7.13,7.174,7.2191,7.2191,7.2631,7.3285,7.4006,7.4277,7.4615,7.5337,7.5608,7.5709,7.5709,7.5709,7.5709,7.5709,7.5845,7.6115,7.6623,7.6792,7.6826,7.669,7.7333,7.7616,7.7164,7.7773,7.8022,7.757,7.864,7.8708,7.7367,7.7604,7.721,7.5946,7.642,7.6487,7.6149,7.598,7.5912,7.5912,7.5777,7.6217,0.0,0.0,0.0,0.0,3.9126,0.0,0.0,0.0,3.8867,3.7191,0.0,3.8856,3.9108,0.0,0.0,0.0,0.0,0.0,4.3349,4.4993,4.7327,0.0,0.0,0.0,0.0,5.0668,5.1259,5.345,5.2976,5.3543,5.5834,5.6562,5.6968,5.7061,5.7688,5.7992,5.7891,5.7891,5.7924,5.8026,5.7924,5.7992,5.8127,5.7992,5.7958,5.8026,5.7934,5.8321,5.8945,5.8287,5.8838,6.0182,6.0994,6.14,6.1806,6.3869,6.4647,6.4918,6.6328,6.6802,6.6802,6.6802,6.785,6.9113,6.9113,7.0117,7.13,7.13,7.13,7.13,7.13,7.1368,7.1436,7.1436,7.1503,7.174,7.2496,7.3172,7.3849,7.4581,7.5258,7.5709,7.5709,7.5709,7.5709,7.5709,7.6318,7.6555,7.5912,7.6454,7.6623,7.5912,7.6555,7.7278,7.7819,7.8551,7.9228,7.9803,7.9972,7.9701,7.8877,7.7671,7.6927,7.6758,7.6149,7.6466,7.7751,7.7063,7.6758,7.6758,7.6014,7.6499,0.0,0.0,0.0,0.0,0.0,0.0,3.6646,0.0,3.852,0.0,0.0,0.0,0.0,0.0,0.0,0.0,4.1149,0.0,0.0,0.0,4.3234,0.0,0.0,0.0,0.0,0.0,0.0,0.0,5.0481,5.1623,5.3027,5.4219,5.5268,5.6139,5.6452,5.6621,5.6621,5.7036,5.7273,5.7282,5.7688,5.7891,5.7891,5.7891,5.7891,5.7891,5.7891,5.8094,5.8355,5.8026,5.8263,5.8906,5.9674,6.0511,6.1467,6.2821,6.3599,6.4164,6.5662,6.617,6.6305,6.7151,6.8199,6.918,6.962,7.0466,7.13,7.13,7.13,7.13,7.13,7.13,7.13,7.13,7.13,7.1503,7.2225,7.2631,7.3206,7.4378,7.4852,7.5055,7.5055,7.5439,7.554,7.5122,7.5709,7.5946,7.5156,7.5743,7.6082,7.5743,7.6792,7.765,7.7954,7.8686,7.9215,7.952,7.916,7.8788,7.8483,7.7887,7.7333,7.6893,7.6995,7.7345,7.7988,7.7684,7.7548,7.7548,7.721,7.7604,3.9939,0.0,0.0,0.0,0.0,0.0,0.0,0.0,0.0,0.0,0.0,0.0,0.0,0.0,4.0912,4.1589,0.0,4.0263,0.0,0.0,0.0,0.0,0.0,0.0,0.0,0.0,0.0,0.0,0.0,4.9263,5.0837,5.2156,5.3644,5.5336,5.5597,5.5699,5.5699,5.6249,5.6587,5.6799,5.734,5.7688,5.7891,5.7891,5.7891,5.7891,5.7891,5.7891,5.7891,5.7891,5.7891,5.7958,5.8481,5.9631,6.1095,6.2052,6.2854,6.369,6.4962,6.5537,6.5909,6.7184,6.8132,6.891,6.9665,7.0398,7.103,7.1233,7.13,7.13,7.13,7.13,7.13,7.13,7.13,7.1436,7.1988,7.2259,7.2732,7.377,7.4142,7.4289,7.4289,7.5067,7.5439,7.4717,7.5236,7.5506,7.4953,7.5574,7.6014,7.6014,7.7401,7.8293,7.8293,7.8991,7.9317,7.9114,7.8416,7.7921,7.7718,7.7718,7.7447,7.6927,7.7604,7.809,7.8293,7.809,7.8191,7.8597,7.7988,7.8213,0.0,0.0,0.0,4.0019,0.0,0.0,0.0,0.0,4.0376,0.0,0.0,0.0,0.0,4.1746,4.1792,4.0377,4.1318,0.0,0.0,0.0,0.0,0.0,0.0,0.0,0.0,0.0,0.0,0.0,0.0,0.0,4.994,5.0871,5.2325,5.4575,5.5336,5.5699,5.5699,5.5733,5.608,5.6799,5.6833,5.7205,5.7891,5.7891,5.7891,5.7891,5.7891,5.7891,5.7891,5.7891,5.7891,5.7891,5.7924,5.8838,6.0317,6.1849,6.2854,6.3612,6.4367,6.5097,6.5842,6.6599,6.7354,6.8098,6.8876,6.9654,7.0375,7.1097,7.13,7.13,7.13,7.13,7.13,7.13,7.13,7.13,7.1334,7.1909,7.2428,7.2462,7.3048,7.3522,7.3522,7.474,7.5439,7.4717,7.5236,7.5676,7.5676,7.6352,7.686,7.686,7.8167,7.9046,7.9046,7.9735,7.987,7.9147,7.8416,7.7684,7.6961,7.6927,7.6927,7.6893,7.7604,7.836,7.9046,7.836,7.8733,8.0073,7.7942,7.7705,0.0,0.0,4.3439,4.1274,0.0,0.0,0.0,0.0,0.0,0.0,0.0,0.0,0.0,0.0,4.1988,4.0973,4.0825,4.0419,0.0,0.0,0.0,0.0,0.0,0.0,0.0,0.0,0.0,0.0,0.0,0.0,0.0,4.9026,5.1048,5.2325,5.3577,5.4253,5.4253,5.4735,5.5108,5.5353,5.6325,5.6934,5.7171,5.7688,5.7891,5.7891,5.7891,5.7891,5.7891,5.7891,5.7891,5.7891,5.7891,5.849,5.9496,6.052,6.167,6.2956,6.4174,6.5097,6.5808,6.6565,6.7309,6.8064,6.8876,6.9631,7.0342,7.1097,7.13,7.13,7.13,7.13,7.13,7.13,7.13,7.13,7.13,7.1503,7.1808,7.2326,7.2597,7.2778,7.2778,7.4018,7.4728,7.3984,7.4909,7.5506,7.5021,7.5642,7.6115,7.6115,7.7468,7.8382,7.8382,7.9498,7.9667,7.845,7.8585,7.8382,7.765,7.765,7.7841,7.8336,7.8619,7.9092,7.9837,7.9566,7.9464,7.9452,7.8708,7.8877,4.1982,4.297,0.0,4.2122,4.1654,0.0,3.9689,0.0,0.0,0.0,0.0,0.0,0.0,0.0,0.0,4.1352,4.0798,4.0142,0.0,3.8969,0.0,0.0,0.0,0.0,0.0,0.0,0.0,0.0,0.0,0.0,0.0,0.0,4.9221,5.0769,5.2291,5.3213,5.3509,5.3957,5.4338,5.4609,5.5818,5.6553,5.6833,5.7552,5.7891,5.7891,5.7891,5.7891,5.7891,5.7891,5.7891,5.7891,5.7891,5.8355,5.9081,5.9844,6.1231,6.2956,6.4174,6.5097,6.5808,6.6565,6.7309,6.8064,6.8876,6.9631,7.0409,7.1413,7.1503,7.1368,7.1605,7.1503,7.13,7.13,7.13,7.13,7.13,7.13,7.1436,7.1909,7.2011,7.2011,7.2011,7.324,7.4052,7.3556,7.4774,7.554,7.5055,7.5676,7.6115,7.6115,7.7502,7.8483,7.8766,7.9397,7.9397,7.845,7.8855,7.8788,7.8022,7.8259,7.8855,7.987,7.9621,7.9972,8.0987,8.0209,7.9689,7.9486,7.9215,7.9486]}]]